<?xml version="1.0"?>
<gpx
 version="1.1"
 creator="Satmap Active 20"
 xmlns:xsi="http://www.w3.org/2001/XMLSchema-instance"
 xmlns="http://www.topografix.com/GPX/1/1"
 xmlns:satmap="http://www.satmap.com/updates/xmlschemas/GpxExtensions/v2/GpxExtensions_v2.xsd"
 xsi:schemaLocation="http://www.topografix.com/GPX/1/1 http://www.topografix.com/GPX/1/1/gpx.xsd">
<metadata>
<time>2022-04-18T13:52:13Z</time>
<extensions>
<satmap:platform>43</satmap:platform>
<satmap:software version="3.13.037">SM15.exe</satmap:software>
<satmap:username>pieter metz</satmap:username>
<satmap:network_ids>
<satmap:network_id type="wifi">00-23-A7-CA-E3-5C</satmap:network_id>
<satmap:network_id type="bluetooth">80-BB-EB-78-4F-29</satmap:network_id>
</satmap:network_ids>
<satmap:snap_type>simple</satmap:snap_type>
</extensions>
</metadata>
<trk>
<name>2022-04-18_1352</name>
<desc>Track 1</desc>
<number>1</number>
<trkseg>
<trkpt lat="52.093801" lon="05.643664"><ele>43</ele><time>2022-04-18T13:52:13Z</time><name>PT1</name></trkpt>
<trkpt lat="52.093797" lon="05.643672"><ele>42.9</ele><time>2022-04-18T13:52:15Z</time><name>PT2</name></trkpt>
<trkpt lat="52.093795" lon="05.643687"><ele>43</ele><time>2022-04-18T13:52:15Z</time><name>PT3</name></trkpt>
<trkpt lat="52.093792" lon="05.643700"><ele>42.8</ele><time>2022-04-18T13:52:16Z</time><name>PT4</name></trkpt>
<trkpt lat="52.093792" lon="05.643714"><ele>42.7</ele><time>2022-04-18T13:52:18Z</time><name>PT5</name></trkpt>
<trkpt lat="52.093794" lon="05.643730"><ele>42.7</ele><time>2022-04-18T13:52:18Z</time><name>PT6</name></trkpt>
<trkpt lat="52.093794" lon="05.643744"><ele>42.7</ele><time>2022-04-18T13:52:19Z</time><name>PT7</name></trkpt>
<trkpt lat="52.093794" lon="05.643760"><ele>42.8</ele><time>2022-04-18T13:52:21Z</time><name>PT8</name></trkpt>
<trkpt lat="52.093796" lon="05.643776"><ele>42.8</ele><time>2022-04-18T13:52:21Z</time><name>PT9</name></trkpt>
<trkpt lat="52.093796" lon="05.643789"><ele>43</ele><time>2022-04-18T13:52:22Z</time><name>PT10</name></trkpt>
<trkpt lat="52.093797" lon="05.643807"><ele>43</ele><time>2022-04-18T13:52:24Z</time><name>PT11</name></trkpt>
<trkpt lat="52.093797" lon="05.643826"><ele>43</ele><time>2022-04-18T13:52:24Z</time><name>PT12</name></trkpt>
<trkpt lat="52.093797" lon="05.643844"><ele>43</ele><time>2022-04-18T13:52:25Z</time><name>PT13</name></trkpt>
<trkpt lat="52.093796" lon="05.643856"><ele>43</ele><time>2022-04-18T13:52:27Z</time><name>PT14</name></trkpt>
<trkpt lat="52.093800" lon="05.643870"><ele>42.9</ele><time>2022-04-18T13:52:27Z</time><name>PT15</name></trkpt>
<trkpt lat="52.093799" lon="05.643883"><ele>42.9</ele><time>2022-04-18T13:52:28Z</time><name>PT16</name></trkpt>
<trkpt lat="52.093799" lon="05.643899"><ele>43</ele><time>2022-04-18T13:52:30Z</time><name>PT17</name></trkpt>
<trkpt lat="52.093801" lon="05.643912"><ele>43</ele><time>2022-04-18T13:52:30Z</time><name>PT18</name></trkpt>
<trkpt lat="52.093804" lon="05.643925"><ele>43.2</ele><time>2022-04-18T13:52:31Z</time><name>PT19</name></trkpt>
<trkpt lat="52.093808" lon="05.643926"><ele>43.3</ele><time>2022-04-18T13:52:33Z</time><name>PT20</name></trkpt>
<trkpt lat="52.093811" lon="05.643929"><ele>43.2</ele><time>2022-04-18T13:52:33Z</time><name>PT21</name></trkpt>
<trkpt lat="52.093814" lon="05.643939"><ele>43.1</ele><time>2022-04-18T13:52:34Z</time><name>PT22</name></trkpt>
<trkpt lat="52.093816" lon="05.643956"><ele>43.2</ele><time>2022-04-18T13:52:36Z</time><name>PT23</name></trkpt>
<trkpt lat="52.093819" lon="05.643977"><ele>43</ele><time>2022-04-18T13:52:36Z</time><name>PT24</name></trkpt>
<trkpt lat="52.093821" lon="05.643994"><ele>43.1</ele><time>2022-04-18T13:52:37Z</time><name>PT25</name></trkpt>
<trkpt lat="52.093824" lon="05.644000"><ele>43.3</ele><time>2022-04-18T13:52:39Z</time><name>PT26</name></trkpt>
<trkpt lat="52.093827" lon="05.643994"><ele>43.3</ele><time>2022-04-18T13:52:39Z</time><name>PT27</name></trkpt>
<trkpt lat="52.093830" lon="05.643994"><ele>43.1</ele><time>2022-04-18T13:52:40Z</time><name>PT28</name></trkpt>
<trkpt lat="52.093829" lon="05.644003"><ele>43</ele><time>2022-04-18T13:52:42Z</time><name>PT29</name></trkpt>
<trkpt lat="52.093829" lon="05.644022"><ele>43</ele><time>2022-04-18T13:52:42Z</time><name>PT30</name></trkpt>
<trkpt lat="52.093830" lon="05.644035"><ele>43</ele><time>2022-04-18T13:52:43Z</time><name>PT31</name></trkpt>
<trkpt lat="52.093833" lon="05.644050"><ele>43.1</ele><time>2022-04-18T13:52:45Z</time><name>PT32</name></trkpt>
<trkpt lat="52.093837" lon="05.644069"><ele>43.1</ele><time>2022-04-18T13:52:45Z</time><name>PT33</name></trkpt>
<trkpt lat="52.093843" lon="05.644089"><ele>43.2</ele><time>2022-04-18T13:52:46Z</time><name>PT34</name></trkpt>
<trkpt lat="52.093848" lon="05.644109"><ele>43.3</ele><time>2022-04-18T13:52:48Z</time><name>PT35</name></trkpt>
<trkpt lat="52.093853" lon="05.644126"><ele>43.2</ele><time>2022-04-18T13:52:48Z</time><name>PT36</name></trkpt>
<trkpt lat="52.093858" lon="05.644144"><ele>43.3</ele><time>2022-04-18T13:52:49Z</time><name>PT37</name></trkpt>
<trkpt lat="52.093863" lon="05.644164"><ele>43.6</ele><time>2022-04-18T13:52:50Z</time><name>PT38</name></trkpt>
<trkpt lat="52.093868" lon="05.644182"><ele>43.5</ele><time>2022-04-18T13:52:51Z</time><name>PT39</name></trkpt>
<trkpt lat="52.093872" lon="05.644199"><ele>43.6</ele><time>2022-04-18T13:52:52Z</time><name>PT40</name></trkpt>
<trkpt lat="52.093875" lon="05.644217"><ele>43.4</ele><time>2022-04-18T13:52:54Z</time><name>PT41</name></trkpt>
<trkpt lat="52.093879" lon="05.644237"><ele>43.4</ele><time>2022-04-18T13:52:54Z</time><name>PT42</name></trkpt>
<trkpt lat="52.093884" lon="05.644257"><ele>43.2</ele><time>2022-04-18T13:52:55Z</time><name>PT43</name></trkpt>
<trkpt lat="52.093889" lon="05.644277"><ele>43.3</ele><time>2022-04-18T13:52:57Z</time><name>PT44</name></trkpt>
<trkpt lat="52.093892" lon="05.644288"><ele>43.2</ele><time>2022-04-18T13:52:57Z</time><name>PT45</name></trkpt>
<trkpt lat="52.093898" lon="05.644306"><ele>43.4</ele><time>2022-04-18T13:52:58Z</time><name>PT46</name></trkpt>
<trkpt lat="52.093902" lon="05.644321"><ele>43.4</ele><time>2022-04-18T13:53:00Z</time><name>PT47</name></trkpt>
<trkpt lat="52.093908" lon="05.644342"><ele>43.3</ele><time>2022-04-18T13:53:00Z</time><name>PT48</name></trkpt>
<trkpt lat="52.093912" lon="05.644362"><ele>43.3</ele><time>2022-04-18T13:53:01Z</time><name>PT49</name></trkpt>
<trkpt lat="52.093914" lon="05.644381"><ele>43.4</ele><time>2022-04-18T13:53:03Z</time><name>PT50</name></trkpt>
<trkpt lat="52.093920" lon="05.644395"><ele>43.5</ele><time>2022-04-18T13:53:03Z</time><name>PT51</name></trkpt>
<trkpt lat="52.093924" lon="05.644409"><ele>43.5</ele><time>2022-04-18T13:53:04Z</time><name>PT52</name></trkpt>
<trkpt lat="52.093927" lon="05.644423"><ele>43.7</ele><time>2022-04-18T13:53:06Z</time><name>PT53</name></trkpt>
<trkpt lat="52.093932" lon="05.644442"><ele>43.6</ele><time>2022-04-18T13:53:06Z</time><name>PT54</name></trkpt>
<trkpt lat="52.093935" lon="05.644462"><ele>43.6</ele><time>2022-04-18T13:53:07Z</time><name>PT55</name></trkpt>
<trkpt lat="52.093934" lon="05.644473"><ele>43.6</ele><time>2022-04-18T13:53:09Z</time><name>PT56</name></trkpt>
<trkpt lat="52.093931" lon="05.644485"><ele>43.5</ele><time>2022-04-18T13:53:09Z</time><name>PT57</name></trkpt>
<trkpt lat="52.093927" lon="05.644496"><ele>43.5</ele><time>2022-04-18T13:53:10Z</time><name>PT58</name></trkpt>
<trkpt lat="52.093928" lon="05.644516"><ele>43.5</ele><time>2022-04-18T13:53:12Z</time><name>PT59</name></trkpt>
<trkpt lat="52.093931" lon="05.644545"><ele>43.3</ele><time>2022-04-18T13:53:12Z</time><name>PT60</name></trkpt>
<trkpt lat="52.093933" lon="05.644562"><ele>43.3</ele><time>2022-04-18T13:53:13Z</time><name>PT61</name></trkpt>
<trkpt lat="52.093934" lon="05.644580"><ele>43.5</ele><time>2022-04-18T13:53:15Z</time><name>PT62</name></trkpt>
<trkpt lat="52.093935" lon="05.644596"><ele>43.5</ele><time>2022-04-18T13:53:15Z</time><name>PT63</name></trkpt>
<trkpt lat="52.093939" lon="05.644618"><ele>43.8</ele><time>2022-04-18T13:53:16Z</time><name>PT64</name></trkpt>
<trkpt lat="52.093944" lon="05.644639"><ele>43.8</ele><time>2022-04-18T13:53:18Z</time><name>PT65</name></trkpt>
<trkpt lat="52.093944" lon="05.644655"><ele>43.7</ele><time>2022-04-18T13:53:18Z</time><name>PT66</name></trkpt>
<trkpt lat="52.093945" lon="05.644671"><ele>43.7</ele><time>2022-04-18T13:53:19Z</time><name>PT67</name></trkpt>
<trkpt lat="52.093946" lon="05.644699"><ele>43.8</ele><time>2022-04-18T13:53:21Z</time><name>PT68</name></trkpt>
<trkpt lat="52.093945" lon="05.644714"><ele>43.7</ele><time>2022-04-18T13:53:21Z</time><name>PT69</name></trkpt>
<trkpt lat="52.093949" lon="05.644731"><ele>43.9</ele><time>2022-04-18T13:53:22Z</time><name>PT70</name></trkpt>
<trkpt lat="52.093952" lon="05.644753"><ele>43.9</ele><time>2022-04-18T13:53:24Z</time><name>PT71</name></trkpt>
<trkpt lat="52.093953" lon="05.644773"><ele>43.8</ele><time>2022-04-18T13:53:24Z</time><name>PT72</name></trkpt>
<trkpt lat="52.093955" lon="05.644797"><ele>43.8</ele><time>2022-04-18T13:53:25Z</time><name>PT73</name></trkpt>
<trkpt lat="52.093958" lon="05.644818"><ele>43.8</ele><time>2022-04-18T13:53:27Z</time><name>PT74</name></trkpt>
<trkpt lat="52.093960" lon="05.644840"><ele>43.8</ele><time>2022-04-18T13:53:27Z</time><name>PT75</name></trkpt>
<trkpt lat="52.093961" lon="05.644858"><ele>43.8</ele><time>2022-04-18T13:53:28Z</time><name>PT76</name></trkpt>
<trkpt lat="52.093963" lon="05.644875"><ele>44</ele><time>2022-04-18T13:53:30Z</time><name>PT77</name></trkpt>
<trkpt lat="52.093967" lon="05.644894"><ele>44.1</ele><time>2022-04-18T13:53:30Z</time><name>PT78</name></trkpt>
<trkpt lat="52.093971" lon="05.644913"><ele>44.1</ele><time>2022-04-18T13:53:31Z</time><name>PT79</name></trkpt>
<trkpt lat="52.093976" lon="05.644932"><ele>44.3</ele><time>2022-04-18T13:53:33Z</time><name>PT80</name></trkpt>
<trkpt lat="52.093983" lon="05.644945"><ele>44.4</ele><time>2022-04-18T13:53:33Z</time><name>PT81</name></trkpt>
<trkpt lat="52.093988" lon="05.644968"><ele>44.2</ele><time>2022-04-18T13:53:34Z</time><name>PT82</name></trkpt>
<trkpt lat="52.093993" lon="05.644992"><ele>44.2</ele><time>2022-04-18T13:53:36Z</time><name>PT83</name></trkpt>
<trkpt lat="52.093996" lon="05.645009"><ele>44.4</ele><time>2022-04-18T13:53:36Z</time><name>PT84</name></trkpt>
<trkpt lat="52.093999" lon="05.645030"><ele>44.2</ele><time>2022-04-18T13:53:37Z</time><name>PT85</name></trkpt>
<trkpt lat="52.094002" lon="05.645053"><ele>44.1</ele><time>2022-04-18T13:53:39Z</time><name>PT86</name></trkpt>
<trkpt lat="52.094004" lon="05.645076"><ele>44.2</ele><time>2022-04-18T13:53:39Z</time><name>PT87</name></trkpt>
<trkpt lat="52.094006" lon="05.645099"><ele>44.2</ele><time>2022-04-18T13:53:40Z</time><name>PT88</name></trkpt>
<trkpt lat="52.094010" lon="05.645122"><ele>44.2</ele><time>2022-04-18T13:53:42Z</time><name>PT89</name></trkpt>
<trkpt lat="52.094012" lon="05.645143"><ele>44.5</ele><time>2022-04-18T13:53:42Z</time><name>PT90</name></trkpt>
<trkpt lat="52.094015" lon="05.645160"><ele>44.5</ele><time>2022-04-18T13:53:43Z</time><name>PT91</name></trkpt>
<trkpt lat="52.094018" lon="05.645178"><ele>44.1</ele><time>2022-04-18T13:53:45Z</time><name>PT92</name></trkpt>
<trkpt lat="52.094021" lon="05.645192"><ele>44</ele><time>2022-04-18T13:53:45Z</time><name>PT93</name></trkpt>
<trkpt lat="52.094023" lon="05.645211"><ele>44</ele><time>2022-04-18T13:53:46Z</time><name>PT94</name></trkpt>
<trkpt lat="52.094024" lon="05.645235"><ele>44</ele><time>2022-04-18T13:53:48Z</time><name>PT95</name></trkpt>
<trkpt lat="52.094025" lon="05.645255"><ele>44.1</ele><time>2022-04-18T13:53:48Z</time><name>PT96</name></trkpt>
<trkpt lat="52.094026" lon="05.645268"><ele>44.5</ele><time>2022-04-18T13:53:49Z</time><name>PT97</name></trkpt>
<trkpt lat="52.094029" lon="05.645284"><ele>44.5</ele><time>2022-04-18T13:53:51Z</time><name>PT98</name></trkpt>
<trkpt lat="52.094031" lon="05.645291"><ele>44.6</ele><time>2022-04-18T13:53:51Z</time><name>PT99</name></trkpt>
<trkpt lat="52.094033" lon="05.645304"><ele>44.6</ele><time>2022-04-18T13:53:52Z</time><name>PT100</name></trkpt>
<trkpt lat="52.094037" lon="05.645320"><ele>44.5</ele><time>2022-04-18T13:53:54Z</time><name>PT101</name></trkpt>
<trkpt lat="52.094041" lon="05.645336"><ele>44.5</ele><time>2022-04-18T13:53:54Z</time><name>PT102</name></trkpt>
<trkpt lat="52.094042" lon="05.645354"><ele>44</ele><time>2022-04-18T13:53:55Z</time><name>PT103</name></trkpt>
<trkpt lat="52.094044" lon="05.645376"><ele>44</ele><time>2022-04-18T13:53:57Z</time><name>PT104</name></trkpt>
<trkpt lat="52.094048" lon="05.645399"><ele>43.8</ele><time>2022-04-18T13:53:57Z</time><name>PT105</name></trkpt>
<trkpt lat="52.094051" lon="05.645419"><ele>43.9</ele><time>2022-04-18T13:53:58Z</time><name>PT106</name></trkpt>
<trkpt lat="52.094054" lon="05.645440"><ele>44.1</ele><time>2022-04-18T13:54:00Z</time><name>PT107</name></trkpt>
<trkpt lat="52.094059" lon="05.645459"><ele>44.1</ele><time>2022-04-18T13:54:00Z</time><name>PT108</name></trkpt>
<trkpt lat="52.094064" lon="05.645478"><ele>44</ele><time>2022-04-18T13:54:01Z</time><name>PT109</name></trkpt>
<trkpt lat="52.094068" lon="05.645498"><ele>44</ele><time>2022-04-18T13:54:03Z</time><name>PT110</name></trkpt>
<trkpt lat="52.094073" lon="05.645516"><ele>43.9</ele><time>2022-04-18T13:54:03Z</time><name>PT111</name></trkpt>
<trkpt lat="52.094078" lon="05.645527"><ele>43.7</ele><time>2022-04-18T13:54:04Z</time><name>PT112</name></trkpt>
<trkpt lat="52.094079" lon="05.645542"><ele>43.7</ele><time>2022-04-18T13:54:06Z</time><name>PT113</name></trkpt>
<trkpt lat="52.094084" lon="05.645559"><ele>43.8</ele><time>2022-04-18T13:54:06Z</time><name>PT114</name></trkpt>
<trkpt lat="52.094088" lon="05.645578"><ele>43.7</ele><time>2022-04-18T13:54:07Z</time><name>PT115</name></trkpt>
<trkpt lat="52.094090" lon="05.645597"><ele>43.7</ele><time>2022-04-18T13:54:09Z</time><name>PT116</name></trkpt>
<trkpt lat="52.094093" lon="05.645625"><ele>43.6</ele><time>2022-04-18T13:54:09Z</time><name>PT117</name></trkpt>
<trkpt lat="52.094097" lon="05.645646"><ele>43.8</ele><time>2022-04-18T13:54:10Z</time><name>PT118</name></trkpt>
<trkpt lat="52.094102" lon="05.645667"><ele>43.8</ele><time>2022-04-18T13:54:12Z</time><name>PT119</name></trkpt>
<trkpt lat="52.094105" lon="05.645687"><ele>43.9</ele><time>2022-04-18T13:54:12Z</time><name>PT120</name></trkpt>
<trkpt lat="52.094106" lon="05.645706"><ele>43.8</ele><time>2022-04-18T13:54:13Z</time><name>PT121</name></trkpt>
<trkpt lat="52.094108" lon="05.645721"><ele>43.8</ele><time>2022-04-18T13:54:15Z</time><name>PT122</name></trkpt>
<trkpt lat="52.094112" lon="05.645738"><ele>43.9</ele><time>2022-04-18T13:54:15Z</time><name>PT123</name></trkpt>
<trkpt lat="52.094113" lon="05.645754"><ele>43.9</ele><time>2022-04-18T13:54:16Z</time><name>PT124</name></trkpt>
<trkpt lat="52.094115" lon="05.645770"><ele>43.8</ele><time>2022-04-18T13:54:18Z</time><name>PT125</name></trkpt>
<trkpt lat="52.094118" lon="05.645791"><ele>43.9</ele><time>2022-04-18T13:54:18Z</time><name>PT126</name></trkpt>
<trkpt lat="52.094121" lon="05.645808"><ele>43.9</ele><time>2022-04-18T13:54:19Z</time><name>PT127</name></trkpt>
<trkpt lat="52.094125" lon="05.645826"><ele>43.8</ele><time>2022-04-18T13:54:21Z</time><name>PT128</name></trkpt>
<trkpt lat="52.094127" lon="05.645844"><ele>43.8</ele><time>2022-04-18T13:54:21Z</time><name>PT129</name></trkpt>
<trkpt lat="52.094129" lon="05.645862"><ele>43.8</ele><time>2022-04-18T13:54:22Z</time><name>PT130</name></trkpt>
<trkpt lat="52.094131" lon="05.645882"><ele>43.7</ele><time>2022-04-18T13:54:24Z</time><name>PT131</name></trkpt>
<trkpt lat="52.094131" lon="05.645900"><ele>43.7</ele><time>2022-04-18T13:54:24Z</time><name>PT132</name></trkpt>
<trkpt lat="52.094132" lon="05.645917"><ele>43.7</ele><time>2022-04-18T13:54:25Z</time><name>PT133</name></trkpt>
<trkpt lat="52.094135" lon="05.645941"><ele>43.6</ele><time>2022-04-18T13:54:27Z</time><name>PT134</name></trkpt>
<trkpt lat="52.094137" lon="05.645965"><ele>43.5</ele><time>2022-04-18T13:54:27Z</time><name>PT135</name></trkpt>
<trkpt lat="52.094141" lon="05.645984"><ele>43.5</ele><time>2022-04-18T13:54:28Z</time><name>PT136</name></trkpt>
<trkpt lat="52.094145" lon="05.646005"><ele>43.4</ele><time>2022-04-18T13:54:30Z</time><name>PT137</name></trkpt>
<trkpt lat="52.094150" lon="05.646026"><ele>43.4</ele><time>2022-04-18T13:54:30Z</time><name>PT138</name></trkpt>
<trkpt lat="52.094155" lon="05.646043"><ele>43.5</ele><time>2022-04-18T13:54:31Z</time><name>PT139</name></trkpt>
<trkpt lat="52.094159" lon="05.646060"><ele>43.6</ele><time>2022-04-18T13:54:33Z</time><name>PT140</name></trkpt>
<trkpt lat="52.094161" lon="05.646067"><ele>43.7</ele><time>2022-04-18T13:54:33Z</time><name>PT141</name></trkpt>
<trkpt lat="52.094163" lon="05.646081"><ele>43.9</ele><time>2022-04-18T13:54:34Z</time><name>PT142</name></trkpt>
<trkpt lat="52.094164" lon="05.646099"><ele>44</ele><time>2022-04-18T13:54:36Z</time><name>PT143</name></trkpt>
<trkpt lat="52.094166" lon="05.646120"><ele>43.9</ele><time>2022-04-18T13:54:36Z</time><name>PT144</name></trkpt>
<trkpt lat="52.094170" lon="05.646141"><ele>43.7</ele><time>2022-04-18T13:54:37Z</time><name>PT145</name></trkpt>
<trkpt lat="52.094173" lon="05.646166"><ele>43.7</ele><time>2022-04-18T13:54:39Z</time><name>PT146</name></trkpt>
<trkpt lat="52.094173" lon="05.646182"><ele>43.7</ele><time>2022-04-18T13:54:39Z</time><name>PT147</name></trkpt>
<trkpt lat="52.094177" lon="05.646205"><ele>44</ele><time>2022-04-18T13:54:40Z</time><name>PT148</name></trkpt>
<trkpt lat="52.094180" lon="05.646224"><ele>44.2</ele><time>2022-04-18T13:54:42Z</time><name>PT149</name></trkpt>
<trkpt lat="52.094182" lon="05.646242"><ele>44.3</ele><time>2022-04-18T13:54:42Z</time><name>PT150</name></trkpt>
<trkpt lat="52.094187" lon="05.646259"><ele>44.1</ele><time>2022-04-18T13:54:43Z</time><name>PT151</name></trkpt>
<trkpt lat="52.094191" lon="05.646275"><ele>44</ele><time>2022-04-18T13:54:45Z</time><name>PT152</name></trkpt>
<trkpt lat="52.094195" lon="05.646293"><ele>43.9</ele><time>2022-04-18T13:54:45Z</time><name>PT153</name></trkpt>
<trkpt lat="52.094200" lon="05.646313"><ele>43.9</ele><time>2022-04-18T13:54:46Z</time><name>PT154</name></trkpt>
<trkpt lat="52.094202" lon="05.646326"><ele>43.9</ele><time>2022-04-18T13:54:48Z</time><name>PT155</name></trkpt>
<trkpt lat="52.094205" lon="05.646341"><ele>43.9</ele><time>2022-04-18T13:54:48Z</time><name>PT156</name></trkpt>
<trkpt lat="52.094209" lon="05.646359"><ele>43.9</ele><time>2022-04-18T13:54:49Z</time><name>PT157</name></trkpt>
<trkpt lat="52.094213" lon="05.646370"><ele>43.7</ele><time>2022-04-18T13:54:51Z</time><name>PT158</name></trkpt>
<trkpt lat="52.094215" lon="05.646381"><ele>43.7</ele><time>2022-04-18T13:54:51Z</time><name>PT159</name></trkpt>
<trkpt lat="52.094219" lon="05.646393"><ele>43.9</ele><time>2022-04-18T13:54:52Z</time><name>PT160</name></trkpt>
<trkpt lat="52.094223" lon="05.646412"><ele>43.9</ele><time>2022-04-18T13:54:54Z</time><name>PT161</name></trkpt>
<trkpt lat="52.094227" lon="05.646425"><ele>44</ele><time>2022-04-18T13:54:54Z</time><name>PT162</name></trkpt>
<trkpt lat="52.094229" lon="05.646435"><ele>44.1</ele><time>2022-04-18T13:54:55Z</time><name>PT163</name></trkpt>
<trkpt lat="52.094234" lon="05.646448"><ele>44.1</ele><time>2022-04-18T13:54:57Z</time><name>PT164</name></trkpt>
<trkpt lat="52.094236" lon="05.646461"><ele>44</ele><time>2022-04-18T13:54:57Z</time><name>PT165</name></trkpt>
<trkpt lat="52.094238" lon="05.646480"><ele>44</ele><time>2022-04-18T13:54:58Z</time><name>PT166</name></trkpt>
<trkpt lat="52.094241" lon="05.646503"><ele>43.9</ele><time>2022-04-18T13:55:00Z</time><name>PT167</name></trkpt>
<trkpt lat="52.094246" lon="05.646520"><ele>43.9</ele><time>2022-04-18T13:55:00Z</time><name>PT168</name></trkpt>
<trkpt lat="52.094252" lon="05.646536"><ele>43.7</ele><time>2022-04-18T13:55:01Z</time><name>PT169</name></trkpt>
<trkpt lat="52.094258" lon="05.646552"><ele>44</ele><time>2022-04-18T13:55:03Z</time><name>PT170</name></trkpt>
<trkpt lat="52.094264" lon="05.646565"><ele>44</ele><time>2022-04-18T13:55:03Z</time><name>PT171</name></trkpt>
<trkpt lat="52.094265" lon="05.646575"><ele>44</ele><time>2022-04-18T13:55:04Z</time><name>PT172</name></trkpt>
<trkpt lat="52.094266" lon="05.646590"><ele>44</ele><time>2022-04-18T13:55:06Z</time><name>PT173</name></trkpt>
<trkpt lat="52.094270" lon="05.646605"><ele>43.8</ele><time>2022-04-18T13:55:06Z</time><name>PT174</name></trkpt>
<trkpt lat="52.094271" lon="05.646613"><ele>43.8</ele><time>2022-04-18T13:55:07Z</time><name>PT175</name></trkpt>
<trkpt lat="52.094274" lon="05.646622"><ele>44</ele><time>2022-04-18T13:55:09Z</time><name>PT176</name></trkpt>
<trkpt lat="52.094275" lon="05.646639"><ele>43.9</ele><time>2022-04-18T13:55:09Z</time><name>PT177</name></trkpt>
<trkpt lat="52.094277" lon="05.646650"><ele>44</ele><time>2022-04-18T13:55:10Z</time><name>PT178</name></trkpt>
<trkpt lat="52.094280" lon="05.646663"><ele>44.1</ele><time>2022-04-18T13:55:12Z</time><name>PT179</name></trkpt>
<trkpt lat="52.094285" lon="05.646679"><ele>44</ele><time>2022-04-18T13:55:12Z</time><name>PT180</name></trkpt>
<trkpt lat="52.094290" lon="05.646691"><ele>43.9</ele><time>2022-04-18T13:55:13Z</time><name>PT181</name></trkpt>
<trkpt lat="52.094291" lon="05.646703"><ele>43.8</ele><time>2022-04-18T13:55:15Z</time><name>PT182</name></trkpt>
<trkpt lat="52.094294" lon="05.646726"><ele>43.7</ele><time>2022-04-18T13:55:15Z</time><name>PT183</name></trkpt>
<trkpt lat="52.094298" lon="05.646746"><ele>43.6</ele><time>2022-04-18T13:55:16Z</time><name>PT184</name></trkpt>
<trkpt lat="52.094300" lon="05.646770"><ele>43.7</ele><time>2022-04-18T13:55:18Z</time><name>PT185</name></trkpt>
<trkpt lat="52.094303" lon="05.646794"><ele>43.8</ele><time>2022-04-18T13:55:18Z</time><name>PT186</name></trkpt>
<trkpt lat="52.094308" lon="05.646812"><ele>44</ele><time>2022-04-18T13:55:19Z</time><name>PT187</name></trkpt>
<trkpt lat="52.094313" lon="05.646825"><ele>43.9</ele><time>2022-04-18T13:55:21Z</time><name>PT188</name></trkpt>
<trkpt lat="52.094312" lon="05.646836"><ele>44</ele><time>2022-04-18T13:55:21Z</time><name>PT189</name></trkpt>
<trkpt lat="52.094311" lon="05.646851"><ele>44</ele><time>2022-04-18T13:55:22Z</time><name>PT190</name></trkpt>
<trkpt lat="52.094314" lon="05.646870"><ele>44</ele><time>2022-04-18T13:55:24Z</time><name>PT191</name></trkpt>
<trkpt lat="52.094317" lon="05.646896"><ele>43.9</ele><time>2022-04-18T13:55:24Z</time><name>PT192</name></trkpt>
<trkpt lat="52.094322" lon="05.646918"><ele>44.1</ele><time>2022-04-18T13:55:25Z</time><name>PT193</name></trkpt>
<trkpt lat="52.094327" lon="05.646940"><ele>44</ele><time>2022-04-18T13:55:27Z</time><name>PT194</name></trkpt>
<trkpt lat="52.094331" lon="05.646961"><ele>44.1</ele><time>2022-04-18T13:55:27Z</time><name>PT195</name></trkpt>
<trkpt lat="52.094334" lon="05.646986"><ele>44.1</ele><time>2022-04-18T13:55:28Z</time><name>PT196</name></trkpt>
<trkpt lat="52.094336" lon="05.647008"><ele>44.1</ele><time>2022-04-18T13:55:30Z</time><name>PT197</name></trkpt>
<trkpt lat="52.094339" lon="05.647026"><ele>44.1</ele><time>2022-04-18T13:55:30Z</time><name>PT198</name></trkpt>
<trkpt lat="52.094340" lon="05.647050"><ele>44</ele><time>2022-04-18T13:55:31Z</time><name>PT199</name></trkpt>
<trkpt lat="52.094340" lon="05.647069"><ele>44</ele><time>2022-04-18T13:55:33Z</time><name>PT200</name></trkpt>
<trkpt lat="52.094343" lon="05.647082"><ele>44.1</ele><time>2022-04-18T13:55:33Z</time><name>PT201</name></trkpt>
<trkpt lat="52.094349" lon="05.647091"><ele>44.1</ele><time>2022-04-18T13:55:34Z</time><name>PT202</name></trkpt>
<trkpt lat="52.094355" lon="05.647099"><ele>44.4</ele><time>2022-04-18T13:55:36Z</time><name>PT203</name></trkpt>
<trkpt lat="52.094359" lon="05.647109"><ele>44.4</ele><time>2022-04-18T13:55:36Z</time><name>PT204</name></trkpt>
<trkpt lat="52.094362" lon="05.647122"><ele>44.4</ele><time>2022-04-18T13:55:37Z</time><name>PT205</name></trkpt>
<trkpt lat="52.094366" lon="05.647142"><ele>44.2</ele><time>2022-04-18T13:55:39Z</time><name>PT206</name></trkpt>
<trkpt lat="52.094367" lon="05.647155"><ele>44.2</ele><time>2022-04-18T13:55:39Z</time><name>PT207</name></trkpt>
<trkpt lat="52.094370" lon="05.647169"><ele>44.1</ele><time>2022-04-18T13:55:40Z</time><name>PT208</name></trkpt>
<trkpt lat="52.094377" lon="05.647187"><ele>44.1</ele><time>2022-04-18T13:55:42Z</time><name>PT209</name></trkpt>
<trkpt lat="52.094383" lon="05.647197"><ele>44.3</ele><time>2022-04-18T13:55:42Z</time><name>PT210</name></trkpt>
<trkpt lat="52.094387" lon="05.647209"><ele>44.4</ele><time>2022-04-18T13:55:43Z</time><name>PT211</name></trkpt>
<trkpt lat="52.094387" lon="05.647222"><ele>44.5</ele><time>2022-04-18T13:55:45Z</time><name>PT212</name></trkpt>
<trkpt lat="52.094389" lon="05.647243"><ele>44.5</ele><time>2022-04-18T13:55:45Z</time><name>PT213</name></trkpt>
<trkpt lat="52.094390" lon="05.647264"><ele>44.4</ele><time>2022-04-18T13:55:46Z</time><name>PT214</name></trkpt>
<trkpt lat="52.094392" lon="05.647280"><ele>44.3</ele><time>2022-04-18T13:55:48Z</time><name>PT215</name></trkpt>
<trkpt lat="52.094396" lon="05.647296"><ele>44.3</ele><time>2022-04-18T13:55:48Z</time><name>PT216</name></trkpt>
<trkpt lat="52.094400" lon="05.647314"><ele>44.2</ele><time>2022-04-18T13:55:49Z</time><name>PT217</name></trkpt>
<trkpt lat="52.094401" lon="05.647333"><ele>44.2</ele><time>2022-04-18T13:55:51Z</time><name>PT218</name></trkpt>
<trkpt lat="52.094405" lon="05.647351"><ele>44.2</ele><time>2022-04-18T13:55:51Z</time><name>PT219</name></trkpt>
<trkpt lat="52.094409" lon="05.647368"><ele>44.1</ele><time>2022-04-18T13:55:52Z</time><name>PT220</name></trkpt>
<trkpt lat="52.094411" lon="05.647383"><ele>44.2</ele><time>2022-04-18T13:55:54Z</time><name>PT221</name></trkpt>
<trkpt lat="52.094412" lon="05.647396"><ele>44.2</ele><time>2022-04-18T13:55:54Z</time><name>PT222</name></trkpt>
<trkpt lat="52.094416" lon="05.647412"><ele>44.2</ele><time>2022-04-18T13:55:55Z</time><name>PT223</name></trkpt>
<trkpt lat="52.094422" lon="05.647431"><ele>44.2</ele><time>2022-04-18T13:55:57Z</time><name>PT224</name></trkpt>
<trkpt lat="52.094426" lon="05.647452"><ele>44.3</ele><time>2022-04-18T13:55:57Z</time><name>PT225</name></trkpt>
<trkpt lat="52.094429" lon="05.647470"><ele>44.4</ele><time>2022-04-18T13:55:58Z</time><name>PT226</name></trkpt>
<trkpt lat="52.094432" lon="05.647491"><ele>44.5</ele><time>2022-04-18T13:56:00Z</time><name>PT227</name></trkpt>
<trkpt lat="52.094435" lon="05.647506"><ele>44.6</ele><time>2022-04-18T13:56:00Z</time><name>PT228</name></trkpt>
<trkpt lat="52.094437" lon="05.647520"><ele>44.5</ele><time>2022-04-18T13:56:01Z</time><name>PT229</name></trkpt>
<trkpt lat="52.094440" lon="05.647540"><ele>44.6</ele><time>2022-04-18T13:56:03Z</time><name>PT230</name></trkpt>
<trkpt lat="52.094443" lon="05.647559"><ele>44.5</ele><time>2022-04-18T13:56:03Z</time><name>PT231</name></trkpt>
<trkpt lat="52.094449" lon="05.647579"><ele>44.5</ele><time>2022-04-18T13:56:04Z</time><name>PT232</name></trkpt>
<trkpt lat="52.094453" lon="05.647598"><ele>44.4</ele><time>2022-04-18T13:56:06Z</time><name>PT233</name></trkpt>
<trkpt lat="52.094454" lon="05.647620"><ele>44.5</ele><time>2022-04-18T13:56:06Z</time><name>PT234</name></trkpt>
<trkpt lat="52.094458" lon="05.647643"><ele>44.4</ele><time>2022-04-18T13:56:07Z</time><name>PT235</name></trkpt>
<trkpt lat="52.094461" lon="05.647658"><ele>44.5</ele><time>2022-04-18T13:56:09Z</time><name>PT236</name></trkpt>
<trkpt lat="52.094463" lon="05.647677"><ele>44.5</ele><time>2022-04-18T13:56:09Z</time><name>PT237</name></trkpt>
<trkpt lat="52.094464" lon="05.647697"><ele>44.6</ele><time>2022-04-18T13:56:10Z</time><name>PT238</name></trkpt>
<trkpt lat="52.094466" lon="05.647712"><ele>44.7</ele><time>2022-04-18T13:56:12Z</time><name>PT239</name></trkpt>
<trkpt lat="52.094471" lon="05.647725"><ele>44.9</ele><time>2022-04-18T13:56:12Z</time><name>PT240</name></trkpt>
<trkpt lat="52.094477" lon="05.647745"><ele>44.7</ele><time>2022-04-18T13:56:13Z</time><name>PT241</name></trkpt>
<trkpt lat="52.094478" lon="05.647760"><ele>44.6</ele><time>2022-04-18T13:56:15Z</time><name>PT242</name></trkpt>
<trkpt lat="52.094478" lon="05.647777"><ele>44.7</ele><time>2022-04-18T13:56:15Z</time><name>PT243</name></trkpt>
<trkpt lat="52.094479" lon="05.647799"><ele>44.8</ele><time>2022-04-18T13:56:16Z</time><name>PT244</name></trkpt>
<trkpt lat="52.094481" lon="05.647823"><ele>44.9</ele><time>2022-04-18T13:56:18Z</time><name>PT245</name></trkpt>
<trkpt lat="52.094484" lon="05.647848"><ele>45.1</ele><time>2022-04-18T13:56:18Z</time><name>PT246</name></trkpt>
<trkpt lat="52.094487" lon="05.647867"><ele>45.1</ele><time>2022-04-18T13:56:19Z</time><name>PT247</name></trkpt>
<trkpt lat="52.094492" lon="05.647882"><ele>45.2</ele><time>2022-04-18T13:56:21Z</time><name>PT248</name></trkpt>
<trkpt lat="52.094496" lon="05.647897"><ele>45</ele><time>2022-04-18T13:56:21Z</time><name>PT249</name></trkpt>
<trkpt lat="52.094498" lon="05.647914"><ele>45</ele><time>2022-04-18T13:56:22Z</time><name>PT250</name></trkpt>
<trkpt lat="52.094502" lon="05.647932"><ele>44.9</ele><time>2022-04-18T13:56:24Z</time><name>PT251</name></trkpt>
<trkpt lat="52.094506" lon="05.647956"><ele>44.8</ele><time>2022-04-18T13:56:24Z</time><name>PT252</name></trkpt>
<trkpt lat="52.094512" lon="05.647970"><ele>44.8</ele><time>2022-04-18T13:56:25Z</time><name>PT253</name></trkpt>
<trkpt lat="52.094513" lon="05.647985"><ele>44.8</ele><time>2022-04-18T13:56:27Z</time><name>PT254</name></trkpt>
<trkpt lat="52.094513" lon="05.647997"><ele>44.8</ele><time>2022-04-18T13:56:27Z</time><name>PT255</name></trkpt>
<trkpt lat="52.094513" lon="05.648009"><ele>44.8</ele><time>2022-04-18T13:56:28Z</time><name>PT256</name></trkpt>
<trkpt lat="52.094511" lon="05.648023"><ele>45</ele><time>2022-04-18T13:56:30Z</time><name>PT257</name></trkpt>
<trkpt lat="52.094513" lon="05.648032"><ele>44.9</ele><time>2022-04-18T13:56:30Z</time><name>PT258</name></trkpt>
<trkpt lat="52.094513" lon="05.648045"><ele>44.9</ele><time>2022-04-18T13:56:31Z</time><name>PT259</name></trkpt>
<trkpt lat="52.094515" lon="05.648061"><ele>45</ele><time>2022-04-18T13:56:33Z</time><name>PT260</name></trkpt>
<trkpt lat="52.094519" lon="05.648075"><ele>45</ele><time>2022-04-18T13:56:33Z</time><name>PT261</name></trkpt>
<trkpt lat="52.094522" lon="05.648096"><ele>45</ele><time>2022-04-18T13:56:34Z</time><name>PT262</name></trkpt>
<trkpt lat="52.094524" lon="05.648115"><ele>45.1</ele><time>2022-04-18T13:56:36Z</time><name>PT263</name></trkpt>
<trkpt lat="52.094528" lon="05.648133"><ele>45.2</ele><time>2022-04-18T13:56:36Z</time><name>PT264</name></trkpt>
<trkpt lat="52.094534" lon="05.648152"><ele>45.2</ele><time>2022-04-18T13:56:37Z</time><name>PT265</name></trkpt>
<trkpt lat="52.094539" lon="05.648169"><ele>45.2</ele><time>2022-04-18T13:56:39Z</time><name>PT266</name></trkpt>
<trkpt lat="52.094541" lon="05.648185"><ele>45.1</ele><time>2022-04-18T13:56:39Z</time><name>PT267</name></trkpt>
<trkpt lat="52.094542" lon="05.648201"><ele>45.2</ele><time>2022-04-18T13:56:40Z</time><name>PT268</name></trkpt>
<trkpt lat="52.094545" lon="05.648216"><ele>45.2</ele><time>2022-04-18T13:56:42Z</time><name>PT269</name></trkpt>
<trkpt lat="52.094548" lon="05.648239"><ele>45.3</ele><time>2022-04-18T13:56:42Z</time><name>PT270</name></trkpt>
<trkpt lat="52.094553" lon="05.648258"><ele>45.4</ele><time>2022-04-18T13:56:43Z</time><name>PT271</name></trkpt>
<trkpt lat="52.094556" lon="05.648274"><ele>45.5</ele><time>2022-04-18T13:56:45Z</time><name>PT272</name></trkpt>
<trkpt lat="52.094559" lon="05.648293"><ele>45.6</ele><time>2022-04-18T13:56:45Z</time><name>PT273</name></trkpt>
<trkpt lat="52.094563" lon="05.648311"><ele>45.5</ele><time>2022-04-18T13:56:46Z</time><name>PT274</name></trkpt>
<trkpt lat="52.094568" lon="05.648327"><ele>45.4</ele><time>2022-04-18T13:56:48Z</time><name>PT275</name></trkpt>
<trkpt lat="52.094572" lon="05.648342"><ele>45.4</ele><time>2022-04-18T13:56:48Z</time><name>PT276</name></trkpt>
<trkpt lat="52.094574" lon="05.648361"><ele>45.4</ele><time>2022-04-18T13:56:49Z</time><name>PT277</name></trkpt>
<trkpt lat="52.094578" lon="05.648377"><ele>45.4</ele><time>2022-04-18T13:56:51Z</time><name>PT278</name></trkpt>
<trkpt lat="52.094585" lon="05.648392"><ele>45.4</ele><time>2022-04-18T13:56:51Z</time><name>PT279</name></trkpt>
<trkpt lat="52.094589" lon="05.648405"><ele>45.5</ele><time>2022-04-18T13:56:52Z</time><name>PT280</name></trkpt>
<trkpt lat="52.094593" lon="05.648424"><ele>45.5</ele><time>2022-04-18T13:56:54Z</time><name>PT281</name></trkpt>
<trkpt lat="52.094595" lon="05.648435"><ele>45.7</ele><time>2022-04-18T13:56:54Z</time><name>PT282</name></trkpt>
<trkpt lat="52.094595" lon="05.648446"><ele>45.7</ele><time>2022-04-18T13:56:55Z</time><name>PT283</name></trkpt>
<trkpt lat="52.094596" lon="05.648463"><ele>45.7</ele><time>2022-04-18T13:56:57Z</time><name>PT284</name></trkpt>
<trkpt lat="52.094600" lon="05.648479"><ele>45.8</ele><time>2022-04-18T13:56:57Z</time><name>PT285</name></trkpt>
<trkpt lat="52.094603" lon="05.648487"><ele>45.8</ele><time>2022-04-18T13:56:58Z</time><name>PT286</name></trkpt>
<trkpt lat="52.094603" lon="05.648493"><ele>45.9</ele><time>2022-04-18T13:57:00Z</time><name>PT287</name></trkpt>
<trkpt lat="52.094604" lon="05.648499"><ele>45.8</ele><time>2022-04-18T13:57:00Z</time><name>PT288</name></trkpt>
<trkpt lat="52.094603" lon="05.648502"><ele>45.9</ele><time>2022-04-18T13:57:01Z</time><name>PT289</name></trkpt>
<trkpt lat="52.094604" lon="05.648509"><ele>45.8</ele><time>2022-04-18T13:57:04Z</time><name>PT290</name></trkpt>
<trkpt lat="52.094604" lon="05.648529"><ele>45.7</ele><time>2022-04-18T13:57:06Z</time><name>PT291</name></trkpt>
<trkpt lat="52.094608" lon="05.648545"><ele>45.6</ele><time>2022-04-18T13:57:06Z</time><name>PT292</name></trkpt>
<trkpt lat="52.094611" lon="05.648568"><ele>45.6</ele><time>2022-04-18T13:57:07Z</time><name>PT293</name></trkpt>
<trkpt lat="52.094612" lon="05.648588"><ele>45.5</ele><time>2022-04-18T13:57:09Z</time><name>PT294</name></trkpt>
<trkpt lat="52.094616" lon="05.648602"><ele>45.7</ele><time>2022-04-18T13:57:09Z</time><name>PT295</name></trkpt>
<trkpt lat="52.094617" lon="05.648622"><ele>45.9</ele><time>2022-04-18T13:57:10Z</time><name>PT296</name></trkpt>
<trkpt lat="52.094620" lon="05.648637"><ele>45.7</ele><time>2022-04-18T13:57:12Z</time><name>PT297</name></trkpt>
<trkpt lat="52.094623" lon="05.648648"><ele>45.6</ele><time>2022-04-18T13:57:12Z</time><name>PT298</name></trkpt>
<trkpt lat="52.094625" lon="05.648660"><ele>45.5</ele><time>2022-04-18T13:57:13Z</time><name>PT299</name></trkpt>
<trkpt lat="52.094628" lon="05.648679"><ele>45.6</ele><time>2022-04-18T13:57:15Z</time><name>PT300</name></trkpt>
<trkpt lat="52.094630" lon="05.648703"><ele>45.5</ele><time>2022-04-18T13:57:15Z</time><name>PT301</name></trkpt>
<trkpt lat="52.094632" lon="05.648724"><ele>45.8</ele><time>2022-04-18T13:57:16Z</time><name>PT302</name></trkpt>
<trkpt lat="52.094638" lon="05.648741"><ele>45.9</ele><time>2022-04-18T13:57:18Z</time><name>PT303</name></trkpt>
<trkpt lat="52.094642" lon="05.648755"><ele>46</ele><time>2022-04-18T13:57:18Z</time><name>PT304</name></trkpt>
<trkpt lat="52.094644" lon="05.648766"><ele>46</ele><time>2022-04-18T13:57:19Z</time><name>PT305</name></trkpt>
<trkpt lat="52.094650" lon="05.648779"><ele>46</ele><time>2022-04-18T13:57:21Z</time><name>PT306</name></trkpt>
<trkpt lat="52.094655" lon="05.648795"><ele>46.1</ele><time>2022-04-18T13:57:21Z</time><name>PT307</name></trkpt>
<trkpt lat="52.094659" lon="05.648820"><ele>46.1</ele><time>2022-04-18T13:57:22Z</time><name>PT308</name></trkpt>
<trkpt lat="52.094662" lon="05.648835"><ele>46.2</ele><time>2022-04-18T13:57:23Z</time><name>PT309</name></trkpt>
<trkpt lat="52.094665" lon="05.648850"><ele>46.2</ele><time>2022-04-18T13:57:24Z</time><name>PT310</name></trkpt>
<trkpt lat="52.094667" lon="05.648868"><ele>46.4</ele><time>2022-04-18T13:57:25Z</time><name>PT311</name></trkpt>
<trkpt lat="52.094670" lon="05.648886"><ele>46.2</ele><time>2022-04-18T13:57:27Z</time><name>PT312</name></trkpt>
<trkpt lat="52.094671" lon="05.648909"><ele>46.3</ele><time>2022-04-18T13:57:27Z</time><name>PT313</name></trkpt>
<trkpt lat="52.094673" lon="05.648925"><ele>46.3</ele><time>2022-04-18T13:57:28Z</time><name>PT314</name></trkpt>
<trkpt lat="52.094676" lon="05.648941"><ele>46.3</ele><time>2022-04-18T13:57:30Z</time><name>PT315</name></trkpt>
<trkpt lat="52.094679" lon="05.648955"><ele>46.2</ele><time>2022-04-18T13:57:30Z</time><name>PT316</name></trkpt>
<trkpt lat="52.094684" lon="05.648973"><ele>46.3</ele><time>2022-04-18T13:57:31Z</time><name>PT317</name></trkpt>
<trkpt lat="52.094688" lon="05.648991"><ele>46.2</ele><time>2022-04-18T13:57:33Z</time><name>PT318</name></trkpt>
<trkpt lat="52.094692" lon="05.649009"><ele>46.2</ele><time>2022-04-18T13:57:33Z</time><name>PT319</name></trkpt>
<trkpt lat="52.094696" lon="05.649023"><ele>46.2</ele><time>2022-04-18T13:57:34Z</time><name>PT320</name></trkpt>
<trkpt lat="52.094701" lon="05.649042"><ele>46.4</ele><time>2022-04-18T13:57:36Z</time><name>PT321</name></trkpt>
<trkpt lat="52.094703" lon="05.649061"><ele>46.4</ele><time>2022-04-18T13:57:36Z</time><name>PT322</name></trkpt>
<trkpt lat="52.094705" lon="05.649081"><ele>46.4</ele><time>2022-04-18T13:57:37Z</time><name>PT323</name></trkpt>
<trkpt lat="52.094709" lon="05.649102"><ele>46.5</ele><time>2022-04-18T13:57:39Z</time><name>PT324</name></trkpt>
<trkpt lat="52.094713" lon="05.649118"><ele>46.5</ele><time>2022-04-18T13:57:39Z</time><name>PT325</name></trkpt>
<trkpt lat="52.094717" lon="05.649133"><ele>46.5</ele><time>2022-04-18T13:57:40Z</time><name>PT326</name></trkpt>
<trkpt lat="52.094723" lon="05.649144"><ele>46.6</ele><time>2022-04-18T13:57:42Z</time><name>PT327</name></trkpt>
<trkpt lat="52.094726" lon="05.649158"><ele>46.7</ele><time>2022-04-18T13:57:42Z</time><name>PT328</name></trkpt>
<trkpt lat="52.094728" lon="05.649171"><ele>46.7</ele><time>2022-04-18T13:57:43Z</time><name>PT329</name></trkpt>
<trkpt lat="52.094732" lon="05.649190"><ele>46.7</ele><time>2022-04-18T13:57:45Z</time><name>PT330</name></trkpt>
<trkpt lat="52.094735" lon="05.649208"><ele>46.7</ele><time>2022-04-18T13:57:45Z</time><name>PT331</name></trkpt>
<trkpt lat="52.094740" lon="05.649228"><ele>46.9</ele><time>2022-04-18T13:57:46Z</time><name>PT332</name></trkpt>
<trkpt lat="52.094744" lon="05.649243"><ele>46.9</ele><time>2022-04-18T13:57:48Z</time><name>PT333</name></trkpt>
<trkpt lat="52.094750" lon="05.649254"><ele>46.9</ele><time>2022-04-18T13:57:48Z</time><name>PT334</name></trkpt>
<trkpt lat="52.094755" lon="05.649270"><ele>47</ele><time>2022-04-18T13:57:49Z</time><name>PT335</name></trkpt>
<trkpt lat="52.094758" lon="05.649285"><ele>47.1</ele><time>2022-04-18T13:57:51Z</time><name>PT336</name></trkpt>
<trkpt lat="52.094760" lon="05.649305"><ele>46.9</ele><time>2022-04-18T13:57:51Z</time><name>PT337</name></trkpt>
<trkpt lat="52.094762" lon="05.649317"><ele>47</ele><time>2022-04-18T13:57:52Z</time><name>PT338</name></trkpt>
<trkpt lat="52.094766" lon="05.649332"><ele>47.1</ele><time>2022-04-18T13:57:54Z</time><name>PT339</name></trkpt>
<trkpt lat="52.094770" lon="05.649348"><ele>47</ele><time>2022-04-18T13:57:54Z</time><name>PT340</name></trkpt>
<trkpt lat="52.094775" lon="05.649369"><ele>46.9</ele><time>2022-04-18T13:57:55Z</time><name>PT341</name></trkpt>
<trkpt lat="52.094776" lon="05.649383"><ele>46.9</ele><time>2022-04-18T13:57:57Z</time><name>PT342</name></trkpt>
<trkpt lat="52.094778" lon="05.649400"><ele>46.9</ele><time>2022-04-18T13:57:57Z</time><name>PT343</name></trkpt>
<trkpt lat="52.094780" lon="05.649420"><ele>46.8</ele><time>2022-04-18T13:57:58Z</time><name>PT344</name></trkpt>
<trkpt lat="52.094782" lon="05.649438"><ele>46.9</ele><time>2022-04-18T13:58:00Z</time><name>PT345</name></trkpt>
<trkpt lat="52.094786" lon="05.649455"><ele>46.9</ele><time>2022-04-18T13:58:00Z</time><name>PT346</name></trkpt>
<trkpt lat="52.094790" lon="05.649474"><ele>47.1</ele><time>2022-04-18T13:58:01Z</time><name>PT347</name></trkpt>
<trkpt lat="52.094794" lon="05.649489"><ele>47.2</ele><time>2022-04-18T13:58:03Z</time><name>PT348</name></trkpt>
<trkpt lat="52.094796" lon="05.649508"><ele>47.4</ele><time>2022-04-18T13:58:03Z</time><name>PT349</name></trkpt>
<trkpt lat="52.094797" lon="05.649521"><ele>47.4</ele><time>2022-04-18T13:58:04Z</time><name>PT350</name></trkpt>
<trkpt lat="52.094800" lon="05.649535"><ele>47.5</ele><time>2022-04-18T13:58:06Z</time><name>PT351</name></trkpt>
<trkpt lat="52.094805" lon="05.649552"><ele>47.4</ele><time>2022-04-18T13:58:06Z</time><name>PT352</name></trkpt>
<trkpt lat="52.094811" lon="05.649570"><ele>47.6</ele><time>2022-04-18T13:58:07Z</time><name>PT353</name></trkpt>
<trkpt lat="52.094817" lon="05.649588"><ele>47.5</ele><time>2022-04-18T13:58:09Z</time><name>PT354</name></trkpt>
<trkpt lat="52.094821" lon="05.649608"><ele>47.6</ele><time>2022-04-18T13:58:09Z</time><name>PT355</name></trkpt>
<trkpt lat="52.094824" lon="05.649625"><ele>47.6</ele><time>2022-04-18T13:58:10Z</time><name>PT356</name></trkpt>
<trkpt lat="52.094827" lon="05.649639"><ele>47.7</ele><time>2022-04-18T13:58:12Z</time><name>PT357</name></trkpt>
<trkpt lat="52.094829" lon="05.649654"><ele>47.6</ele><time>2022-04-18T13:58:12Z</time><name>PT358</name></trkpt>
<trkpt lat="52.094831" lon="05.649669"><ele>47.5</ele><time>2022-04-18T13:58:13Z</time><name>PT359</name></trkpt>
<trkpt lat="52.094833" lon="05.649686"><ele>47.4</ele><time>2022-04-18T13:58:15Z</time><name>PT360</name></trkpt>
<trkpt lat="52.094835" lon="05.649702"><ele>47.4</ele><time>2022-04-18T13:58:15Z</time><name>PT361</name></trkpt>
<trkpt lat="52.094838" lon="05.649718"><ele>47.6</ele><time>2022-04-18T13:58:16Z</time><name>PT362</name></trkpt>
<trkpt lat="52.094839" lon="05.649732"><ele>47.8</ele><time>2022-04-18T13:58:18Z</time><name>PT363</name></trkpt>
<trkpt lat="52.094841" lon="05.649744"><ele>47.8</ele><time>2022-04-18T13:58:18Z</time><name>PT364</name></trkpt>
<trkpt lat="52.094845" lon="05.649761"><ele>47.9</ele><time>2022-04-18T13:58:19Z</time><name>PT365</name></trkpt>
<trkpt lat="52.094847" lon="05.649775"><ele>47.8</ele><time>2022-04-18T13:58:21Z</time><name>PT366</name></trkpt>
<trkpt lat="52.094849" lon="05.649790"><ele>47.8</ele><time>2022-04-18T13:58:21Z</time><name>PT367</name></trkpt>
<trkpt lat="52.094851" lon="05.649809"><ele>47.7</ele><time>2022-04-18T13:58:22Z</time><name>PT368</name></trkpt>
<trkpt lat="52.094851" lon="05.649825"><ele>47.8</ele><time>2022-04-18T13:58:24Z</time><name>PT369</name></trkpt>
<trkpt lat="52.094857" lon="05.649841"><ele>47.9</ele><time>2022-04-18T13:58:24Z</time><name>PT370</name></trkpt>
<trkpt lat="52.094862" lon="05.649857"><ele>47.9</ele><time>2022-04-18T13:58:25Z</time><name>PT371</name></trkpt>
<trkpt lat="52.094863" lon="05.649865"><ele>48.1</ele><time>2022-04-18T13:58:27Z</time><name>PT372</name></trkpt>
<trkpt lat="52.094866" lon="05.649882"><ele>48.1</ele><time>2022-04-18T13:58:27Z</time><name>PT373</name></trkpt>
<trkpt lat="52.094870" lon="05.649895"><ele>48.1</ele><time>2022-04-18T13:58:29Z</time><name>PT374</name></trkpt>
<trkpt lat="52.094874" lon="05.649908"><ele>48</ele><time>2022-04-18T13:58:30Z</time><name>PT375</name></trkpt>
<trkpt lat="52.094876" lon="05.649924"><ele>48</ele><time>2022-04-18T13:58:30Z</time><name>PT376</name></trkpt>
<trkpt lat="52.094880" lon="05.649942"><ele>47.9</ele><time>2022-04-18T13:58:31Z</time><name>PT377</name></trkpt>
<trkpt lat="52.094882" lon="05.649961"><ele>47.9</ele><time>2022-04-18T13:58:33Z</time><name>PT378</name></trkpt>
<trkpt lat="52.094883" lon="05.649975"><ele>48.1</ele><time>2022-04-18T13:58:33Z</time><name>PT379</name></trkpt>
<trkpt lat="52.094887" lon="05.649993"><ele>48</ele><time>2022-04-18T13:58:34Z</time><name>PT380</name></trkpt>
<trkpt lat="52.094892" lon="05.650009"><ele>48</ele><time>2022-04-18T13:58:36Z</time><name>PT381</name></trkpt>
<trkpt lat="52.094896" lon="05.650017"><ele>48</ele><time>2022-04-18T13:58:36Z</time><name>PT382</name></trkpt>
<trkpt lat="52.094902" lon="05.650023"><ele>48</ele><time>2022-04-18T13:58:37Z</time><name>PT383</name></trkpt>
<trkpt lat="52.094907" lon="05.650036"><ele>47.9</ele><time>2022-04-18T13:58:39Z</time><name>PT384</name></trkpt>
<trkpt lat="52.094911" lon="05.650052"><ele>47.8</ele><time>2022-04-18T13:58:39Z</time><name>PT385</name></trkpt>
<trkpt lat="52.094913" lon="05.650063"><ele>47.8</ele><time>2022-04-18T13:58:40Z</time><name>PT386</name></trkpt>
<trkpt lat="52.094914" lon="05.650079"><ele>47.7</ele><time>2022-04-18T13:58:42Z</time><name>PT387</name></trkpt>
<trkpt lat="52.094915" lon="05.650090"><ele>47.6</ele><time>2022-04-18T13:58:42Z</time><name>PT388</name></trkpt>
<trkpt lat="52.094917" lon="05.650110"><ele>47.8</ele><time>2022-04-18T13:58:43Z</time><name>PT389</name></trkpt>
<trkpt lat="52.094919" lon="05.650121"><ele>47.7</ele><time>2022-04-18T13:58:45Z</time><name>PT390</name></trkpt>
<trkpt lat="52.094919" lon="05.650139"><ele>47.8</ele><time>2022-04-18T13:58:45Z</time><name>PT391</name></trkpt>
<trkpt lat="52.094918" lon="05.650155"><ele>47.9</ele><time>2022-04-18T13:58:46Z</time><name>PT392</name></trkpt>
<trkpt lat="52.094920" lon="05.650169"><ele>47.8</ele><time>2022-04-18T13:58:48Z</time><name>PT393</name></trkpt>
<trkpt lat="52.094924" lon="05.650185"><ele>47.7</ele><time>2022-04-18T13:58:48Z</time><name>PT394</name></trkpt>
<trkpt lat="52.094927" lon="05.650200"><ele>47.8</ele><time>2022-04-18T13:58:49Z</time><name>PT395</name></trkpt>
<trkpt lat="52.094928" lon="05.650218"><ele>47.8</ele><time>2022-04-18T13:58:51Z</time><name>PT396</name></trkpt>
<trkpt lat="52.094929" lon="05.650241"><ele>47.6</ele><time>2022-04-18T13:58:51Z</time><name>PT397</name></trkpt>
<trkpt lat="52.094931" lon="05.650259"><ele>47.7</ele><time>2022-04-18T13:58:52Z</time><name>PT398</name></trkpt>
<trkpt lat="52.094934" lon="05.650272"><ele>47.7</ele><time>2022-04-18T13:58:54Z</time><name>PT399</name></trkpt>
<trkpt lat="52.094936" lon="05.650281"><ele>47.6</ele><time>2022-04-18T13:58:54Z</time><name>PT400</name></trkpt>
<trkpt lat="52.094936" lon="05.650292"><ele>47.6</ele><time>2022-04-18T13:58:55Z</time><name>PT401</name></trkpt>
<trkpt lat="52.094939" lon="05.650307"><ele>47.7</ele><time>2022-04-18T13:58:57Z</time><name>PT402</name></trkpt>
<trkpt lat="52.094942" lon="05.650330"><ele>47.6</ele><time>2022-04-18T13:58:57Z</time><name>PT403</name></trkpt>
<trkpt lat="52.094945" lon="05.650343"><ele>47.7</ele><time>2022-04-18T13:58:58Z</time><name>PT404</name></trkpt>
<trkpt lat="52.094948" lon="05.650360"><ele>47.8</ele><time>2022-04-18T13:59:00Z</time><name>PT405</name></trkpt>
<trkpt lat="52.094949" lon="05.650373"><ele>47.7</ele><time>2022-04-18T13:59:00Z</time><name>PT406</name></trkpt>
<trkpt lat="52.094952" lon="05.650388"><ele>47.7</ele><time>2022-04-18T13:59:01Z</time><name>PT407</name></trkpt>
<trkpt lat="52.094957" lon="05.650403"><ele>47.7</ele><time>2022-04-18T13:59:03Z</time><name>PT408</name></trkpt>
<trkpt lat="52.094960" lon="05.650421"><ele>47.6</ele><time>2022-04-18T13:59:03Z</time><name>PT409</name></trkpt>
<trkpt lat="52.094964" lon="05.650438"><ele>47.6</ele><time>2022-04-18T13:59:04Z</time><name>PT410</name></trkpt>
<trkpt lat="52.094967" lon="05.650455"><ele>47.9</ele><time>2022-04-18T13:59:06Z</time><name>PT411</name></trkpt>
<trkpt lat="52.094971" lon="05.650467"><ele>47.9</ele><time>2022-04-18T13:59:06Z</time><name>PT412</name></trkpt>
<trkpt lat="52.094973" lon="05.650477"><ele>47.8</ele><time>2022-04-18T13:59:07Z</time><name>PT413</name></trkpt>
<trkpt lat="52.094973" lon="05.650481"><ele>47.9</ele><time>2022-04-18T13:59:09Z</time><name>PT414</name></trkpt>
<trkpt lat="52.094972" lon="05.650485"><ele>47.8</ele><time>2022-04-18T13:59:09Z</time><name>PT415</name></trkpt>
<trkpt lat="52.094973" lon="05.650490"><ele>47.8</ele><time>2022-04-18T13:59:10Z</time><name>PT416</name></trkpt>
<trkpt lat="52.094976" lon="05.650505"><ele>47.7</ele><time>2022-04-18T13:59:51Z</time><name>PT417</name></trkpt>
<trkpt lat="52.094987" lon="05.650517"><ele>47.7</ele><time>2022-04-18T13:59:51Z</time><name>PT418</name></trkpt>
<trkpt lat="52.094995" lon="05.650521"><ele>47.7</ele><time>2022-04-18T13:59:52Z</time><name>PT419</name></trkpt>
<trkpt lat="52.095002" lon="05.650526"><ele>47.6</ele><time>2022-04-18T13:59:54Z</time><name>PT420</name></trkpt>
<trkpt lat="52.095010" lon="05.650523"><ele>47.7</ele><time>2022-04-18T13:59:54Z</time><name>PT421</name></trkpt>
<trkpt lat="52.095020" lon="05.650517"><ele>47.6</ele><time>2022-04-18T13:59:55Z</time><name>PT422</name></trkpt>
<trkpt lat="52.095036" lon="05.650507"><ele>47.6</ele><time>2022-04-18T13:59:57Z</time><name>PT423</name></trkpt>
<trkpt lat="52.095046" lon="05.650499"><ele>47.6</ele><time>2022-04-18T13:59:57Z</time><name>PT424</name></trkpt>
<trkpt lat="52.095053" lon="05.650489"><ele>47.4</ele><time>2022-04-18T13:59:58Z</time><name>PT425</name></trkpt>
<trkpt lat="52.095060" lon="05.650476"><ele>47.4</ele><time>2022-04-18T14:00:00Z</time><name>PT426</name></trkpt>
<trkpt lat="52.095068" lon="05.650463"><ele>47.4</ele><time>2022-04-18T14:00:00Z</time><name>PT427</name></trkpt>
<trkpt lat="52.095073" lon="05.650454"><ele>47.4</ele><time>2022-04-18T14:00:01Z</time><name>PT428</name></trkpt>
<trkpt lat="52.095077" lon="05.650438"><ele>47.4</ele><time>2022-04-18T14:00:03Z</time><name>PT429</name></trkpt>
<trkpt lat="52.095081" lon="05.650424"><ele>47.4</ele><time>2022-04-18T14:00:03Z</time><name>PT430</name></trkpt>
<trkpt lat="52.095092" lon="05.650401"><ele>47.4</ele><time>2022-04-18T14:00:04Z</time><name>PT431</name></trkpt>
<trkpt lat="52.095102" lon="05.650386"><ele>47.5</ele><time>2022-04-18T14:00:06Z</time><name>PT432</name></trkpt>
<trkpt lat="52.095109" lon="05.650375"><ele>47.5</ele><time>2022-04-18T14:00:06Z</time><name>PT433</name></trkpt>
<trkpt lat="52.095119" lon="05.650363"><ele>47.4</ele><time>2022-04-18T14:00:07Z</time><name>PT434</name></trkpt>
<trkpt lat="52.095126" lon="05.650357"><ele>47.3</ele><time>2022-04-18T14:00:09Z</time><name>PT435</name></trkpt>
<trkpt lat="52.095133" lon="05.650352"><ele>47.2</ele><time>2022-04-18T14:00:09Z</time><name>PT436</name></trkpt>
<trkpt lat="52.095142" lon="05.650340"><ele>47.1</ele><time>2022-04-18T14:00:10Z</time><name>PT437</name></trkpt>
<trkpt lat="52.095149" lon="05.650325"><ele>47.2</ele><time>2022-04-18T14:00:12Z</time><name>PT438</name></trkpt>
<trkpt lat="52.095158" lon="05.650311"><ele>47.1</ele><time>2022-04-18T14:00:12Z</time><name>PT439</name></trkpt>
<trkpt lat="52.095166" lon="05.650300"><ele>47.2</ele><time>2022-04-18T14:00:13Z</time><name>PT440</name></trkpt>
<trkpt lat="52.095173" lon="05.650286"><ele>47.1</ele><time>2022-04-18T14:00:15Z</time><name>PT441</name></trkpt>
<trkpt lat="52.095180" lon="05.650271"><ele>47.2</ele><time>2022-04-18T14:00:15Z</time><name>PT442</name></trkpt>
<trkpt lat="52.095190" lon="05.650258"><ele>47.3</ele><time>2022-04-18T14:00:16Z</time><name>PT443</name></trkpt>
<trkpt lat="52.095197" lon="05.650244"><ele>47.4</ele><time>2022-04-18T14:00:18Z</time><name>PT444</name></trkpt>
<trkpt lat="52.095205" lon="05.650231"><ele>47.3</ele><time>2022-04-18T14:00:18Z</time><name>PT445</name></trkpt>
<trkpt lat="52.095216" lon="05.650222"><ele>47.1</ele><time>2022-04-18T14:00:19Z</time><name>PT446</name></trkpt>
<trkpt lat="52.095224" lon="05.650209"><ele>46.9</ele><time>2022-04-18T14:00:21Z</time><name>PT447</name></trkpt>
<trkpt lat="52.095231" lon="05.650187"><ele>46.9</ele><time>2022-04-18T14:00:21Z</time><name>PT448</name></trkpt>
<trkpt lat="52.095238" lon="05.650170"><ele>46.9</ele><time>2022-04-18T14:00:22Z</time><name>PT449</name></trkpt>
<trkpt lat="52.095246" lon="05.650158"><ele>47.2</ele><time>2022-04-18T14:00:24Z</time><name>PT450</name></trkpt>
<trkpt lat="52.095254" lon="05.650147"><ele>47.1</ele><time>2022-04-18T14:00:24Z</time><name>PT451</name></trkpt>
<trkpt lat="52.095263" lon="05.650138"><ele>46.9</ele><time>2022-04-18T14:00:25Z</time><name>PT452</name></trkpt>
<trkpt lat="52.095270" lon="05.650125"><ele>46.9</ele><time>2022-04-18T14:00:27Z</time><name>PT453</name></trkpt>
<trkpt lat="52.095276" lon="05.650114"><ele>46.8</ele><time>2022-04-18T14:00:27Z</time><name>PT454</name></trkpt>
<trkpt lat="52.095285" lon="05.650100"><ele>46.4</ele><time>2022-04-18T14:00:28Z</time><name>PT455</name></trkpt>
<trkpt lat="52.095293" lon="05.650086"><ele>46.7</ele><time>2022-04-18T14:00:30Z</time><name>PT456</name></trkpt>
<trkpt lat="52.095300" lon="05.650071"><ele>46.7</ele><time>2022-04-18T14:00:30Z</time><name>PT457</name></trkpt>
<trkpt lat="52.095307" lon="05.650058"><ele>46.5</ele><time>2022-04-18T14:00:31Z</time><name>PT458</name></trkpt>
<trkpt lat="52.095314" lon="05.650045"><ele>46.4</ele><time>2022-04-18T14:00:33Z</time><name>PT459</name></trkpt>
<trkpt lat="52.095319" lon="05.650033"><ele>46.4</ele><time>2022-04-18T14:00:33Z</time><name>PT460</name></trkpt>
<trkpt lat="52.095325" lon="05.650022"><ele>46.4</ele><time>2022-04-18T14:00:34Z</time><name>PT461</name></trkpt>
<trkpt lat="52.095330" lon="05.650008"><ele>46.4</ele><time>2022-04-18T14:00:35Z</time><name>PT462</name></trkpt>
<trkpt lat="52.095338" lon="05.649993"><ele>46.3</ele><time>2022-04-18T14:00:36Z</time><name>PT463</name></trkpt>
<trkpt lat="52.095346" lon="05.649979"><ele>46.4</ele><time>2022-04-18T14:00:37Z</time><name>PT464</name></trkpt>
<trkpt lat="52.095354" lon="05.649967"><ele>46.3</ele><time>2022-04-18T14:00:39Z</time><name>PT465</name></trkpt>
<trkpt lat="52.095357" lon="05.649956"><ele>46.3</ele><time>2022-04-18T14:00:39Z</time><name>PT466</name></trkpt>
<trkpt lat="52.095363" lon="05.649947"><ele>46.4</ele><time>2022-04-18T14:00:40Z</time><name>PT467</name></trkpt>
<trkpt lat="52.095373" lon="05.649941"><ele>46.3</ele><time>2022-04-18T14:00:42Z</time><name>PT468</name></trkpt>
<trkpt lat="52.095381" lon="05.649931"><ele>46.3</ele><time>2022-04-18T14:00:42Z</time><name>PT469</name></trkpt>
<trkpt lat="52.095389" lon="05.649916"><ele>46.3</ele><time>2022-04-18T14:00:43Z</time><name>PT470</name></trkpt>
<trkpt lat="52.095397" lon="05.649900"><ele>46.1</ele><time>2022-04-18T14:00:45Z</time><name>PT471</name></trkpt>
<trkpt lat="52.095405" lon="05.649885"><ele>46.1</ele><time>2022-04-18T14:00:45Z</time><name>PT472</name></trkpt>
<trkpt lat="52.095414" lon="05.649867"><ele>46.1</ele><time>2022-04-18T14:00:46Z</time><name>PT473</name></trkpt>
<trkpt lat="52.095423" lon="05.649852"><ele>46.1</ele><time>2022-04-18T14:00:48Z</time><name>PT474</name></trkpt>
<trkpt lat="52.095430" lon="05.649840"><ele>46.3</ele><time>2022-04-18T14:00:48Z</time><name>PT475</name></trkpt>
<trkpt lat="52.095437" lon="05.649825"><ele>46.2</ele><time>2022-04-18T14:00:49Z</time><name>PT476</name></trkpt>
<trkpt lat="52.095444" lon="05.649811"><ele>46</ele><time>2022-04-18T14:00:51Z</time><name>PT477</name></trkpt>
<trkpt lat="52.095453" lon="05.649797"><ele>46.1</ele><time>2022-04-18T14:00:51Z</time><name>PT478</name></trkpt>
<trkpt lat="52.095461" lon="05.649785"><ele>46.1</ele><time>2022-04-18T14:00:52Z</time><name>PT479</name></trkpt>
<trkpt lat="52.095468" lon="05.649770"><ele>46.4</ele><time>2022-04-18T14:00:54Z</time><name>PT480</name></trkpt>
<trkpt lat="52.095476" lon="05.649756"><ele>46.4</ele><time>2022-04-18T14:00:54Z</time><name>PT481</name></trkpt>
<trkpt lat="52.095482" lon="05.649743"><ele>46.4</ele><time>2022-04-18T14:00:55Z</time><name>PT482</name></trkpt>
<trkpt lat="52.095489" lon="05.649730"><ele>46.4</ele><time>2022-04-18T14:00:57Z</time><name>PT483</name></trkpt>
<trkpt lat="52.095496" lon="05.649717"><ele>46.2</ele><time>2022-04-18T14:00:57Z</time><name>PT484</name></trkpt>
<trkpt lat="52.095502" lon="05.649705"><ele>46</ele><time>2022-04-18T14:00:58Z</time><name>PT485</name></trkpt>
<trkpt lat="52.095510" lon="05.649695"><ele>45.9</ele><time>2022-04-18T14:01:00Z</time><name>PT486</name></trkpt>
<trkpt lat="52.095517" lon="05.649682"><ele>45.9</ele><time>2022-04-18T14:01:00Z</time><name>PT487</name></trkpt>
<trkpt lat="52.095524" lon="05.649668"><ele>45.9</ele><time>2022-04-18T14:01:01Z</time><name>PT488</name></trkpt>
<trkpt lat="52.095531" lon="05.649652"><ele>45.9</ele><time>2022-04-18T14:01:03Z</time><name>PT489</name></trkpt>
<trkpt lat="52.095539" lon="05.649637"><ele>45.9</ele><time>2022-04-18T14:01:03Z</time><name>PT490</name></trkpt>
<trkpt lat="52.095546" lon="05.649624"><ele>46</ele><time>2022-04-18T14:01:04Z</time><name>PT491</name></trkpt>
<trkpt lat="52.095552" lon="05.649612"><ele>45.9</ele><time>2022-04-18T14:01:06Z</time><name>PT492</name></trkpt>
<trkpt lat="52.095558" lon="05.649599"><ele>45.9</ele><time>2022-04-18T14:01:06Z</time><name>PT493</name></trkpt>
<trkpt lat="52.095562" lon="05.649588"><ele>45.8</ele><time>2022-04-18T14:01:07Z</time><name>PT494</name></trkpt>
<trkpt lat="52.095566" lon="05.649578"><ele>45.8</ele><time>2022-04-18T14:01:09Z</time><name>PT495</name></trkpt>
<trkpt lat="52.095573" lon="05.649567"><ele>45.9</ele><time>2022-04-18T14:01:09Z</time><name>PT496</name></trkpt>
<trkpt lat="52.095581" lon="05.649555"><ele>45.9</ele><time>2022-04-18T14:01:10Z</time><name>PT497</name></trkpt>
<trkpt lat="52.095587" lon="05.649543"><ele>45.8</ele><time>2022-04-18T14:01:12Z</time><name>PT498</name></trkpt>
<trkpt lat="52.095594" lon="05.649537"><ele>45.9</ele><time>2022-04-18T14:01:12Z</time><name>PT499</name></trkpt>
<trkpt lat="52.095595" lon="05.649526"><ele>45.8</ele><time>2022-04-18T14:01:13Z</time><name>PT500</name></trkpt>
<trkpt lat="52.095599" lon="05.649517"><ele>45.5</ele><time>2022-04-18T14:01:15Z</time><name>PT501</name></trkpt>
<trkpt lat="52.095602" lon="05.649507"><ele>45.6</ele><time>2022-04-18T14:01:15Z</time><name>PT502</name></trkpt>
<trkpt lat="52.095611" lon="05.649493"><ele>45.4</ele><time>2022-04-18T14:01:16Z</time><name>PT503</name></trkpt>
<trkpt lat="52.095623" lon="05.649469"><ele>45.4</ele><time>2022-04-18T14:01:18Z</time><name>PT504</name></trkpt>
<trkpt lat="52.095636" lon="05.649449"><ele>45.4</ele><time>2022-04-18T14:01:18Z</time><name>PT505</name></trkpt>
<trkpt lat="52.095645" lon="05.649432"><ele>45.5</ele><time>2022-04-18T14:01:19Z</time><name>PT506</name></trkpt>
<trkpt lat="52.095648" lon="05.649419"><ele>45.5</ele><time>2022-04-18T14:01:21Z</time><name>PT507</name></trkpt>
<trkpt lat="52.095653" lon="05.649409"><ele>45.5</ele><time>2022-04-18T14:01:21Z</time><name>PT508</name></trkpt>
<trkpt lat="52.095656" lon="05.649398"><ele>45.6</ele><time>2022-04-18T14:01:22Z</time><name>PT509</name></trkpt>
<trkpt lat="52.095662" lon="05.649385"><ele>45.5</ele><time>2022-04-18T14:01:24Z</time><name>PT510</name></trkpt>
<trkpt lat="52.095666" lon="05.649359"><ele>45.6</ele><time>2022-04-18T14:01:24Z</time><name>PT511</name></trkpt>
<trkpt lat="52.095683" lon="05.649346"><ele>45.5</ele><time>2022-04-18T14:01:25Z</time><name>PT512</name></trkpt>
<trkpt lat="52.095696" lon="05.649327"><ele>45.5</ele><time>2022-04-18T14:01:27Z</time><name>PT513</name></trkpt>
<trkpt lat="52.095701" lon="05.649308"><ele>45.5</ele><time>2022-04-18T14:01:27Z</time><name>PT514</name></trkpt>
<trkpt lat="52.095706" lon="05.649300"><ele>45.6</ele><time>2022-04-18T14:01:28Z</time><name>PT515</name></trkpt>
<trkpt lat="52.095713" lon="05.649291"><ele>45.6</ele><time>2022-04-18T14:01:30Z</time><name>PT516</name></trkpt>
<trkpt lat="52.095721" lon="05.649279"><ele>45.7</ele><time>2022-04-18T14:01:30Z</time><name>PT517</name></trkpt>
<trkpt lat="52.095730" lon="05.649272"><ele>45.6</ele><time>2022-04-18T14:01:31Z</time><name>PT518</name></trkpt>
<trkpt lat="52.095734" lon="05.649246"><ele>45.6</ele><time>2022-04-18T14:01:33Z</time><name>PT519</name></trkpt>
<trkpt lat="52.095746" lon="05.649230"><ele>45.5</ele><time>2022-04-18T14:01:33Z</time><name>PT520</name></trkpt>
<trkpt lat="52.095753" lon="05.649214"><ele>45.5</ele><time>2022-04-18T14:01:34Z</time><name>PT521</name></trkpt>
<trkpt lat="52.095760" lon="05.649203"><ele>45.6</ele><time>2022-04-18T14:01:36Z</time><name>PT522</name></trkpt>
<trkpt lat="52.095761" lon="05.649202"><ele>45.6</ele><time>2022-04-18T14:01:36Z</time><name>PT523</name></trkpt>
<trkpt lat="52.095766" lon="05.649195"><ele>45.4</ele><time>2022-04-18T14:01:37Z</time><name>PT524</name></trkpt>
<trkpt lat="52.095775" lon="05.649185"><ele>45.5</ele><time>2022-04-18T14:01:39Z</time><name>PT525</name></trkpt>
<trkpt lat="52.095785" lon="05.649175"><ele>45.5</ele><time>2022-04-18T14:01:39Z</time><name>PT526</name></trkpt>
<trkpt lat="52.095790" lon="05.649153"><ele>45.6</ele><time>2022-04-18T14:01:40Z</time><name>PT527</name></trkpt>
<trkpt lat="52.095799" lon="05.649124"><ele>45.7</ele><time>2022-04-18T14:01:42Z</time><name>PT528</name></trkpt>
<trkpt lat="52.095807" lon="05.649105"><ele>45.8</ele><time>2022-04-18T14:01:42Z</time><name>PT529</name></trkpt>
<trkpt lat="52.095815" lon="05.649094"><ele>45.7</ele><time>2022-04-18T14:01:43Z</time><name>PT530</name></trkpt>
<trkpt lat="52.095825" lon="05.649086"><ele>45.8</ele><time>2022-04-18T14:01:45Z</time><name>PT531</name></trkpt>
<trkpt lat="52.095835" lon="05.649075"><ele>45.9</ele><time>2022-04-18T14:01:45Z</time><name>PT532</name></trkpt>
<trkpt lat="52.095840" lon="05.649068"><ele>45.8</ele><time>2022-04-18T14:01:46Z</time><name>PT533</name></trkpt>
<trkpt lat="52.095845" lon="05.649055"><ele>45.9</ele><time>2022-04-18T14:01:48Z</time><name>PT534</name></trkpt>
<trkpt lat="52.095854" lon="05.649044"><ele>46</ele><time>2022-04-18T14:01:48Z</time><name>PT535</name></trkpt>
<trkpt lat="52.095863" lon="05.649036"><ele>45.8</ele><time>2022-04-18T14:01:49Z</time><name>PT536</name></trkpt>
<trkpt lat="52.095872" lon="05.649021"><ele>45.7</ele><time>2022-04-18T14:01:51Z</time><name>PT537</name></trkpt>
<trkpt lat="52.095882" lon="05.649000"><ele>45.7</ele><time>2022-04-18T14:01:51Z</time><name>PT538</name></trkpt>
<trkpt lat="52.095889" lon="05.648985"><ele>45.5</ele><time>2022-04-18T14:01:52Z</time><name>PT539</name></trkpt>
<trkpt lat="52.095892" lon="05.648974"><ele>45.4</ele><time>2022-04-18T14:01:54Z</time><name>PT540</name></trkpt>
<trkpt lat="52.095898" lon="05.648969"><ele>45.4</ele><time>2022-04-18T14:01:54Z</time><name>PT541</name></trkpt>
<trkpt lat="52.095901" lon="05.648960"><ele>45.4</ele><time>2022-04-18T14:01:55Z</time><name>PT542</name></trkpt>
<trkpt lat="52.095907" lon="05.648949"><ele>45.3</ele><time>2022-04-18T14:01:57Z</time><name>PT543</name></trkpt>
<trkpt lat="52.095917" lon="05.648933"><ele>45.4</ele><time>2022-04-18T14:01:57Z</time><name>PT544</name></trkpt>
<trkpt lat="52.095925" lon="05.648915"><ele>45.5</ele><time>2022-04-18T14:01:58Z</time><name>PT545</name></trkpt>
<trkpt lat="52.095934" lon="05.648901"><ele>45.4</ele><time>2022-04-18T14:02:00Z</time><name>PT546</name></trkpt>
<trkpt lat="52.095938" lon="05.648891"><ele>45.4</ele><time>2022-04-18T14:02:00Z</time><name>PT547</name></trkpt>
<trkpt lat="52.095941" lon="05.648878"><ele>45.4</ele><time>2022-04-18T14:02:01Z</time><name>PT548</name></trkpt>
<trkpt lat="52.095944" lon="05.648870"><ele>45.4</ele><time>2022-04-18T14:02:03Z</time><name>PT549</name></trkpt>
<trkpt lat="52.095947" lon="05.648865"><ele>45.4</ele><time>2022-04-18T14:02:03Z</time><name>PT550</name></trkpt>
<trkpt lat="52.095950" lon="05.648858"><ele>45.4</ele><time>2022-04-18T14:02:04Z</time><name>PT551</name></trkpt>
<trkpt lat="52.095952" lon="05.648852"><ele>45.3</ele><time>2022-04-18T14:02:06Z</time><name>PT552</name></trkpt>
<trkpt lat="52.095952" lon="05.648853"><ele>45.2</ele><time>2022-04-18T14:02:09Z</time><name>PT553</name></trkpt>
<trkpt lat="52.095955" lon="05.648848"><ele>45.2</ele><time>2022-04-18T14:02:10Z</time><name>PT554</name></trkpt>
<trkpt lat="52.095958" lon="05.648843"><ele>45.3</ele><time>2022-04-18T14:02:12Z</time><name>PT555</name></trkpt>
<trkpt lat="52.095962" lon="05.648836"><ele>45.4</ele><time>2022-04-18T14:02:19Z</time><name>PT556</name></trkpt>
<trkpt lat="52.095969" lon="05.648822"><ele>45.4</ele><time>2022-04-18T14:02:21Z</time><name>PT557</name></trkpt>
<trkpt lat="52.095977" lon="05.648808"><ele>45.3</ele><time>2022-04-18T14:02:21Z</time><name>PT558</name></trkpt>
<trkpt lat="52.095979" lon="05.648800"><ele>45.4</ele><time>2022-04-18T14:02:22Z</time><name>PT559</name></trkpt>
<trkpt lat="52.095976" lon="05.648796"><ele>45.3</ele><time>2022-04-18T14:02:24Z</time><name>PT560</name></trkpt>
<trkpt lat="52.095977" lon="05.648790"><ele>45.2</ele><time>2022-04-18T14:02:24Z</time><name>PT561</name></trkpt>
<trkpt lat="52.095983" lon="05.648790"><ele>45.3</ele><time>2022-04-18T14:02:25Z</time><name>PT562</name></trkpt>
<trkpt lat="52.095991" lon="05.648790"><ele>45.1</ele><time>2022-04-18T14:02:28Z</time><name>PT563</name></trkpt>
<trkpt lat="52.096007" lon="05.648778"><ele>45.1</ele><time>2022-04-18T14:02:30Z</time><name>PT564</name></trkpt>
<trkpt lat="52.096015" lon="05.648765"><ele>45</ele><time>2022-04-18T14:02:30Z</time><name>PT565</name></trkpt>
<trkpt lat="52.096024" lon="05.648751"><ele>44.8</ele><time>2022-04-18T14:02:31Z</time><name>PT566</name></trkpt>
<trkpt lat="52.096028" lon="05.648742"><ele>44.8</ele><time>2022-04-18T14:02:33Z</time><name>PT567</name></trkpt>
<trkpt lat="52.096029" lon="05.648731"><ele>44.6</ele><time>2022-04-18T14:02:33Z</time><name>PT568</name></trkpt>
<trkpt lat="52.096029" lon="05.648719"><ele>44.8</ele><time>2022-04-18T14:02:34Z</time><name>PT569</name></trkpt>
<trkpt lat="52.096028" lon="05.648712"><ele>44.7</ele><time>2022-04-18T14:02:36Z</time><name>PT570</name></trkpt>
<trkpt lat="52.096032" lon="05.648711"><ele>44.8</ele><time>2022-04-18T14:02:36Z</time><name>PT571</name></trkpt>
<trkpt lat="52.096030" lon="05.648705"><ele>44.9</ele><time>2022-04-18T14:02:37Z</time><name>PT572</name></trkpt>
<trkpt lat="52.096032" lon="05.648701"><ele>44.9</ele><time>2022-04-18T14:02:39Z</time><name>PT573</name></trkpt>
<trkpt lat="52.096030" lon="05.648703"><ele>45</ele><time>2022-04-18T14:02:39Z</time><name>PT574</name></trkpt>
<trkpt lat="52.096028" lon="05.648705"><ele>44.9</ele><time>2022-04-18T14:02:40Z</time><name>PT575</name></trkpt>
<trkpt lat="52.096030" lon="05.648705"><ele>44.9</ele><time>2022-04-18T14:02:42Z</time><name>PT576</name></trkpt>
<trkpt lat="52.096022" lon="05.648709"><ele>44.8</ele><time>2022-04-18T14:02:42Z</time><name>PT577</name></trkpt>
<trkpt lat="52.096017" lon="05.648707"><ele>44.6</ele><time>2022-04-18T14:02:43Z</time><name>PT578</name></trkpt>
<trkpt lat="52.096013" lon="05.648700"><ele>44.8</ele><time>2022-04-18T14:02:45Z</time><name>PT579</name></trkpt>
<trkpt lat="52.096008" lon="05.648689"><ele>44.9</ele><time>2022-04-18T14:02:45Z</time><name>PT580</name></trkpt>
<trkpt lat="52.096000" lon="05.648679"><ele>45</ele><time>2022-04-18T14:02:46Z</time><name>PT581</name></trkpt>
<trkpt lat="52.095990" lon="05.648674"><ele>45.2</ele><time>2022-04-18T14:02:48Z</time><name>PT582</name></trkpt>
<trkpt lat="52.095978" lon="05.648666"><ele>45.2</ele><time>2022-04-18T14:02:48Z</time><name>PT583</name></trkpt>
<trkpt lat="52.095969" lon="05.648653"><ele>45.1</ele><time>2022-04-18T14:02:49Z</time><name>PT584</name></trkpt>
<trkpt lat="52.095949" lon="05.648633"><ele>45</ele><time>2022-04-18T14:02:50Z</time><name>PT585</name></trkpt>
<trkpt lat="52.095940" lon="05.648622"><ele>44.9</ele><time>2022-04-18T14:02:51Z</time><name>PT586</name></trkpt>
<trkpt lat="52.095939" lon="05.648617"><ele>44.8</ele><time>2022-04-18T14:02:52Z</time><name>PT587</name></trkpt>
<trkpt lat="52.095938" lon="05.648607"><ele>44.8</ele><time>2022-04-18T14:02:54Z</time><name>PT588</name></trkpt>
<trkpt lat="52.095936" lon="05.648592"><ele>44.9</ele><time>2022-04-18T14:02:54Z</time><name>PT589</name></trkpt>
<trkpt lat="52.095935" lon="05.648576"><ele>45</ele><time>2022-04-18T14:02:55Z</time><name>PT590</name></trkpt>
<trkpt lat="52.095936" lon="05.648567"><ele>45.3</ele><time>2022-04-18T14:02:57Z</time><name>PT591</name></trkpt>
<trkpt lat="52.095935" lon="05.648559"><ele>45.4</ele><time>2022-04-18T14:02:57Z</time><name>PT592</name></trkpt>
<trkpt lat="52.095939" lon="05.648553"><ele>45.6</ele><time>2022-04-18T14:02:58Z</time><name>PT593</name></trkpt>
<trkpt lat="52.095939" lon="05.648542"><ele>45.6</ele><time>2022-04-18T14:03:00Z</time><name>PT594</name></trkpt>
<trkpt lat="52.095938" lon="05.648524"><ele>45.7</ele><time>2022-04-18T14:03:00Z</time><name>PT595</name></trkpt>
<trkpt lat="52.095941" lon="05.648513"><ele>45.6</ele><time>2022-04-18T14:03:01Z</time><name>PT596</name></trkpt>
<trkpt lat="52.095940" lon="05.648492"><ele>45.5</ele><time>2022-04-18T14:03:02Z</time><name>PT597</name></trkpt>
<trkpt lat="52.095940" lon="05.648478"><ele>45.5</ele><time>2022-04-18T14:03:03Z</time><name>PT598</name></trkpt>
<trkpt lat="52.095941" lon="05.648464"><ele>45.4</ele><time>2022-04-18T14:03:04Z</time><name>PT599</name></trkpt>
<trkpt lat="52.095943" lon="05.648454"><ele>45.4</ele><time>2022-04-18T14:03:05Z</time><name>PT600</name></trkpt>
<trkpt lat="52.095947" lon="05.648445"><ele>45.4</ele><time>2022-04-18T14:03:06Z</time><name>PT601</name></trkpt>
<trkpt lat="52.095952" lon="05.648432"><ele>45.4</ele><time>2022-04-18T14:03:07Z</time><name>PT602</name></trkpt>
<trkpt lat="52.095955" lon="05.648420"><ele>45.4</ele><time>2022-04-18T14:03:09Z</time><name>PT603</name></trkpt>
<trkpt lat="52.095958" lon="05.648405"><ele>45.3</ele><time>2022-04-18T14:03:09Z</time><name>PT604</name></trkpt>
<trkpt lat="52.095961" lon="05.648391"><ele>45.4</ele><time>2022-04-18T14:03:10Z</time><name>PT605</name></trkpt>
<trkpt lat="52.095966" lon="05.648380"><ele>45.4</ele><time>2022-04-18T14:03:12Z</time><name>PT606</name></trkpt>
<trkpt lat="52.095972" lon="05.648364"><ele>45.4</ele><time>2022-04-18T14:03:12Z</time><name>PT607</name></trkpt>
<trkpt lat="52.095977" lon="05.648352"><ele>45.4</ele><time>2022-04-18T14:03:13Z</time><name>PT608</name></trkpt>
<trkpt lat="52.095978" lon="05.648330"><ele>45.2</ele><time>2022-04-18T14:03:14Z</time><name>PT609</name></trkpt>
<trkpt lat="52.095982" lon="05.648321"><ele>45.1</ele><time>2022-04-18T14:03:15Z</time><name>PT610</name></trkpt>
<trkpt lat="52.095984" lon="05.648307"><ele>45.1</ele><time>2022-04-18T14:03:16Z</time><name>PT611</name></trkpt>
<trkpt lat="52.095984" lon="05.648291"><ele>45.1</ele><time>2022-04-18T14:03:18Z</time><name>PT612</name></trkpt>
<trkpt lat="52.095983" lon="05.648273"><ele>45.1</ele><time>2022-04-18T14:03:18Z</time><name>PT613</name></trkpt>
<trkpt lat="52.095982" lon="05.648258"><ele>45.1</ele><time>2022-04-18T14:03:19Z</time><name>PT614</name></trkpt>
<trkpt lat="52.095984" lon="05.648249"><ele>45.1</ele><time>2022-04-18T14:03:21Z</time><name>PT615</name></trkpt>
<trkpt lat="52.095985" lon="05.648239"><ele>45.2</ele><time>2022-04-18T14:03:21Z</time><name>PT616</name></trkpt>
<trkpt lat="52.095980" lon="05.648225"><ele>45.3</ele><time>2022-04-18T14:03:22Z</time><name>PT617</name></trkpt>
<trkpt lat="52.095980" lon="05.648215"><ele>45.3</ele><time>2022-04-18T14:03:24Z</time><name>PT618</name></trkpt>
<trkpt lat="52.095978" lon="05.648207"><ele>45.3</ele><time>2022-04-18T14:03:24Z</time><name>PT619</name></trkpt>
<trkpt lat="52.095977" lon="05.648201"><ele>45.4</ele><time>2022-04-18T14:03:25Z</time><name>PT620</name></trkpt>
<trkpt lat="52.095977" lon="05.648190"><ele>45.5</ele><time>2022-04-18T14:03:31Z</time><name>PT621</name></trkpt>
<trkpt lat="52.095978" lon="05.648174"><ele>45.4</ele><time>2022-04-18T14:03:33Z</time><name>PT622</name></trkpt>
<trkpt lat="52.095983" lon="05.648157"><ele>45.2</ele><time>2022-04-18T14:03:33Z</time><name>PT623</name></trkpt>
<trkpt lat="52.095986" lon="05.648141"><ele>45.1</ele><time>2022-04-18T14:03:34Z</time><name>PT624</name></trkpt>
<trkpt lat="52.095992" lon="05.648126"><ele>45</ele><time>2022-04-18T14:03:36Z</time><name>PT625</name></trkpt>
<trkpt lat="52.096000" lon="05.648115"><ele>45</ele><time>2022-04-18T14:03:36Z</time><name>PT626</name></trkpt>
<trkpt lat="52.096005" lon="05.648102"><ele>45.2</ele><time>2022-04-18T14:03:37Z</time><name>PT627</name></trkpt>
<trkpt lat="52.096009" lon="05.648089"><ele>45.3</ele><time>2022-04-18T14:03:39Z</time><name>PT628</name></trkpt>
<trkpt lat="52.096012" lon="05.648076"><ele>45.4</ele><time>2022-04-18T14:03:39Z</time><name>PT629</name></trkpt>
<trkpt lat="52.096014" lon="05.648059"><ele>45.4</ele><time>2022-04-18T14:03:40Z</time><name>PT630</name></trkpt>
<trkpt lat="52.096020" lon="05.648047"><ele>45.4</ele><time>2022-04-18T14:03:42Z</time><name>PT631</name></trkpt>
<trkpt lat="52.096026" lon="05.648031"><ele>45.4</ele><time>2022-04-18T14:03:42Z</time><name>PT632</name></trkpt>
<trkpt lat="52.096033" lon="05.648017"><ele>45.2</ele><time>2022-04-18T14:03:43Z</time><name>PT633</name></trkpt>
<trkpt lat="52.096043" lon="05.648012"><ele>45.4</ele><time>2022-04-18T14:03:44Z</time><name>PT634</name></trkpt>
<trkpt lat="52.096054" lon="05.648000"><ele>45.4</ele><time>2022-04-18T14:03:45Z</time><name>PT635</name></trkpt>
<trkpt lat="52.096064" lon="05.647990"><ele>45.4</ele><time>2022-04-18T14:03:46Z</time><name>PT636</name></trkpt>
<trkpt lat="52.096074" lon="05.647978"><ele>45.3</ele><time>2022-04-18T14:03:48Z</time><name>PT637</name></trkpt>
<trkpt lat="52.096085" lon="05.647963"><ele>45.4</ele><time>2022-04-18T14:03:48Z</time><name>PT638</name></trkpt>
<trkpt lat="52.096095" lon="05.647951"><ele>45.2</ele><time>2022-04-18T14:03:49Z</time><name>PT639</name></trkpt>
<trkpt lat="52.096104" lon="05.647944"><ele>45.1</ele><time>2022-04-18T14:03:51Z</time><name>PT640</name></trkpt>
<trkpt lat="52.096115" lon="05.647940"><ele>45</ele><time>2022-04-18T14:03:51Z</time><name>PT641</name></trkpt>
<trkpt lat="52.096126" lon="05.647939"><ele>45</ele><time>2022-04-18T14:03:52Z</time><name>PT642</name></trkpt>
<trkpt lat="52.096136" lon="05.647932"><ele>45</ele><time>2022-04-18T14:03:54Z</time><name>PT643</name></trkpt>
<trkpt lat="52.096146" lon="05.647925"><ele>45</ele><time>2022-04-18T14:03:54Z</time><name>PT644</name></trkpt>
<trkpt lat="52.096156" lon="05.647921"><ele>44.8</ele><time>2022-04-18T14:03:55Z</time><name>PT645</name></trkpt>
<trkpt lat="52.096163" lon="05.647921"><ele>44.7</ele><time>2022-04-18T14:03:57Z</time><name>PT646</name></trkpt>
<trkpt lat="52.096171" lon="05.647922"><ele>44.7</ele><time>2022-04-18T14:03:57Z</time><name>PT647</name></trkpt>
<trkpt lat="52.096181" lon="05.647925"><ele>44.9</ele><time>2022-04-18T14:03:58Z</time><name>PT648</name></trkpt>
<trkpt lat="52.096187" lon="05.647926"><ele>45</ele><time>2022-04-18T14:04:00Z</time><name>PT649</name></trkpt>
<trkpt lat="52.096194" lon="05.647922"><ele>45</ele><time>2022-04-18T14:04:00Z</time><name>PT650</name></trkpt>
<trkpt lat="52.096203" lon="05.647920"><ele>45.1</ele><time>2022-04-18T14:04:01Z</time><name>PT651</name></trkpt>
<trkpt lat="52.096208" lon="05.647917"><ele>45.1</ele><time>2022-04-18T14:04:03Z</time><name>PT652</name></trkpt>
<trkpt lat="52.096224" lon="05.647916"><ele>45</ele><time>2022-04-18T14:04:03Z</time><name>PT653</name></trkpt>
<trkpt lat="52.096233" lon="05.647915"><ele>45.3</ele><time>2022-04-18T14:04:04Z</time><name>PT654</name></trkpt>
<trkpt lat="52.096245" lon="05.647921"><ele>45.3</ele><time>2022-04-18T14:04:06Z</time><name>PT655</name></trkpt>
<trkpt lat="52.096256" lon="05.647922"><ele>45.4</ele><time>2022-04-18T14:04:06Z</time><name>PT656</name></trkpt>
<trkpt lat="52.096259" lon="05.647918"><ele>45.4</ele><time>2022-04-18T14:04:07Z</time><name>PT657</name></trkpt>
<trkpt lat="52.096264" lon="05.647915"><ele>45.4</ele><time>2022-04-18T14:04:09Z</time><name>PT658</name></trkpt>
<trkpt lat="52.096274" lon="05.647911"><ele>45.4</ele><time>2022-04-18T14:04:09Z</time><name>PT659</name></trkpt>
<trkpt lat="52.096285" lon="05.647909"><ele>45.3</ele><time>2022-04-18T14:04:10Z</time><name>PT660</name></trkpt>
<trkpt lat="52.096294" lon="05.647908"><ele>45.4</ele><time>2022-04-18T14:04:12Z</time><name>PT661</name></trkpt>
<trkpt lat="52.096302" lon="05.647903"><ele>45.4</ele><time>2022-04-18T14:04:12Z</time><name>PT662</name></trkpt>
<trkpt lat="52.096308" lon="05.647899"><ele>45.4</ele><time>2022-04-18T14:04:13Z</time><name>PT663</name></trkpt>
<trkpt lat="52.096314" lon="05.647894"><ele>45.4</ele><time>2022-04-18T14:04:15Z</time><name>PT664</name></trkpt>
<trkpt lat="52.096319" lon="05.647893"><ele>45.4</ele><time>2022-04-18T14:04:15Z</time><name>PT665</name></trkpt>
<trkpt lat="52.096329" lon="05.647891"><ele>45.5</ele><time>2022-04-18T14:04:16Z</time><name>PT666</name></trkpt>
<trkpt lat="52.096337" lon="05.647887"><ele>45.5</ele><time>2022-04-18T14:04:17Z</time><name>PT667</name></trkpt>
<trkpt lat="52.096345" lon="05.647881"><ele>45.7</ele><time>2022-04-18T14:04:18Z</time><name>PT668</name></trkpt>
<trkpt lat="52.096357" lon="05.647873"><ele>45.6</ele><time>2022-04-18T14:04:19Z</time><name>PT669</name></trkpt>
<trkpt lat="52.096366" lon="05.647860"><ele>45.5</ele><time>2022-04-18T14:04:21Z</time><name>PT670</name></trkpt>
<trkpt lat="52.096377" lon="05.647855"><ele>45.4</ele><time>2022-04-18T14:04:21Z</time><name>PT671</name></trkpt>
<trkpt lat="52.096387" lon="05.647852"><ele>45.4</ele><time>2022-04-18T14:04:22Z</time><name>PT672</name></trkpt>
<trkpt lat="52.096399" lon="05.647846"><ele>45.4</ele><time>2022-04-18T14:04:24Z</time><name>PT673</name></trkpt>
<trkpt lat="52.096406" lon="05.647835"><ele>45.5</ele><time>2022-04-18T14:04:24Z</time><name>PT674</name></trkpt>
<trkpt lat="52.096416" lon="05.647825"><ele>45.7</ele><time>2022-04-18T14:04:25Z</time><name>PT675</name></trkpt>
<trkpt lat="52.096427" lon="05.647811"><ele>45.7</ele><time>2022-04-18T14:04:27Z</time><name>PT676</name></trkpt>
<trkpt lat="52.096435" lon="05.647801"><ele>45.7</ele><time>2022-04-18T14:04:27Z</time><name>PT677</name></trkpt>
<trkpt lat="52.096443" lon="05.647789"><ele>45.6</ele><time>2022-04-18T14:04:28Z</time><name>PT678</name></trkpt>
<trkpt lat="52.096451" lon="05.647782"><ele>45.6</ele><time>2022-04-18T14:04:30Z</time><name>PT679</name></trkpt>
<trkpt lat="52.096460" lon="05.647777"><ele>45.4</ele><time>2022-04-18T14:04:30Z</time><name>PT680</name></trkpt>
<trkpt lat="52.096464" lon="05.647771"><ele>45.6</ele><time>2022-04-18T14:04:31Z</time><name>PT681</name></trkpt>
<trkpt lat="52.096472" lon="05.647762"><ele>45.7</ele><time>2022-04-18T14:04:32Z</time><name>PT682</name></trkpt>
<trkpt lat="52.096481" lon="05.647747"><ele>45.5</ele><time>2022-04-18T14:04:33Z</time><name>PT683</name></trkpt>
<trkpt lat="52.096489" lon="05.647738"><ele>45.4</ele><time>2022-04-18T14:04:34Z</time><name>PT684</name></trkpt>
<trkpt lat="52.096494" lon="05.647727"><ele>45.3</ele><time>2022-04-18T14:04:35Z</time><name>PT685</name></trkpt>
<trkpt lat="52.096501" lon="05.647709"><ele>45.4</ele><time>2022-04-18T14:04:36Z</time><name>PT686</name></trkpt>
<trkpt lat="52.096508" lon="05.647691"><ele>45.6</ele><time>2022-04-18T14:04:37Z</time><name>PT687</name></trkpt>
<trkpt lat="52.096515" lon="05.647672"><ele>45.9</ele><time>2022-04-18T14:04:39Z</time><name>PT688</name></trkpt>
<trkpt lat="52.096521" lon="05.647657"><ele>45.8</ele><time>2022-04-18T14:04:39Z</time><name>PT689</name></trkpt>
<trkpt lat="52.096530" lon="05.647654"><ele>45.7</ele><time>2022-04-18T14:04:40Z</time><name>PT690</name></trkpt>
<trkpt lat="52.096537" lon="05.647646"><ele>45.5</ele><time>2022-04-18T14:04:41Z</time><name>PT691</name></trkpt>
<trkpt lat="52.096547" lon="05.647631"><ele>45.5</ele><time>2022-04-18T14:04:42Z</time><name>PT692</name></trkpt>
<trkpt lat="52.096553" lon="05.647616"><ele>45.4</ele><time>2022-04-18T14:04:43Z</time><name>PT693</name></trkpt>
<trkpt lat="52.096561" lon="05.647605"><ele>45.6</ele><time>2022-04-18T14:04:45Z</time><name>PT694</name></trkpt>
<trkpt lat="52.096570" lon="05.647594"><ele>45.6</ele><time>2022-04-18T14:04:45Z</time><name>PT695</name></trkpt>
<trkpt lat="52.096573" lon="05.647580"><ele>45.5</ele><time>2022-04-18T14:04:46Z</time><name>PT696</name></trkpt>
<trkpt lat="52.096583" lon="05.647568"><ele>45.4</ele><time>2022-04-18T14:04:48Z</time><name>PT697</name></trkpt>
<trkpt lat="52.096589" lon="05.647558"><ele>45.4</ele><time>2022-04-18T14:04:48Z</time><name>PT698</name></trkpt>
<trkpt lat="52.096596" lon="05.647545"><ele>45.5</ele><time>2022-04-18T14:04:49Z</time><name>PT699</name></trkpt>
<trkpt lat="52.096606" lon="05.647528"><ele>45.4</ele><time>2022-04-18T14:04:51Z</time><name>PT700</name></trkpt>
<trkpt lat="52.096613" lon="05.647508"><ele>45.4</ele><time>2022-04-18T14:04:51Z</time><name>PT701</name></trkpt>
<trkpt lat="52.096620" lon="05.647492"><ele>45.3</ele><time>2022-04-18T14:04:52Z</time><name>PT702</name></trkpt>
<trkpt lat="52.096626" lon="05.647475"><ele>45.3</ele><time>2022-04-18T14:04:54Z</time><name>PT703</name></trkpt>
<trkpt lat="52.096634" lon="05.647457"><ele>45.3</ele><time>2022-04-18T14:04:54Z</time><name>PT704</name></trkpt>
<trkpt lat="52.096641" lon="05.647439"><ele>45.1</ele><time>2022-04-18T14:04:55Z</time><name>PT705</name></trkpt>
<trkpt lat="52.096649" lon="05.647424"><ele>45</ele><time>2022-04-18T14:04:57Z</time><name>PT706</name></trkpt>
<trkpt lat="52.096655" lon="05.647410"><ele>44.8</ele><time>2022-04-18T14:04:57Z</time><name>PT707</name></trkpt>
<trkpt lat="52.096664" lon="05.647394"><ele>44.8</ele><time>2022-04-18T14:04:58Z</time><name>PT708</name></trkpt>
<trkpt lat="52.096673" lon="05.647378"><ele>44.8</ele><time>2022-04-18T14:05:00Z</time><name>PT709</name></trkpt>
<trkpt lat="52.096683" lon="05.647369"><ele>44.7</ele><time>2022-04-18T14:05:00Z</time><name>PT710</name></trkpt>
<trkpt lat="52.096692" lon="05.647356"><ele>44.8</ele><time>2022-04-18T14:05:01Z</time><name>PT711</name></trkpt>
<trkpt lat="52.096700" lon="05.647340"><ele>44.7</ele><time>2022-04-18T14:05:03Z</time><name>PT712</name></trkpt>
<trkpt lat="52.096704" lon="05.647319"><ele>44.6</ele><time>2022-04-18T14:05:03Z</time><name>PT713</name></trkpt>
<trkpt lat="52.096711" lon="05.647303"><ele>44.5</ele><time>2022-04-18T14:05:04Z</time><name>PT714</name></trkpt>
<trkpt lat="52.096718" lon="05.647288"><ele>44.6</ele><time>2022-04-18T14:05:06Z</time><name>PT715</name></trkpt>
<trkpt lat="52.096723" lon="05.647276"><ele>44.6</ele><time>2022-04-18T14:05:06Z</time><name>PT716</name></trkpt>
<trkpt lat="52.096727" lon="05.647257"><ele>44.7</ele><time>2022-04-18T14:05:07Z</time><name>PT717</name></trkpt>
<trkpt lat="52.096726" lon="05.647238"><ele>44.7</ele><time>2022-04-18T14:05:08Z</time><name>PT718</name></trkpt>
<trkpt lat="52.096731" lon="05.647223"><ele>44.7</ele><time>2022-04-18T14:05:09Z</time><name>PT719</name></trkpt>
<trkpt lat="52.096743" lon="05.647206"><ele>44.5</ele><time>2022-04-18T14:05:10Z</time><name>PT720</name></trkpt>
<trkpt lat="52.096749" lon="05.647188"><ele>44.3</ele><time>2022-04-18T14:05:11Z</time><name>PT721</name></trkpt>
<trkpt lat="52.096756" lon="05.647173"><ele>44.3</ele><time>2022-04-18T14:05:12Z</time><name>PT722</name></trkpt>
<trkpt lat="52.096763" lon="05.647160"><ele>44.5</ele><time>2022-04-18T14:05:13Z</time><name>PT723</name></trkpt>
<trkpt lat="52.096770" lon="05.647149"><ele>44.5</ele><time>2022-04-18T14:05:15Z</time><name>PT724</name></trkpt>
<trkpt lat="52.096771" lon="05.647134"><ele>44.4</ele><time>2022-04-18T14:05:15Z</time><name>PT725</name></trkpt>
<trkpt lat="52.096778" lon="05.647123"><ele>44.5</ele><time>2022-04-18T14:05:16Z</time><name>PT726</name></trkpt>
<trkpt lat="52.096785" lon="05.647115"><ele>44.5</ele><time>2022-04-18T14:05:18Z</time><name>PT727</name></trkpt>
<trkpt lat="52.096789" lon="05.647104"><ele>44.5</ele><time>2022-04-18T14:05:18Z</time><name>PT728</name></trkpt>
<trkpt lat="52.096796" lon="05.647093"><ele>44.4</ele><time>2022-04-18T14:05:19Z</time><name>PT729</name></trkpt>
<trkpt lat="52.096804" lon="05.647082"><ele>44.3</ele><time>2022-04-18T14:05:21Z</time><name>PT730</name></trkpt>
<trkpt lat="52.096811" lon="05.647070"><ele>44.2</ele><time>2022-04-18T14:05:21Z</time><name>PT731</name></trkpt>
<trkpt lat="52.096819" lon="05.647057"><ele>44.1</ele><time>2022-04-18T14:05:22Z</time><name>PT732</name></trkpt>
<trkpt lat="52.096821" lon="05.647044"><ele>44.1</ele><time>2022-04-18T14:05:23Z</time><name>PT733</name></trkpt>
<trkpt lat="52.096825" lon="05.647031"><ele>44.1</ele><time>2022-04-18T14:05:24Z</time><name>PT734</name></trkpt>
<trkpt lat="52.096829" lon="05.647018"><ele>44.2</ele><time>2022-04-18T14:05:25Z</time><name>PT735</name></trkpt>
<trkpt lat="52.096833" lon="05.646999"><ele>44</ele><time>2022-04-18T14:05:27Z</time><name>PT736</name></trkpt>
<trkpt lat="52.096842" lon="05.646985"><ele>44.2</ele><time>2022-04-18T14:05:27Z</time><name>PT737</name></trkpt>
<trkpt lat="52.096853" lon="05.646973"><ele>44.3</ele><time>2022-04-18T14:05:28Z</time><name>PT738</name></trkpt>
<trkpt lat="52.096862" lon="05.646957"><ele>44.2</ele><time>2022-04-18T14:05:30Z</time><name>PT739</name></trkpt>
<trkpt lat="52.096869" lon="05.646954"><ele>44.1</ele><time>2022-04-18T14:05:30Z</time><name>PT740</name></trkpt>
<trkpt lat="52.096872" lon="05.646943"><ele>44.1</ele><time>2022-04-18T14:05:31Z</time><name>PT741</name></trkpt>
<trkpt lat="52.096887" lon="05.646927"><ele>44</ele><time>2022-04-18T14:05:33Z</time><name>PT742</name></trkpt>
<trkpt lat="52.096893" lon="05.646912"><ele>44</ele><time>2022-04-18T14:05:33Z</time><name>PT743</name></trkpt>
<trkpt lat="52.096899" lon="05.646899"><ele>44</ele><time>2022-04-18T14:05:34Z</time><name>PT744</name></trkpt>
<trkpt lat="52.096909" lon="05.646887"><ele>43.9</ele><time>2022-04-18T14:05:35Z</time><name>PT745</name></trkpt>
<trkpt lat="52.096920" lon="05.646881"><ele>44</ele><time>2022-04-18T14:05:36Z</time><name>PT746</name></trkpt>
<trkpt lat="52.096927" lon="05.646869"><ele>44</ele><time>2022-04-18T14:05:37Z</time><name>PT747</name></trkpt>
<trkpt lat="52.096935" lon="05.646850"><ele>44</ele><time>2022-04-18T14:05:38Z</time><name>PT748</name></trkpt>
<trkpt lat="52.096945" lon="05.646836"><ele>44.1</ele><time>2022-04-18T14:05:39Z</time><name>PT749</name></trkpt>
<trkpt lat="52.096952" lon="05.646820"><ele>44</ele><time>2022-04-18T14:05:40Z</time><name>PT750</name></trkpt>
<trkpt lat="52.096959" lon="05.646809"><ele>44</ele><time>2022-04-18T14:05:41Z</time><name>PT751</name></trkpt>
<trkpt lat="52.096968" lon="05.646801"><ele>43.9</ele><time>2022-04-18T14:05:42Z</time><name>PT752</name></trkpt>
<trkpt lat="52.096979" lon="05.646792"><ele>43.7</ele><time>2022-04-18T14:05:43Z</time><name>PT753</name></trkpt>
<trkpt lat="52.096988" lon="05.646775"><ele>43.6</ele><time>2022-04-18T14:05:44Z</time><name>PT754</name></trkpt>
<trkpt lat="52.096998" lon="05.646756"><ele>43.6</ele><time>2022-04-18T14:05:45Z</time><name>PT755</name></trkpt>
<trkpt lat="52.097006" lon="05.646727"><ele>43.8</ele><time>2022-04-18T14:05:46Z</time><name>PT756</name></trkpt>
<trkpt lat="52.097012" lon="05.646709"><ele>44</ele><time>2022-04-18T14:05:47Z</time><name>PT757</name></trkpt>
<trkpt lat="52.097022" lon="05.646694"><ele>43.8</ele><time>2022-04-18T14:05:48Z</time><name>PT758</name></trkpt>
<trkpt lat="52.097027" lon="05.646676"><ele>43.7</ele><time>2022-04-18T14:05:49Z</time><name>PT759</name></trkpt>
<trkpt lat="52.097033" lon="05.646661"><ele>43.5</ele><time>2022-04-18T14:05:50Z</time><name>PT760</name></trkpt>
<trkpt lat="52.097044" lon="05.646649"><ele>43.5</ele><time>2022-04-18T14:05:51Z</time><name>PT761</name></trkpt>
<trkpt lat="52.097053" lon="05.646631"><ele>43.5</ele><time>2022-04-18T14:05:52Z</time><name>PT762</name></trkpt>
<trkpt lat="52.097061" lon="05.646613"><ele>43.5</ele><time>2022-04-18T14:05:53Z</time><name>PT763</name></trkpt>
<trkpt lat="52.097070" lon="05.646599"><ele>43.5</ele><time>2022-04-18T14:05:54Z</time><name>PT764</name></trkpt>
<trkpt lat="52.097078" lon="05.646590"><ele>43.5</ele><time>2022-04-18T14:05:55Z</time><name>PT765</name></trkpt>
<trkpt lat="52.097084" lon="05.646576"><ele>43.4</ele><time>2022-04-18T14:05:57Z</time><name>PT766</name></trkpt>
<trkpt lat="52.097089" lon="05.646560"><ele>43.4</ele><time>2022-04-18T14:05:57Z</time><name>PT767</name></trkpt>
<trkpt lat="52.097098" lon="05.646546"><ele>43.5</ele><time>2022-04-18T14:05:58Z</time><name>PT768</name></trkpt>
<trkpt lat="52.097106" lon="05.646535"><ele>43.4</ele><time>2022-04-18T14:05:59Z</time><name>PT769</name></trkpt>
<trkpt lat="52.097112" lon="05.646524"><ele>43.3</ele><time>2022-04-18T14:06:00Z</time><name>PT770</name></trkpt>
<trkpt lat="52.097122" lon="05.646513"><ele>43.2</ele><time>2022-04-18T14:06:01Z</time><name>PT771</name></trkpt>
<trkpt lat="52.097129" lon="05.646500"><ele>43.1</ele><time>2022-04-18T14:06:03Z</time><name>PT772</name></trkpt>
<trkpt lat="52.097136" lon="05.646493"><ele>43.2</ele><time>2022-04-18T14:06:03Z</time><name>PT773</name></trkpt>
<trkpt lat="52.097143" lon="05.646481"><ele>43.1</ele><time>2022-04-18T14:06:04Z</time><name>PT774</name></trkpt>
<trkpt lat="52.097153" lon="05.646468"><ele>43.2</ele><time>2022-04-18T14:06:06Z</time><name>PT775</name></trkpt>
<trkpt lat="52.097162" lon="05.646453"><ele>43.1</ele><time>2022-04-18T14:06:06Z</time><name>PT776</name></trkpt>
<trkpt lat="52.097169" lon="05.646439"><ele>43</ele><time>2022-04-18T14:06:07Z</time><name>PT777</name></trkpt>
<trkpt lat="52.097176" lon="05.646425"><ele>42.8</ele><time>2022-04-18T14:06:09Z</time><name>PT778</name></trkpt>
<trkpt lat="52.097183" lon="05.646410"><ele>43</ele><time>2022-04-18T14:06:09Z</time><name>PT779</name></trkpt>
<trkpt lat="52.097189" lon="05.646394"><ele>42.9</ele><time>2022-04-18T14:06:10Z</time><name>PT780</name></trkpt>
<trkpt lat="52.097195" lon="05.646376"><ele>42.9</ele><time>2022-04-18T14:06:12Z</time><name>PT781</name></trkpt>
<trkpt lat="52.097202" lon="05.646362"><ele>42.9</ele><time>2022-04-18T14:06:12Z</time><name>PT782</name></trkpt>
<trkpt lat="52.097206" lon="05.646347"><ele>42.7</ele><time>2022-04-18T14:06:13Z</time><name>PT783</name></trkpt>
<trkpt lat="52.097213" lon="05.646335"><ele>42.7</ele><time>2022-04-18T14:06:15Z</time><name>PT784</name></trkpt>
<trkpt lat="52.097220" lon="05.646322"><ele>42.6</ele><time>2022-04-18T14:06:15Z</time><name>PT785</name></trkpt>
<trkpt lat="52.097226" lon="05.646309"><ele>42.7</ele><time>2022-04-18T14:06:16Z</time><name>PT786</name></trkpt>
<trkpt lat="52.097229" lon="05.646297"><ele>42.7</ele><time>2022-04-18T14:06:18Z</time><name>PT787</name></trkpt>
<trkpt lat="52.097232" lon="05.646290"><ele>42.6</ele><time>2022-04-18T14:06:18Z</time><name>PT788</name></trkpt>
<trkpt lat="52.097236" lon="05.646279"><ele>42.7</ele><time>2022-04-18T14:06:19Z</time><name>PT789</name></trkpt>
<trkpt lat="52.097242" lon="05.646268"><ele>42.9</ele><time>2022-04-18T14:06:21Z</time><name>PT790</name></trkpt>
<trkpt lat="52.097245" lon="05.646256"><ele>42.8</ele><time>2022-04-18T14:06:21Z</time><name>PT791</name></trkpt>
<trkpt lat="52.097248" lon="05.646241"><ele>42.8</ele><time>2022-04-18T14:06:22Z</time><name>PT792</name></trkpt>
<trkpt lat="52.097251" lon="05.646224"><ele>42.9</ele><time>2022-04-18T14:06:23Z</time><name>PT793</name></trkpt>
<trkpt lat="52.097249" lon="05.646213"><ele>42.8</ele><time>2022-04-18T14:06:24Z</time><name>PT794</name></trkpt>
<trkpt lat="52.097244" lon="05.646200"><ele>42.6</ele><time>2022-04-18T14:06:25Z</time><name>PT795</name></trkpt>
<trkpt lat="52.097242" lon="05.646189"><ele>42.5</ele><time>2022-04-18T14:06:27Z</time><name>PT796</name></trkpt>
<trkpt lat="52.097240" lon="05.646178"><ele>42.6</ele><time>2022-04-18T14:06:27Z</time><name>PT797</name></trkpt>
<trkpt lat="52.097236" lon="05.646170"><ele>42.4</ele><time>2022-04-18T14:06:28Z</time><name>PT798</name></trkpt>
<trkpt lat="52.097233" lon="05.646162"><ele>42.7</ele><time>2022-04-18T14:06:29Z</time><name>PT799</name></trkpt>
<trkpt lat="52.097230" lon="05.646155"><ele>42.6</ele><time>2022-04-18T14:06:30Z</time><name>PT800</name></trkpt>
<trkpt lat="52.097224" lon="05.646146"><ele>42.6</ele><time>2022-04-18T14:06:31Z</time><name>PT801</name></trkpt>
<trkpt lat="52.097216" lon="05.646136"><ele>43</ele><time>2022-04-18T14:06:33Z</time><name>PT802</name></trkpt>
<trkpt lat="52.097212" lon="05.646124"><ele>43.1</ele><time>2022-04-18T14:06:33Z</time><name>PT803</name></trkpt>
<trkpt lat="52.097207" lon="05.646109"><ele>43.4</ele><time>2022-04-18T14:06:34Z</time><name>PT804</name></trkpt>
<trkpt lat="52.097202" lon="05.646096"><ele>43.7</ele><time>2022-04-18T14:06:35Z</time><name>PT805</name></trkpt>
<trkpt lat="52.097197" lon="05.646085"><ele>43.8</ele><time>2022-04-18T14:06:36Z</time><name>PT806</name></trkpt>
<trkpt lat="52.097190" lon="05.646073"><ele>43.9</ele><time>2022-04-18T14:06:37Z</time><name>PT807</name></trkpt>
<trkpt lat="52.097181" lon="05.646062"><ele>43.8</ele><time>2022-04-18T14:06:38Z</time><name>PT808</name></trkpt>
<trkpt lat="52.097172" lon="05.646050"><ele>43.7</ele><time>2022-04-18T14:06:39Z</time><name>PT809</name></trkpt>
<trkpt lat="52.097163" lon="05.646041"><ele>43.8</ele><time>2022-04-18T14:06:40Z</time><name>PT810</name></trkpt>
<trkpt lat="52.097155" lon="05.646033"><ele>43.6</ele><time>2022-04-18T14:06:42Z</time><name>PT811</name></trkpt>
<trkpt lat="52.097147" lon="05.646022"><ele>43.7</ele><time>2022-04-18T14:06:42Z</time><name>PT812</name></trkpt>
<trkpt lat="52.097140" lon="05.646014"><ele>43.7</ele><time>2022-04-18T14:06:43Z</time><name>PT813</name></trkpt>
<trkpt lat="52.097132" lon="05.646003"><ele>43.6</ele><time>2022-04-18T14:06:45Z</time><name>PT814</name></trkpt>
<trkpt lat="52.097121" lon="05.645992"><ele>43.7</ele><time>2022-04-18T14:06:45Z</time><name>PT815</name></trkpt>
<trkpt lat="52.097110" lon="05.645989"><ele>43.8</ele><time>2022-04-18T14:06:46Z</time><name>PT816</name></trkpt>
<trkpt lat="52.097099" lon="05.645987"><ele>43.7</ele><time>2022-04-18T14:06:48Z</time><name>PT817</name></trkpt>
<trkpt lat="52.097089" lon="05.645983"><ele>43.7</ele><time>2022-04-18T14:06:48Z</time><name>PT818</name></trkpt>
<trkpt lat="52.097078" lon="05.645978"><ele>43.5</ele><time>2022-04-18T14:06:49Z</time><name>PT819</name></trkpt>
<trkpt lat="52.097066" lon="05.645975"><ele>43.4</ele><time>2022-04-18T14:06:51Z</time><name>PT820</name></trkpt>
<trkpt lat="52.097056" lon="05.645972"><ele>43.4</ele><time>2022-04-18T14:06:51Z</time><name>PT821</name></trkpt>
<trkpt lat="52.097046" lon="05.645970"><ele>43.5</ele><time>2022-04-18T14:06:52Z</time><name>PT822</name></trkpt>
<trkpt lat="52.097037" lon="05.645968"><ele>43.6</ele><time>2022-04-18T14:06:53Z</time><name>PT823</name></trkpt>
<trkpt lat="52.097028" lon="05.645966"><ele>43.6</ele><time>2022-04-18T14:06:54Z</time><name>PT824</name></trkpt>
<trkpt lat="52.097018" lon="05.645964"><ele>43.7</ele><time>2022-04-18T14:06:55Z</time><name>PT825</name></trkpt>
<trkpt lat="52.097008" lon="05.645964"><ele>44</ele><time>2022-04-18T14:06:56Z</time><name>PT826</name></trkpt>
<trkpt lat="52.096998" lon="05.645963"><ele>44</ele><time>2022-04-18T14:06:57Z</time><name>PT827</name></trkpt>
<trkpt lat="52.096988" lon="05.645964"><ele>44.1</ele><time>2022-04-18T14:06:58Z</time><name>PT828</name></trkpt>
<trkpt lat="52.096978" lon="05.645966"><ele>44.1</ele><time>2022-04-18T14:07:00Z</time><name>PT829</name></trkpt>
<trkpt lat="52.096967" lon="05.645967"><ele>44.3</ele><time>2022-04-18T14:07:00Z</time><name>PT830</name></trkpt>
<trkpt lat="52.096957" lon="05.645967"><ele>44.3</ele><time>2022-04-18T14:07:01Z</time><name>PT831</name></trkpt>
<trkpt lat="52.096948" lon="05.645969"><ele>44.3</ele><time>2022-04-18T14:07:02Z</time><name>PT832</name></trkpt>
<trkpt lat="52.096938" lon="05.645972"><ele>44.2</ele><time>2022-04-18T14:07:03Z</time><name>PT833</name></trkpt>
<trkpt lat="52.096928" lon="05.645972"><ele>44</ele><time>2022-04-18T14:07:04Z</time><name>PT834</name></trkpt>
<trkpt lat="52.096919" lon="05.645970"><ele>44</ele><time>2022-04-18T14:07:05Z</time><name>PT835</name></trkpt>
<trkpt lat="52.096910" lon="05.645967"><ele>43.8</ele><time>2022-04-18T14:07:06Z</time><name>PT836</name></trkpt>
<trkpt lat="52.096902" lon="05.645967"><ele>43.4</ele><time>2022-04-18T14:07:07Z</time><name>PT837</name></trkpt>
<trkpt lat="52.096895" lon="05.645969"><ele>43.2</ele><time>2022-04-18T14:07:08Z</time><name>PT838</name></trkpt>
<trkpt lat="52.096888" lon="05.645973"><ele>43.3</ele><time>2022-04-18T14:07:09Z</time><name>PT839</name></trkpt>
<trkpt lat="52.096878" lon="05.645982"><ele>43.2</ele><time>2022-04-18T14:07:10Z</time><name>PT840</name></trkpt>
<trkpt lat="52.096869" lon="05.645992"><ele>43.4</ele><time>2022-04-18T14:07:12Z</time><name>PT841</name></trkpt>
<trkpt lat="52.096864" lon="05.646004"><ele>43.4</ele><time>2022-04-18T14:07:12Z</time><name>PT842</name></trkpt>
<trkpt lat="52.096859" lon="05.646018"><ele>43.3</ele><time>2022-04-18T14:07:13Z</time><name>PT843</name></trkpt>
<trkpt lat="52.096855" lon="05.646034"><ele>43.3</ele><time>2022-04-18T14:07:14Z</time><name>PT844</name></trkpt>
<trkpt lat="52.096851" lon="05.646048"><ele>43.2</ele><time>2022-04-18T14:07:15Z</time><name>PT845</name></trkpt>
<trkpt lat="52.096848" lon="05.646061"><ele>43.2</ele><time>2022-04-18T14:07:16Z</time><name>PT846</name></trkpt>
<trkpt lat="52.096843" lon="05.646077"><ele>43.3</ele><time>2022-04-18T14:07:17Z</time><name>PT847</name></trkpt>
<trkpt lat="52.096838" lon="05.646093"><ele>43.2</ele><time>2022-04-18T14:07:18Z</time><name>PT848</name></trkpt>
<trkpt lat="52.096834" lon="05.646108"><ele>43.5</ele><time>2022-04-18T14:07:19Z</time><name>PT849</name></trkpt>
<trkpt lat="52.096830" lon="05.646125"><ele>43.5</ele><time>2022-04-18T14:07:21Z</time><name>PT850</name></trkpt>
<trkpt lat="52.096830" lon="05.646142"><ele>43.5</ele><time>2022-04-18T14:07:21Z</time><name>PT851</name></trkpt>
<trkpt lat="52.096828" lon="05.646156"><ele>43.5</ele><time>2022-04-18T14:07:22Z</time><name>PT852</name></trkpt>
<trkpt lat="52.096824" lon="05.646171"><ele>43.5</ele><time>2022-04-18T14:07:24Z</time><name>PT853</name></trkpt>
<trkpt lat="52.096819" lon="05.646187"><ele>43.3</ele><time>2022-04-18T14:07:24Z</time><name>PT854</name></trkpt>
<trkpt lat="52.096814" lon="05.646203"><ele>43.2</ele><time>2022-04-18T14:07:25Z</time><name>PT855</name></trkpt>
<trkpt lat="52.096808" lon="05.646218"><ele>43.3</ele><time>2022-04-18T14:07:26Z</time><name>PT856</name></trkpt>
<trkpt lat="52.096803" lon="05.646235"><ele>43.2</ele><time>2022-04-18T14:07:27Z</time><name>PT857</name></trkpt>
<trkpt lat="52.096799" lon="05.646251"><ele>43.1</ele><time>2022-04-18T14:07:28Z</time><name>PT858</name></trkpt>
<trkpt lat="52.096796" lon="05.646266"><ele>43.2</ele><time>2022-04-18T14:07:29Z</time><name>PT859</name></trkpt>
<trkpt lat="52.096787" lon="05.646283"><ele>43.1</ele><time>2022-04-18T14:07:30Z</time><name>PT860</name></trkpt>
<trkpt lat="52.096780" lon="05.646295"><ele>43.1</ele><time>2022-04-18T14:07:31Z</time><name>PT861</name></trkpt>
<trkpt lat="52.096774" lon="05.646309"><ele>43</ele><time>2022-04-18T14:07:33Z</time><name>PT862</name></trkpt>
<trkpt lat="52.096767" lon="05.646322"><ele>43</ele><time>2022-04-18T14:07:33Z</time><name>PT863</name></trkpt>
<trkpt lat="52.096761" lon="05.646338"><ele>43</ele><time>2022-04-18T14:07:34Z</time><name>PT864</name></trkpt>
<trkpt lat="52.096756" lon="05.646353"><ele>42.8</ele><time>2022-04-18T14:07:36Z</time><name>PT865</name></trkpt>
<trkpt lat="52.096748" lon="05.646369"><ele>42.8</ele><time>2022-04-18T14:07:36Z</time><name>PT866</name></trkpt>
<trkpt lat="52.096741" lon="05.646374"><ele>42.8</ele><time>2022-04-18T14:07:37Z</time><name>PT867</name></trkpt>
<trkpt lat="52.096733" lon="05.646379"><ele>42.9</ele><time>2022-04-18T14:07:39Z</time><name>PT868</name></trkpt>
<trkpt lat="52.096725" lon="05.646387"><ele>42.9</ele><time>2022-04-18T14:07:39Z</time><name>PT869</name></trkpt>
<trkpt lat="52.096716" lon="05.646398"><ele>42.8</ele><time>2022-04-18T14:07:40Z</time><name>PT870</name></trkpt>
<trkpt lat="52.096709" lon="05.646407"><ele>42.7</ele><time>2022-04-18T14:07:41Z</time><name>PT871</name></trkpt>
<trkpt lat="52.096700" lon="05.646417"><ele>42.7</ele><time>2022-04-18T14:07:42Z</time><name>PT872</name></trkpt>
<trkpt lat="52.096689" lon="05.646427"><ele>42.7</ele><time>2022-04-18T14:07:43Z</time><name>PT873</name></trkpt>
<trkpt lat="52.096679" lon="05.646437"><ele>42.8</ele><time>2022-04-18T14:07:44Z</time><name>PT874</name></trkpt>
<trkpt lat="52.096673" lon="05.646443"><ele>42.7</ele><time>2022-04-18T14:07:45Z</time><name>PT875</name></trkpt>
<trkpt lat="52.096665" lon="05.646454"><ele>42.8</ele><time>2022-04-18T14:07:46Z</time><name>PT876</name></trkpt>
<trkpt lat="52.096656" lon="05.646467"><ele>42.9</ele><time>2022-04-18T14:07:47Z</time><name>PT877</name></trkpt>
<trkpt lat="52.096649" lon="05.646479"><ele>42.8</ele><time>2022-04-18T14:07:48Z</time><name>PT878</name></trkpt>
<trkpt lat="52.096641" lon="05.646488"><ele>42.9</ele><time>2022-04-18T14:07:49Z</time><name>PT879</name></trkpt>
<trkpt lat="52.096632" lon="05.646499"><ele>42.7</ele><time>2022-04-18T14:07:50Z</time><name>PT880</name></trkpt>
<trkpt lat="52.096622" lon="05.646510"><ele>42.6</ele><time>2022-04-18T14:07:51Z</time><name>PT881</name></trkpt>
<trkpt lat="52.096613" lon="05.646521"><ele>42.8</ele><time>2022-04-18T14:07:52Z</time><name>PT882</name></trkpt>
<trkpt lat="52.096606" lon="05.646531"><ele>42.8</ele><time>2022-04-18T14:07:53Z</time><name>PT883</name></trkpt>
<trkpt lat="52.096598" lon="05.646543"><ele>42.9</ele><time>2022-04-18T14:07:54Z</time><name>PT884</name></trkpt>
<trkpt lat="52.096590" lon="05.646552"><ele>42.9</ele><time>2022-04-18T14:07:55Z</time><name>PT885</name></trkpt>
<trkpt lat="52.096579" lon="05.646561"><ele>42.7</ele><time>2022-04-18T14:07:57Z</time><name>PT886</name></trkpt>
<trkpt lat="52.096569" lon="05.646568"><ele>42.8</ele><time>2022-04-18T14:07:57Z</time><name>PT887</name></trkpt>
<trkpt lat="52.096560" lon="05.646575"><ele>42.6</ele><time>2022-04-18T14:07:58Z</time><name>PT888</name></trkpt>
<trkpt lat="52.096551" lon="05.646583"><ele>42.6</ele><time>2022-04-18T14:07:59Z</time><name>PT889</name></trkpt>
<trkpt lat="52.096543" lon="05.646586"><ele>42.7</ele><time>2022-04-18T14:08:00Z</time><name>PT890</name></trkpt>
<trkpt lat="52.096533" lon="05.646590"><ele>42.5</ele><time>2022-04-18T14:08:01Z</time><name>PT891</name></trkpt>
<trkpt lat="52.096527" lon="05.646596"><ele>42.6</ele><time>2022-04-18T14:08:03Z</time><name>PT892</name></trkpt>
<trkpt lat="52.096518" lon="05.646601"><ele>42.4</ele><time>2022-04-18T14:08:03Z</time><name>PT893</name></trkpt>
<trkpt lat="52.096508" lon="05.646608"><ele>42.1</ele><time>2022-04-18T14:08:04Z</time><name>PT894</name></trkpt>
<trkpt lat="52.096500" lon="05.646614"><ele>42.2</ele><time>2022-04-18T14:08:05Z</time><name>PT895</name></trkpt>
<trkpt lat="52.096493" lon="05.646616"><ele>42.1</ele><time>2022-04-18T14:08:06Z</time><name>PT896</name></trkpt>
<trkpt lat="52.096484" lon="05.646622"><ele>41.9</ele><time>2022-04-18T14:08:07Z</time><name>PT897</name></trkpt>
<trkpt lat="52.096476" lon="05.646632"><ele>42</ele><time>2022-04-18T14:08:08Z</time><name>PT898</name></trkpt>
<trkpt lat="52.096469" lon="05.646636"><ele>41.9</ele><time>2022-04-18T14:08:09Z</time><name>PT899</name></trkpt>
<trkpt lat="52.096458" lon="05.646637"><ele>41.7</ele><time>2022-04-18T14:08:10Z</time><name>PT900</name></trkpt>
<trkpt lat="52.096446" lon="05.646638"><ele>41.6</ele><time>2022-04-18T14:08:11Z</time><name>PT901</name></trkpt>
<trkpt lat="52.096431" lon="05.646641"><ele>41.6</ele><time>2022-04-18T14:08:12Z</time><name>PT902</name></trkpt>
<trkpt lat="52.096421" lon="05.646640"><ele>41.4</ele><time>2022-04-18T14:08:13Z</time><name>PT903</name></trkpt>
<trkpt lat="52.096409" lon="05.646645"><ele>41.5</ele><time>2022-04-18T14:08:14Z</time><name>PT904</name></trkpt>
<trkpt lat="52.096399" lon="05.646647"><ele>41.4</ele><time>2022-04-18T14:08:15Z</time><name>PT905</name></trkpt>
<trkpt lat="52.096388" lon="05.646649"><ele>41.2</ele><time>2022-04-18T14:08:16Z</time><name>PT906</name></trkpt>
<trkpt lat="52.096379" lon="05.646648"><ele>41</ele><time>2022-04-18T14:08:17Z</time><name>PT907</name></trkpt>
<trkpt lat="52.096370" lon="05.646644"><ele>40.9</ele><time>2022-04-18T14:08:18Z</time><name>PT908</name></trkpt>
<trkpt lat="52.096358" lon="05.646640"><ele>40.6</ele><time>2022-04-18T14:08:19Z</time><name>PT909</name></trkpt>
<trkpt lat="52.096351" lon="05.646636"><ele>40.4</ele><time>2022-04-18T14:08:20Z</time><name>PT910</name></trkpt>
<trkpt lat="52.096340" lon="05.646632"><ele>40.4</ele><time>2022-04-18T14:08:21Z</time><name>PT911</name></trkpt>
<trkpt lat="52.096330" lon="05.646627"><ele>40.1</ele><time>2022-04-18T14:08:22Z</time><name>PT912</name></trkpt>
<trkpt lat="52.096320" lon="05.646621"><ele>40.1</ele><time>2022-04-18T14:08:23Z</time><name>PT913</name></trkpt>
<trkpt lat="52.096310" lon="05.646612"><ele>40.1</ele><time>2022-04-18T14:08:24Z</time><name>PT914</name></trkpt>
<trkpt lat="52.096301" lon="05.646602"><ele>40.1</ele><time>2022-04-18T14:08:25Z</time><name>PT915</name></trkpt>
<trkpt lat="52.096292" lon="05.646591"><ele>40.1</ele><time>2022-04-18T14:08:26Z</time><name>PT916</name></trkpt>
<trkpt lat="52.096283" lon="05.646581"><ele>40.1</ele><time>2022-04-18T14:08:27Z</time><name>PT917</name></trkpt>
<trkpt lat="52.096273" lon="05.646571"><ele>40.1</ele><time>2022-04-18T14:08:28Z</time><name>PT918</name></trkpt>
<trkpt lat="52.096265" lon="05.646561"><ele>39.9</ele><time>2022-04-18T14:08:29Z</time><name>PT919</name></trkpt>
<trkpt lat="52.096258" lon="05.646552"><ele>40</ele><time>2022-04-18T14:08:30Z</time><name>PT920</name></trkpt>
<trkpt lat="52.096255" lon="05.646544"><ele>39.9</ele><time>2022-04-18T14:08:31Z</time><name>PT921</name></trkpt>
<trkpt lat="52.096252" lon="05.646535"><ele>40.1</ele><time>2022-04-18T14:08:32Z</time><name>PT922</name></trkpt>
<trkpt lat="52.096245" lon="05.646520"><ele>40</ele><time>2022-04-18T14:08:33Z</time><name>PT923</name></trkpt>
<trkpt lat="52.096240" lon="05.646504"><ele>40.1</ele><time>2022-04-18T14:08:34Z</time><name>PT924</name></trkpt>
<trkpt lat="52.096235" lon="05.646486"><ele>40.4</ele><time>2022-04-18T14:08:35Z</time><name>PT925</name></trkpt>
<trkpt lat="52.096231" lon="05.646470"><ele>40.3</ele><time>2022-04-18T14:08:36Z</time><name>PT926</name></trkpt>
<trkpt lat="52.096228" lon="05.646453"><ele>40.3</ele><time>2022-04-18T14:08:37Z</time><name>PT927</name></trkpt>
<trkpt lat="52.096224" lon="05.646435"><ele>40.2</ele><time>2022-04-18T14:08:39Z</time><name>PT928</name></trkpt>
<trkpt lat="52.096216" lon="05.646417"><ele>40.1</ele><time>2022-04-18T14:08:39Z</time><name>PT929</name></trkpt>
<trkpt lat="52.096209" lon="05.646400"><ele>40.1</ele><time>2022-04-18T14:08:40Z</time><name>PT930</name></trkpt>
<trkpt lat="52.096203" lon="05.646384"><ele>40</ele><time>2022-04-18T14:08:41Z</time><name>PT931</name></trkpt>
<trkpt lat="52.096198" lon="05.646368"><ele>40</ele><time>2022-04-18T14:08:42Z</time><name>PT932</name></trkpt>
<trkpt lat="52.096189" lon="05.646353"><ele>39.8</ele><time>2022-04-18T14:08:43Z</time><name>PT933</name></trkpt>
<trkpt lat="52.096181" lon="05.646337"><ele>39.7</ele><time>2022-04-18T14:08:44Z</time><name>PT934</name></trkpt>
<trkpt lat="52.096177" lon="05.646322"><ele>39.5</ele><time>2022-04-18T14:08:45Z</time><name>PT935</name></trkpt>
<trkpt lat="52.096171" lon="05.646308"><ele>39.4</ele><time>2022-04-18T14:08:46Z</time><name>PT936</name></trkpt>
<trkpt lat="52.096163" lon="05.646294"><ele>39.4</ele><time>2022-04-18T14:08:47Z</time><name>PT937</name></trkpt>
<trkpt lat="52.096155" lon="05.646284"><ele>39.5</ele><time>2022-04-18T14:08:48Z</time><name>PT938</name></trkpt>
<trkpt lat="52.096148" lon="05.646272"><ele>39.7</ele><time>2022-04-18T14:08:49Z</time><name>PT939</name></trkpt>
<trkpt lat="52.096141" lon="05.646257"><ele>39.9</ele><time>2022-04-18T14:08:50Z</time><name>PT940</name></trkpt>
<trkpt lat="52.096134" lon="05.646246"><ele>39.9</ele><time>2022-04-18T14:08:51Z</time><name>PT941</name></trkpt>
<trkpt lat="52.096126" lon="05.646237"><ele>39.9</ele><time>2022-04-18T14:08:52Z</time><name>PT942</name></trkpt>
<trkpt lat="52.096117" lon="05.646224"><ele>39.9</ele><time>2022-04-18T14:08:54Z</time><name>PT943</name></trkpt>
<trkpt lat="52.096110" lon="05.646210"><ele>39.8</ele><time>2022-04-18T14:08:54Z</time><name>PT944</name></trkpt>
<trkpt lat="52.096104" lon="05.646197"><ele>39.8</ele><time>2022-04-18T14:08:55Z</time><name>PT945</name></trkpt>
<trkpt lat="52.096097" lon="05.646182"><ele>39.8</ele><time>2022-04-18T14:08:56Z</time><name>PT946</name></trkpt>
<trkpt lat="52.096091" lon="05.646168"><ele>39.9</ele><time>2022-04-18T14:08:57Z</time><name>PT947</name></trkpt>
<trkpt lat="52.096084" lon="05.646155"><ele>40.1</ele><time>2022-04-18T14:08:58Z</time><name>PT948</name></trkpt>
<trkpt lat="52.096074" lon="05.646146"><ele>40.1</ele><time>2022-04-18T14:08:59Z</time><name>PT949</name></trkpt>
<trkpt lat="52.096066" lon="05.646142"><ele>40.1</ele><time>2022-04-18T14:09:00Z</time><name>PT950</name></trkpt>
<trkpt lat="52.096062" lon="05.646139"><ele>39.9</ele><time>2022-04-18T14:09:01Z</time><name>PT951</name></trkpt>
<trkpt lat="52.096058" lon="05.646136"><ele>40</ele><time>2022-04-18T14:09:02Z</time><name>PT952</name></trkpt>
<trkpt lat="52.096055" lon="05.646137"><ele>39.9</ele><time>2022-04-18T14:09:03Z</time><name>PT953</name></trkpt>
<trkpt lat="52.096048" lon="05.646138"><ele>39.9</ele><time>2022-04-18T14:09:04Z</time><name>PT954</name></trkpt>
<trkpt lat="52.096046" lon="05.646140"><ele>40</ele><time>2022-04-18T14:09:05Z</time><name>PT955</name></trkpt>
<trkpt lat="52.096045" lon="05.646138"><ele>39.9</ele><time>2022-04-18T14:09:06Z</time><name>PT956</name></trkpt>
<trkpt lat="52.096045" lon="05.646136"><ele>40</ele><time>2022-04-18T14:09:07Z</time><name>PT957</name></trkpt>
<trkpt lat="52.096044" lon="05.646133"><ele>40</ele><time>2022-04-18T14:09:43Z</time><name>PT958</name></trkpt>
<trkpt lat="52.096043" lon="05.646120"><ele>40.1</ele><time>2022-04-18T14:09:44Z</time><name>PT959</name></trkpt>
<trkpt lat="52.096043" lon="05.646106"><ele>40.1</ele><time>2022-04-18T14:09:45Z</time><name>PT960</name></trkpt>
<trkpt lat="52.096042" lon="05.646091"><ele>40.2</ele><time>2022-04-18T14:09:46Z</time><name>PT961</name></trkpt>
<trkpt lat="52.096038" lon="05.646082"><ele>40.4</ele><time>2022-04-18T14:09:47Z</time><name>PT962</name></trkpt>
<trkpt lat="52.096034" lon="05.646064"><ele>40.4</ele><time>2022-04-18T14:09:48Z</time><name>PT963</name></trkpt>
<trkpt lat="52.096026" lon="05.646051"><ele>40.1</ele><time>2022-04-18T14:09:49Z</time><name>PT964</name></trkpt>
<trkpt lat="52.096017" lon="05.646043"><ele>40</ele><time>2022-04-18T14:09:50Z</time><name>PT965</name></trkpt>
<trkpt lat="52.096007" lon="05.646028"><ele>39.9</ele><time>2022-04-18T14:09:51Z</time><name>PT966</name></trkpt>
<trkpt lat="52.096000" lon="05.646020"><ele>40</ele><time>2022-04-18T14:09:52Z</time><name>PT967</name></trkpt>
<trkpt lat="52.095993" lon="05.646010"><ele>40.1</ele><time>2022-04-18T14:09:53Z</time><name>PT968</name></trkpt>
<trkpt lat="52.095989" lon="05.646000"><ele>40.1</ele><time>2022-04-18T14:09:54Z</time><name>PT969</name></trkpt>
<trkpt lat="52.095982" lon="05.645993"><ele>40.2</ele><time>2022-04-18T14:09:55Z</time><name>PT970</name></trkpt>
<trkpt lat="52.095977" lon="05.645983"><ele>40.2</ele><time>2022-04-18T14:09:56Z</time><name>PT971</name></trkpt>
<trkpt lat="52.095970" lon="05.645972"><ele>40.2</ele><time>2022-04-18T14:09:57Z</time><name>PT972</name></trkpt>
<trkpt lat="52.095964" lon="05.645962"><ele>40.1</ele><time>2022-04-18T14:09:58Z</time><name>PT973</name></trkpt>
<trkpt lat="52.095961" lon="05.645956"><ele>40.1</ele><time>2022-04-18T14:09:59Z</time><name>PT974</name></trkpt>
<trkpt lat="52.095957" lon="05.645951"><ele>40.1</ele><time>2022-04-18T14:10:00Z</time><name>PT975</name></trkpt>
<trkpt lat="52.095953" lon="05.645946"><ele>40.1</ele><time>2022-04-18T14:10:01Z</time><name>PT976</name></trkpt>
<trkpt lat="52.095948" lon="05.645942"><ele>40</ele><time>2022-04-18T14:10:02Z</time><name>PT977</name></trkpt>
<trkpt lat="52.095943" lon="05.645936"><ele>40.2</ele><time>2022-04-18T14:10:03Z</time><name>PT978</name></trkpt>
<trkpt lat="52.095939" lon="05.645929"><ele>40.1</ele><time>2022-04-18T14:10:04Z</time><name>PT979</name></trkpt>
<trkpt lat="52.095938" lon="05.645928"><ele>40.1</ele><time>2022-04-18T14:10:05Z</time><name>PT980</name></trkpt>
<trkpt lat="52.095938" lon="05.645928"><ele>40.1</ele><time>2022-04-18T14:10:06Z</time><name>PT981</name></trkpt>
<trkpt lat="52.095938" lon="05.645929"><ele>39.9</ele><time>2022-04-18T14:10:07Z</time><name>PT982</name></trkpt>
<trkpt lat="52.095930" lon="05.645917"><ele>40.4</ele><time>2022-04-18T14:10:20Z</time><name>PT983</name></trkpt>
<trkpt lat="52.095924" lon="05.645907"><ele>40.4</ele><time>2022-04-18T14:10:21Z</time><name>PT984</name></trkpt>
<trkpt lat="52.095919" lon="05.645902"><ele>40.1</ele><time>2022-04-18T14:10:23Z</time><name>PT985</name></trkpt>
<trkpt lat="52.095915" lon="05.645887"><ele>40.1</ele><time>2022-04-18T14:10:24Z</time><name>PT986</name></trkpt>
<trkpt lat="52.095907" lon="05.645882"><ele>39.9</ele><time>2022-04-18T14:10:25Z</time><name>PT987</name></trkpt>
<trkpt lat="52.095903" lon="05.645879"><ele>40</ele><time>2022-04-18T14:10:27Z</time><name>PT988</name></trkpt>
<trkpt lat="52.095898" lon="05.645876"><ele>39.9</ele><time>2022-04-18T14:10:27Z</time><name>PT989</name></trkpt>
<trkpt lat="52.095892" lon="05.645866"><ele>39.8</ele><time>2022-04-18T14:10:28Z</time><name>PT990</name></trkpt>
<trkpt lat="52.095886" lon="05.645855"><ele>39.9</ele><time>2022-04-18T14:10:30Z</time><name>PT991</name></trkpt>
<trkpt lat="52.095880" lon="05.645841"><ele>40.1</ele><time>2022-04-18T14:10:30Z</time><name>PT992</name></trkpt>
<trkpt lat="52.095875" lon="05.645827"><ele>40.1</ele><time>2022-04-18T14:10:31Z</time><name>PT993</name></trkpt>
<trkpt lat="52.095871" lon="05.645806"><ele>40.1</ele><time>2022-04-18T14:10:33Z</time><name>PT994</name></trkpt>
<trkpt lat="52.095867" lon="05.645791"><ele>40.2</ele><time>2022-04-18T14:10:33Z</time><name>PT995</name></trkpt>
<trkpt lat="52.095862" lon="05.645775"><ele>40.1</ele><time>2022-04-18T14:10:34Z</time><name>PT996</name></trkpt>
<trkpt lat="52.095858" lon="05.645761"><ele>40.3</ele><time>2022-04-18T14:10:35Z</time><name>PT997</name></trkpt>
<trkpt lat="52.095853" lon="05.645749"><ele>40.4</ele><time>2022-04-18T14:10:36Z</time><name>PT998</name></trkpt>
<trkpt lat="52.095851" lon="05.645736"><ele>40.4</ele><time>2022-04-18T14:10:37Z</time><name>PT999</name></trkpt>
<trkpt lat="52.095852" lon="05.645724"><ele>40.6</ele><time>2022-04-18T14:10:39Z</time><name>PT1000</name></trkpt>
<trkpt lat="52.095852" lon="05.645706"><ele>40.4</ele><time>2022-04-18T14:10:39Z</time><name>PT1001</name></trkpt>
<trkpt lat="52.095853" lon="05.645686"><ele>40.6</ele><time>2022-04-18T14:10:40Z</time><name>PT1002</name></trkpt>
<trkpt lat="52.095854" lon="05.645669"><ele>40.6</ele><time>2022-04-18T14:10:42Z</time><name>PT1003</name></trkpt>
<trkpt lat="52.095859" lon="05.645652"><ele>40.8</ele><time>2022-04-18T14:10:42Z</time><name>PT1004</name></trkpt>
<trkpt lat="52.095862" lon="05.645638"><ele>40.9</ele><time>2022-04-18T14:10:43Z</time><name>PT1005</name></trkpt>
<trkpt lat="52.095866" lon="05.645624"><ele>41.1</ele><time>2022-04-18T14:10:45Z</time><name>PT1006</name></trkpt>
<trkpt lat="52.095869" lon="05.645605"><ele>41.1</ele><time>2022-04-18T14:10:45Z</time><name>PT1007</name></trkpt>
<trkpt lat="52.095873" lon="05.645586"><ele>41.3</ele><time>2022-04-18T14:10:46Z</time><name>PT1008</name></trkpt>
<trkpt lat="52.095876" lon="05.645570"><ele>41.4</ele><time>2022-04-18T14:10:47Z</time><name>PT1009</name></trkpt>
<trkpt lat="52.095881" lon="05.645557"><ele>41.4</ele><time>2022-04-18T14:10:48Z</time><name>PT1010</name></trkpt>
<trkpt lat="52.095885" lon="05.645541"><ele>41.6</ele><time>2022-04-18T14:10:49Z</time><name>PT1011</name></trkpt>
<trkpt lat="52.095890" lon="05.645525"><ele>41.7</ele><time>2022-04-18T14:10:50Z</time><name>PT1012</name></trkpt>
<trkpt lat="52.095897" lon="05.645507"><ele>41.9</ele><time>2022-04-18T14:10:51Z</time><name>PT1013</name></trkpt>
<trkpt lat="52.095903" lon="05.645491"><ele>41.9</ele><time>2022-04-18T14:10:52Z</time><name>PT1014</name></trkpt>
<trkpt lat="52.095907" lon="05.645478"><ele>42.1</ele><time>2022-04-18T14:10:53Z</time><name>PT1015</name></trkpt>
<trkpt lat="52.095913" lon="05.645465"><ele>42.1</ele><time>2022-04-18T14:10:54Z</time><name>PT1016</name></trkpt>
<trkpt lat="52.095921" lon="05.645456"><ele>42.1</ele><time>2022-04-18T14:10:55Z</time><name>PT1017</name></trkpt>
<trkpt lat="52.095925" lon="05.645444"><ele>42.2</ele><time>2022-04-18T14:10:56Z</time><name>PT1018</name></trkpt>
<trkpt lat="52.095932" lon="05.645432"><ele>42.1</ele><time>2022-04-18T14:10:57Z</time><name>PT1019</name></trkpt>
<trkpt lat="52.095940" lon="05.645420"><ele>42.1</ele><time>2022-04-18T14:10:58Z</time><name>PT1020</name></trkpt>
<trkpt lat="52.095946" lon="05.645410"><ele>42.1</ele><time>2022-04-18T14:10:59Z</time><name>PT1021</name></trkpt>
<trkpt lat="52.095952" lon="05.645398"><ele>42.2</ele><time>2022-04-18T14:11:00Z</time><name>PT1022</name></trkpt>
<trkpt lat="52.095960" lon="05.645386"><ele>42.2</ele><time>2022-04-18T14:11:01Z</time><name>PT1023</name></trkpt>
<trkpt lat="52.095966" lon="05.645375"><ele>42.1</ele><time>2022-04-18T14:11:03Z</time><name>PT1024</name></trkpt>
<trkpt lat="52.095972" lon="05.645363"><ele>42.1</ele><time>2022-04-18T14:11:03Z</time><name>PT1025</name></trkpt>
<trkpt lat="52.095980" lon="05.645348"><ele>42.2</ele><time>2022-04-18T14:11:04Z</time><name>PT1026</name></trkpt>
<trkpt lat="52.095985" lon="05.645335"><ele>42.2</ele><time>2022-04-18T14:11:05Z</time><name>PT1027</name></trkpt>
<trkpt lat="52.095992" lon="05.645324"><ele>42.4</ele><time>2022-04-18T14:11:06Z</time><name>PT1028</name></trkpt>
<trkpt lat="52.095999" lon="05.645312"><ele>42.4</ele><time>2022-04-18T14:11:07Z</time><name>PT1029</name></trkpt>
<trkpt lat="52.096006" lon="05.645301"><ele>42.3</ele><time>2022-04-18T14:11:09Z</time><name>PT1030</name></trkpt>
<trkpt lat="52.096014" lon="05.645294"><ele>42.3</ele><time>2022-04-18T14:11:09Z</time><name>PT1031</name></trkpt>
<trkpt lat="52.096023" lon="05.645287"><ele>42.4</ele><time>2022-04-18T14:11:10Z</time><name>PT1032</name></trkpt>
<trkpt lat="52.096031" lon="05.645280"><ele>42.5</ele><time>2022-04-18T14:11:12Z</time><name>PT1033</name></trkpt>
<trkpt lat="52.096038" lon="05.645270"><ele>42.6</ele><time>2022-04-18T14:11:12Z</time><name>PT1034</name></trkpt>
<trkpt lat="52.096045" lon="05.645261"><ele>42.6</ele><time>2022-04-18T14:11:13Z</time><name>PT1035</name></trkpt>
<trkpt lat="52.096054" lon="05.645253"><ele>42.5</ele><time>2022-04-18T14:11:15Z</time><name>PT1036</name></trkpt>
<trkpt lat="52.096063" lon="05.645247"><ele>42.3</ele><time>2022-04-18T14:11:15Z</time><name>PT1037</name></trkpt>
<trkpt lat="52.096071" lon="05.645241"><ele>42.5</ele><time>2022-04-18T14:11:16Z</time><name>PT1038</name></trkpt>
<trkpt lat="52.096080" lon="05.645230"><ele>42.5</ele><time>2022-04-18T14:11:17Z</time><name>PT1039</name></trkpt>
<trkpt lat="52.096088" lon="05.645218"><ele>42.6</ele><time>2022-04-18T14:11:18Z</time><name>PT1040</name></trkpt>
<trkpt lat="52.096096" lon="05.645211"><ele>42.7</ele><time>2022-04-18T14:11:19Z</time><name>PT1041</name></trkpt>
<trkpt lat="52.096105" lon="05.645202"><ele>42.8</ele><time>2022-04-18T14:11:20Z</time><name>PT1042</name></trkpt>
<trkpt lat="52.096115" lon="05.645195"><ele>42.8</ele><time>2022-04-18T14:11:21Z</time><name>PT1043</name></trkpt>
<trkpt lat="52.096124" lon="05.645188"><ele>42.9</ele><time>2022-04-18T14:11:22Z</time><name>PT1044</name></trkpt>
<trkpt lat="52.096133" lon="05.645178"><ele>42.8</ele><time>2022-04-18T14:11:24Z</time><name>PT1045</name></trkpt>
<trkpt lat="52.096144" lon="05.645169"><ele>42.8</ele><time>2022-04-18T14:11:24Z</time><name>PT1046</name></trkpt>
<trkpt lat="52.096154" lon="05.645163"><ele>42.6</ele><time>2022-04-18T14:11:25Z</time><name>PT1047</name></trkpt>
<trkpt lat="52.096163" lon="05.645156"><ele>42.5</ele><time>2022-04-18T14:11:26Z</time><name>PT1048</name></trkpt>
<trkpt lat="52.096174" lon="05.645150"><ele>42.6</ele><time>2022-04-18T14:11:27Z</time><name>PT1049</name></trkpt>
<trkpt lat="52.096182" lon="05.645144"><ele>42.7</ele><time>2022-04-18T14:11:28Z</time><name>PT1050</name></trkpt>
<trkpt lat="52.096189" lon="05.645139"><ele>43</ele><time>2022-04-18T14:11:30Z</time><name>PT1051</name></trkpt>
<trkpt lat="52.096197" lon="05.645133"><ele>43.2</ele><time>2022-04-18T14:11:30Z</time><name>PT1052</name></trkpt>
<trkpt lat="52.096210" lon="05.645126"><ele>43.4</ele><time>2022-04-18T14:11:31Z</time><name>PT1053</name></trkpt>
<trkpt lat="52.096223" lon="05.645123"><ele>43.3</ele><time>2022-04-18T14:11:32Z</time><name>PT1054</name></trkpt>
<trkpt lat="52.096237" lon="05.645122"><ele>43.3</ele><time>2022-04-18T14:11:33Z</time><name>PT1055</name></trkpt>
<trkpt lat="52.096250" lon="05.645116"><ele>43.2</ele><time>2022-04-18T14:11:34Z</time><name>PT1056</name></trkpt>
<trkpt lat="52.096264" lon="05.645114"><ele>43.1</ele><time>2022-04-18T14:11:35Z</time><name>PT1057</name></trkpt>
<trkpt lat="52.096274" lon="05.645111"><ele>43</ele><time>2022-04-18T14:11:36Z</time><name>PT1058</name></trkpt>
<trkpt lat="52.096286" lon="05.645107"><ele>43</ele><time>2022-04-18T14:11:37Z</time><name>PT1059</name></trkpt>
<trkpt lat="52.096297" lon="05.645104"><ele>43</ele><time>2022-04-18T14:11:38Z</time><name>PT1060</name></trkpt>
<trkpt lat="52.096308" lon="05.645102"><ele>43</ele><time>2022-04-18T14:11:39Z</time><name>PT1061</name></trkpt>
<trkpt lat="52.096319" lon="05.645103"><ele>43</ele><time>2022-04-18T14:11:40Z</time><name>PT1062</name></trkpt>
<trkpt lat="52.096329" lon="05.645102"><ele>43.1</ele><time>2022-04-18T14:11:42Z</time><name>PT1063</name></trkpt>
<trkpt lat="52.096338" lon="05.645101"><ele>43</ele><time>2022-04-18T14:11:42Z</time><name>PT1064</name></trkpt>
<trkpt lat="52.096349" lon="05.645098"><ele>43.3</ele><time>2022-04-18T14:11:43Z</time><name>PT1065</name></trkpt>
<trkpt lat="52.096360" lon="05.645095"><ele>43.2</ele><time>2022-04-18T14:11:44Z</time><name>PT1066</name></trkpt>
<trkpt lat="52.096371" lon="05.645092"><ele>43</ele><time>2022-04-18T14:11:45Z</time><name>PT1067</name></trkpt>
<trkpt lat="52.096382" lon="05.645092"><ele>43.1</ele><time>2022-04-18T14:11:46Z</time><name>PT1068</name></trkpt>
<trkpt lat="52.096392" lon="05.645094"><ele>43</ele><time>2022-04-18T14:11:48Z</time><name>PT1069</name></trkpt>
<trkpt lat="52.096402" lon="05.645096"><ele>42.8</ele><time>2022-04-18T14:11:48Z</time><name>PT1070</name></trkpt>
<trkpt lat="52.096414" lon="05.645095"><ele>42.9</ele><time>2022-04-18T14:11:49Z</time><name>PT1071</name></trkpt>
<trkpt lat="52.096424" lon="05.645094"><ele>43</ele><time>2022-04-18T14:11:50Z</time><name>PT1072</name></trkpt>
<trkpt lat="52.096435" lon="05.645093"><ele>43</ele><time>2022-04-18T14:11:51Z</time><name>PT1073</name></trkpt>
<trkpt lat="52.096445" lon="05.645093"><ele>43.2</ele><time>2022-04-18T14:11:52Z</time><name>PT1074</name></trkpt>
<trkpt lat="52.096454" lon="05.645097"><ele>43.1</ele><time>2022-04-18T14:11:53Z</time><name>PT1075</name></trkpt>
<trkpt lat="52.096463" lon="05.645102"><ele>43</ele><time>2022-04-18T14:11:54Z</time><name>PT1076</name></trkpt>
<trkpt lat="52.096473" lon="05.645104"><ele>43</ele><time>2022-04-18T14:11:55Z</time><name>PT1077</name></trkpt>
<trkpt lat="52.096484" lon="05.645104"><ele>43</ele><time>2022-04-18T14:11:56Z</time><name>PT1078</name></trkpt>
<trkpt lat="52.096494" lon="05.645105"><ele>43</ele><time>2022-04-18T14:11:57Z</time><name>PT1079</name></trkpt>
<trkpt lat="52.096505" lon="05.645107"><ele>43.1</ele><time>2022-04-18T14:11:58Z</time><name>PT1080</name></trkpt>
<trkpt lat="52.096515" lon="05.645109"><ele>43</ele><time>2022-04-18T14:11:59Z</time><name>PT1081</name></trkpt>
<trkpt lat="52.096525" lon="05.645111"><ele>43</ele><time>2022-04-18T14:12:00Z</time><name>PT1082</name></trkpt>
<trkpt lat="52.096534" lon="05.645114"><ele>42.9</ele><time>2022-04-18T14:12:01Z</time><name>PT1083</name></trkpt>
<trkpt lat="52.096545" lon="05.645119"><ele>43</ele><time>2022-04-18T14:12:02Z</time><name>PT1084</name></trkpt>
<trkpt lat="52.096556" lon="05.645127"><ele>43</ele><time>2022-04-18T14:12:03Z</time><name>PT1085</name></trkpt>
<trkpt lat="52.096566" lon="05.645134"><ele>43</ele><time>2022-04-18T14:12:04Z</time><name>PT1086</name></trkpt>
<trkpt lat="52.096575" lon="05.645140"><ele>43</ele><time>2022-04-18T14:12:05Z</time><name>PT1087</name></trkpt>
<trkpt lat="52.096584" lon="05.645145"><ele>43</ele><time>2022-04-18T14:12:06Z</time><name>PT1088</name></trkpt>
<trkpt lat="52.096593" lon="05.645154"><ele>42.8</ele><time>2022-04-18T14:12:07Z</time><name>PT1089</name></trkpt>
<trkpt lat="52.096606" lon="05.645160"><ele>42.7</ele><time>2022-04-18T14:12:08Z</time><name>PT1090</name></trkpt>
<trkpt lat="52.096610" lon="05.645161"><ele>42.6</ele><time>2022-04-18T14:12:09Z</time><name>PT1091</name></trkpt>
<trkpt lat="52.096610" lon="05.645160"><ele>42.5</ele><time>2022-04-18T14:12:10Z</time><name>PT1092</name></trkpt>
<trkpt lat="52.096611" lon="05.645162"><ele>42.4</ele><time>2022-04-18T14:12:11Z</time><name>PT1093</name></trkpt>
<trkpt lat="52.096614" lon="05.645165"><ele>42.6</ele><time>2022-04-18T14:12:12Z</time><name>PT1094</name></trkpt>
<trkpt lat="52.096623" lon="05.645176"><ele>42.6</ele><time>2022-04-18T14:12:13Z</time><name>PT1095</name></trkpt>
<trkpt lat="52.096635" lon="05.645186"><ele>42.7</ele><time>2022-04-18T14:12:15Z</time><name>PT1096</name></trkpt>
<trkpt lat="52.096645" lon="05.645194"><ele>42.7</ele><time>2022-04-18T14:12:15Z</time><name>PT1097</name></trkpt>
<trkpt lat="52.096653" lon="05.645199"><ele>42.8</ele><time>2022-04-18T14:12:16Z</time><name>PT1098</name></trkpt>
<trkpt lat="52.096660" lon="05.645205"><ele>42.6</ele><time>2022-04-18T14:12:17Z</time><name>PT1099</name></trkpt>
<trkpt lat="52.096668" lon="05.645212"><ele>42.6</ele><time>2022-04-18T14:12:18Z</time><name>PT1100</name></trkpt>
<trkpt lat="52.096683" lon="05.645227"><ele>42.6</ele><time>2022-04-18T14:12:19Z</time><name>PT1101</name></trkpt>
<trkpt lat="52.096698" lon="05.645242"><ele>42.6</ele><time>2022-04-18T14:12:20Z</time><name>PT1102</name></trkpt>
<trkpt lat="52.096710" lon="05.645255"><ele>42.6</ele><time>2022-04-18T14:12:21Z</time><name>PT1103</name></trkpt>
<trkpt lat="52.096718" lon="05.645265"><ele>42.6</ele><time>2022-04-18T14:12:22Z</time><name>PT1104</name></trkpt>
<trkpt lat="52.096726" lon="05.645272"><ele>42.7</ele><time>2022-04-18T14:12:23Z</time><name>PT1105</name></trkpt>
<trkpt lat="52.096731" lon="05.645279"><ele>42.6</ele><time>2022-04-18T14:12:24Z</time><name>PT1106</name></trkpt>
<trkpt lat="52.096739" lon="05.645289"><ele>42.7</ele><time>2022-04-18T14:12:25Z</time><name>PT1107</name></trkpt>
<trkpt lat="52.096750" lon="05.645299"><ele>42.7</ele><time>2022-04-18T14:12:27Z</time><name>PT1108</name></trkpt>
<trkpt lat="52.096758" lon="05.645310"><ele>42.6</ele><time>2022-04-18T14:12:27Z</time><name>PT1109</name></trkpt>
<trkpt lat="52.096765" lon="05.645316"><ele>42.6</ele><time>2022-04-18T14:12:28Z</time><name>PT1110</name></trkpt>
<trkpt lat="52.096774" lon="05.645317"><ele>42.6</ele><time>2022-04-18T14:12:29Z</time><name>PT1111</name></trkpt>
<trkpt lat="52.096782" lon="05.645314"><ele>42.6</ele><time>2022-04-18T14:12:30Z</time><name>PT1112</name></trkpt>
<trkpt lat="52.096795" lon="05.645311"><ele>42.6</ele><time>2022-04-18T14:12:31Z</time><name>PT1113</name></trkpt>
<trkpt lat="52.096808" lon="05.645310"><ele>42.6</ele><time>2022-04-18T14:12:32Z</time><name>PT1114</name></trkpt>
<trkpt lat="52.096814" lon="05.645311"><ele>42.6</ele><time>2022-04-18T14:12:33Z</time><name>PT1115</name></trkpt>
<trkpt lat="52.096820" lon="05.645309"><ele>42.4</ele><time>2022-04-18T14:12:34Z</time><name>PT1116</name></trkpt>
<trkpt lat="52.096825" lon="05.645307"><ele>42.5</ele><time>2022-04-18T14:12:35Z</time><name>PT1117</name></trkpt>
<trkpt lat="52.096832" lon="05.645298"><ele>42.3</ele><time>2022-04-18T14:12:36Z</time><name>PT1118</name></trkpt>
<trkpt lat="52.096838" lon="05.645286"><ele>42.2</ele><time>2022-04-18T14:12:37Z</time><name>PT1119</name></trkpt>
<trkpt lat="52.096846" lon="05.645270"><ele>42.3</ele><time>2022-04-18T14:12:39Z</time><name>PT1120</name></trkpt>
<trkpt lat="52.096855" lon="05.645256"><ele>42.3</ele><time>2022-04-18T14:12:39Z</time><name>PT1121</name></trkpt>
<trkpt lat="52.096861" lon="05.645245"><ele>42.2</ele><time>2022-04-18T14:12:40Z</time><name>PT1122</name></trkpt>
<trkpt lat="52.096866" lon="05.645234"><ele>42.4</ele><time>2022-04-18T14:12:41Z</time><name>PT1123</name></trkpt>
<trkpt lat="52.096870" lon="05.645227"><ele>42.6</ele><time>2022-04-18T14:12:42Z</time><name>PT1124</name></trkpt>
<trkpt lat="52.096869" lon="05.645218"><ele>42.4</ele><time>2022-04-18T14:12:43Z</time><name>PT1125</name></trkpt>
<trkpt lat="52.096873" lon="05.645205"><ele>42.5</ele><time>2022-04-18T14:12:44Z</time><name>PT1126</name></trkpt>
<trkpt lat="52.096878" lon="05.645195"><ele>42.4</ele><time>2022-04-18T14:12:45Z</time><name>PT1127</name></trkpt>
<trkpt lat="52.096882" lon="05.645189"><ele>42.3</ele><time>2022-04-18T14:12:46Z</time><name>PT1128</name></trkpt>
<trkpt lat="52.096885" lon="05.645182"><ele>42.2</ele><time>2022-04-18T14:12:47Z</time><name>PT1129</name></trkpt>
<trkpt lat="52.096889" lon="05.645171"><ele>42.5</ele><time>2022-04-18T14:12:48Z</time><name>PT1130</name></trkpt>
<trkpt lat="52.096898" lon="05.645154"><ele>42.2</ele><time>2022-04-18T14:12:49Z</time><name>PT1131</name></trkpt>
<trkpt lat="52.096907" lon="05.645133"><ele>42.1</ele><time>2022-04-18T14:12:51Z</time><name>PT1132</name></trkpt>
<trkpt lat="52.096917" lon="05.645114"><ele>42</ele><time>2022-04-18T14:12:51Z</time><name>PT1133</name></trkpt>
<trkpt lat="52.096925" lon="05.645100"><ele>41.6</ele><time>2022-04-18T14:12:52Z</time><name>PT1134</name></trkpt>
<trkpt lat="52.096929" lon="05.645095"><ele>41.3</ele><time>2022-04-18T14:12:53Z</time><name>PT1135</name></trkpt>
<trkpt lat="52.096931" lon="05.645091"><ele>41.2</ele><time>2022-04-18T14:12:54Z</time><name>PT1136</name></trkpt>
<trkpt lat="52.096931" lon="05.645085"><ele>41.2</ele><time>2022-04-18T14:12:55Z</time><name>PT1137</name></trkpt>
<trkpt lat="52.096935" lon="05.645077"><ele>41</ele><time>2022-04-18T14:12:56Z</time><name>PT1138</name></trkpt>
<trkpt lat="52.096945" lon="05.645060"><ele>41.1</ele><time>2022-04-18T14:12:57Z</time><name>PT1139</name></trkpt>
<trkpt lat="52.096956" lon="05.645038"><ele>41</ele><time>2022-04-18T14:12:58Z</time><name>PT1140</name></trkpt>
<trkpt lat="52.096969" lon="05.645024"><ele>40.8</ele><time>2022-04-18T14:12:59Z</time><name>PT1141</name></trkpt>
<trkpt lat="52.096983" lon="05.645009"><ele>40.7</ele><time>2022-04-18T14:13:00Z</time><name>PT1142</name></trkpt>
<trkpt lat="52.096994" lon="05.644995"><ele>40.6</ele><time>2022-04-18T14:13:01Z</time><name>PT1143</name></trkpt>
<trkpt lat="52.096996" lon="05.644982"><ele>40.4</ele><time>2022-04-18T14:13:02Z</time><name>PT1144</name></trkpt>
<trkpt lat="52.097000" lon="05.644975"><ele>40.5</ele><time>2022-04-18T14:13:03Z</time><name>PT1145</name></trkpt>
<trkpt lat="52.097002" lon="05.644969"><ele>40.4</ele><time>2022-04-18T14:13:04Z</time><name>PT1146</name></trkpt>
<trkpt lat="52.097010" lon="05.644957"><ele>40.5</ele><time>2022-04-18T14:13:05Z</time><name>PT1147</name></trkpt>
<trkpt lat="52.097025" lon="05.644942"><ele>40.6</ele><time>2022-04-18T14:13:06Z</time><name>PT1148</name></trkpt>
<trkpt lat="52.097038" lon="05.644924"><ele>40.6</ele><time>2022-04-18T14:13:07Z</time><name>PT1149</name></trkpt>
<trkpt lat="52.097049" lon="05.644907"><ele>40.6</ele><time>2022-04-18T14:13:08Z</time><name>PT1150</name></trkpt>
<trkpt lat="52.097059" lon="05.644895"><ele>40.7</ele><time>2022-04-18T14:13:09Z</time><name>PT1151</name></trkpt>
<trkpt lat="52.097062" lon="05.644886"><ele>40.6</ele><time>2022-04-18T14:13:10Z</time><name>PT1152</name></trkpt>
<trkpt lat="52.097065" lon="05.644876"><ele>40.5</ele><time>2022-04-18T14:13:11Z</time><name>PT1153</name></trkpt>
<trkpt lat="52.097070" lon="05.644865"><ele>40.5</ele><time>2022-04-18T14:13:12Z</time><name>PT1154</name></trkpt>
<trkpt lat="52.097082" lon="05.644849"><ele>40.2</ele><time>2022-04-18T14:13:13Z</time><name>PT1155</name></trkpt>
<trkpt lat="52.097097" lon="05.644832"><ele>40.1</ele><time>2022-04-18T14:13:14Z</time><name>PT1156</name></trkpt>
<trkpt lat="52.097106" lon="05.644820"><ele>40.1</ele><time>2022-04-18T14:13:15Z</time><name>PT1157</name></trkpt>
<trkpt lat="52.097115" lon="05.644809"><ele>40.2</ele><time>2022-04-18T14:13:16Z</time><name>PT1158</name></trkpt>
<trkpt lat="52.097120" lon="05.644799"><ele>40.1</ele><time>2022-04-18T14:13:18Z</time><name>PT1159</name></trkpt>
<trkpt lat="52.097126" lon="05.644790"><ele>40.1</ele><time>2022-04-18T14:13:18Z</time><name>PT1160</name></trkpt>
<trkpt lat="52.097135" lon="05.644776"><ele>40.1</ele><time>2022-04-18T14:13:19Z</time><name>PT1161</name></trkpt>
<trkpt lat="52.097146" lon="05.644762"><ele>40.1</ele><time>2022-04-18T14:13:20Z</time><name>PT1162</name></trkpt>
<trkpt lat="52.097157" lon="05.644750"><ele>40.1</ele><time>2022-04-18T14:13:21Z</time><name>PT1163</name></trkpt>
<trkpt lat="52.097164" lon="05.644741"><ele>40.1</ele><time>2022-04-18T14:13:22Z</time><name>PT1164</name></trkpt>
<trkpt lat="52.097168" lon="05.644731"><ele>39.9</ele><time>2022-04-18T14:13:23Z</time><name>PT1165</name></trkpt>
<trkpt lat="52.097177" lon="05.644722"><ele>39.9</ele><time>2022-04-18T14:13:24Z</time><name>PT1166</name></trkpt>
<trkpt lat="52.097188" lon="05.644709"><ele>39.8</ele><time>2022-04-18T14:13:25Z</time><name>PT1167</name></trkpt>
<trkpt lat="52.097201" lon="05.644695"><ele>39.8</ele><time>2022-04-18T14:13:26Z</time><name>PT1168</name></trkpt>
<trkpt lat="52.097212" lon="05.644682"><ele>39.9</ele><time>2022-04-18T14:13:27Z</time><name>PT1169</name></trkpt>
<trkpt lat="52.097221" lon="05.644674"><ele>39.8</ele><time>2022-04-18T14:13:28Z</time><name>PT1170</name></trkpt>
<trkpt lat="52.097227" lon="05.644669"><ele>39.8</ele><time>2022-04-18T14:13:30Z</time><name>PT1171</name></trkpt>
<trkpt lat="52.097229" lon="05.644661"><ele>39.7</ele><time>2022-04-18T14:13:30Z</time><name>PT1172</name></trkpt>
<trkpt lat="52.097234" lon="05.644648"><ele>39.7</ele><time>2022-04-18T14:13:31Z</time><name>PT1173</name></trkpt>
<trkpt lat="52.097241" lon="05.644637"><ele>39.5</ele><time>2022-04-18T14:13:32Z</time><name>PT1174</name></trkpt>
<trkpt lat="52.097246" lon="05.644630"><ele>39.5</ele><time>2022-04-18T14:13:33Z</time><name>PT1175</name></trkpt>
<trkpt lat="52.097249" lon="05.644621"><ele>39.5</ele><time>2022-04-18T14:13:34Z</time><name>PT1176</name></trkpt>
<trkpt lat="52.097255" lon="05.644609"><ele>39.5</ele><time>2022-04-18T14:13:35Z</time><name>PT1177</name></trkpt>
<trkpt lat="52.097266" lon="05.644595"><ele>39.6</ele><time>2022-04-18T14:13:36Z</time><name>PT1178</name></trkpt>
<trkpt lat="52.097281" lon="05.644579"><ele>39.7</ele><time>2022-04-18T14:13:37Z</time><name>PT1179</name></trkpt>
<trkpt lat="52.097292" lon="05.644566"><ele>39.7</ele><time>2022-04-18T14:13:38Z</time><name>PT1180</name></trkpt>
<trkpt lat="52.097298" lon="05.644555"><ele>39.7</ele><time>2022-04-18T14:13:39Z</time><name>PT1181</name></trkpt>
<trkpt lat="52.097303" lon="05.644546"><ele>39.5</ele><time>2022-04-18T14:13:40Z</time><name>PT1182</name></trkpt>
<trkpt lat="52.097308" lon="05.644536"><ele>39.6</ele><time>2022-04-18T14:13:42Z</time><name>PT1183</name></trkpt>
<trkpt lat="52.097317" lon="05.644524"><ele>39.5</ele><time>2022-04-18T14:13:42Z</time><name>PT1184</name></trkpt>
<trkpt lat="52.097326" lon="05.644506"><ele>39.5</ele><time>2022-04-18T14:13:43Z</time><name>PT1185</name></trkpt>
<trkpt lat="52.097335" lon="05.644489"><ele>39.6</ele><time>2022-04-18T14:13:44Z</time><name>PT1186</name></trkpt>
<trkpt lat="52.097343" lon="05.644478"><ele>39.5</ele><time>2022-04-18T14:13:45Z</time><name>PT1187</name></trkpt>
<trkpt lat="52.097348" lon="05.644468"><ele>39.4</ele><time>2022-04-18T14:13:46Z</time><name>PT1188</name></trkpt>
<trkpt lat="52.097354" lon="05.644462"><ele>39.5</ele><time>2022-04-18T14:13:47Z</time><name>PT1189</name></trkpt>
<trkpt lat="52.097361" lon="05.644452"><ele>39.6</ele><time>2022-04-18T14:13:48Z</time><name>PT1190</name></trkpt>
<trkpt lat="52.097371" lon="05.644439"><ele>39.5</ele><time>2022-04-18T14:13:49Z</time><name>PT1191</name></trkpt>
<trkpt lat="52.097380" lon="05.644429"><ele>39.4</ele><time>2022-04-18T14:13:50Z</time><name>PT1192</name></trkpt>
<trkpt lat="52.097387" lon="05.644423"><ele>39.3</ele><time>2022-04-18T14:13:51Z</time><name>PT1193</name></trkpt>
<trkpt lat="52.097393" lon="05.644416"><ele>39.2</ele><time>2022-04-18T14:13:52Z</time><name>PT1194</name></trkpt>
<trkpt lat="52.097400" lon="05.644408"><ele>39.2</ele><time>2022-04-18T14:13:54Z</time><name>PT1195</name></trkpt>
<trkpt lat="52.097408" lon="05.644393"><ele>39.2</ele><time>2022-04-18T14:13:54Z</time><name>PT1196</name></trkpt>
<trkpt lat="52.097418" lon="05.644376"><ele>39.2</ele><time>2022-04-18T14:13:55Z</time><name>PT1197</name></trkpt>
<trkpt lat="52.097429" lon="05.644363"><ele>39.2</ele><time>2022-04-18T14:13:56Z</time><name>PT1198</name></trkpt>
<trkpt lat="52.097437" lon="05.644351"><ele>39.2</ele><time>2022-04-18T14:13:57Z</time><name>PT1199</name></trkpt>
<trkpt lat="52.097440" lon="05.644340"><ele>39.3</ele><time>2022-04-18T14:13:58Z</time><name>PT1200</name></trkpt>
<trkpt lat="52.097442" lon="05.644331"><ele>39.3</ele><time>2022-04-18T14:13:59Z</time><name>PT1201</name></trkpt>
<trkpt lat="52.097448" lon="05.644319"><ele>39.2</ele><time>2022-04-18T14:14:00Z</time><name>PT1202</name></trkpt>
<trkpt lat="52.097461" lon="05.644308"><ele>39.3</ele><time>2022-04-18T14:14:01Z</time><name>PT1203</name></trkpt>
<trkpt lat="52.097470" lon="05.644296"><ele>39.2</ele><time>2022-04-18T14:14:02Z</time><name>PT1204</name></trkpt>
<trkpt lat="52.097476" lon="05.644285"><ele>39.2</ele><time>2022-04-18T14:14:03Z</time><name>PT1205</name></trkpt>
<trkpt lat="52.097481" lon="05.644274"><ele>39.2</ele><time>2022-04-18T14:14:04Z</time><name>PT1206</name></trkpt>
<trkpt lat="52.097488" lon="05.644261"><ele>38.7</ele><time>2022-04-18T14:14:05Z</time><name>PT1207</name></trkpt>
<trkpt lat="52.097499" lon="05.644248"><ele>38.6</ele><time>2022-04-18T14:14:06Z</time><name>PT1208</name></trkpt>
<trkpt lat="52.097509" lon="05.644235"><ele>38.6</ele><time>2022-04-18T14:14:07Z</time><name>PT1209</name></trkpt>
<trkpt lat="52.097515" lon="05.644225"><ele>38.5</ele><time>2022-04-18T14:14:08Z</time><name>PT1210</name></trkpt>
<trkpt lat="52.097520" lon="05.644216"><ele>38.7</ele><time>2022-04-18T14:14:09Z</time><name>PT1211</name></trkpt>
<trkpt lat="52.097524" lon="05.644207"><ele>38.8</ele><time>2022-04-18T14:14:10Z</time><name>PT1212</name></trkpt>
<trkpt lat="52.097533" lon="05.644196"><ele>38.9</ele><time>2022-04-18T14:14:11Z</time><name>PT1213</name></trkpt>
<trkpt lat="52.097544" lon="05.644182"><ele>38.8</ele><time>2022-04-18T14:14:12Z</time><name>PT1214</name></trkpt>
<trkpt lat="52.097555" lon="05.644171"><ele>38.7</ele><time>2022-04-18T14:14:13Z</time><name>PT1215</name></trkpt>
<trkpt lat="52.097563" lon="05.644160"><ele>38.5</ele><time>2022-04-18T14:14:14Z</time><name>PT1216</name></trkpt>
<trkpt lat="52.097569" lon="05.644153"><ele>38.3</ele><time>2022-04-18T14:14:15Z</time><name>PT1217</name></trkpt>
<trkpt lat="52.097574" lon="05.644143"><ele>38.2</ele><time>2022-04-18T14:14:16Z</time><name>PT1218</name></trkpt>
<trkpt lat="52.097582" lon="05.644127"><ele>38.3</ele><time>2022-04-18T14:14:17Z</time><name>PT1219</name></trkpt>
<trkpt lat="52.097596" lon="05.644113"><ele>38.4</ele><time>2022-04-18T14:14:18Z</time><name>PT1220</name></trkpt>
<trkpt lat="52.097606" lon="05.644100"><ele>38.4</ele><time>2022-04-18T14:14:19Z</time><name>PT1221</name></trkpt>
<trkpt lat="52.097612" lon="05.644090"><ele>38.5</ele><time>2022-04-18T14:14:21Z</time><name>PT1222</name></trkpt>
<trkpt lat="52.097619" lon="05.644079"><ele>38.6</ele><time>2022-04-18T14:14:21Z</time><name>PT1223</name></trkpt>
<trkpt lat="52.097628" lon="05.644068"><ele>38.3</ele><time>2022-04-18T14:14:22Z</time><name>PT1224</name></trkpt>
<trkpt lat="52.097635" lon="05.644055"><ele>38.4</ele><time>2022-04-18T14:14:23Z</time><name>PT1225</name></trkpt>
<trkpt lat="52.097640" lon="05.644045"><ele>38.4</ele><time>2022-04-18T14:14:24Z</time><name>PT1226</name></trkpt>
<trkpt lat="52.097646" lon="05.644040"><ele>38.5</ele><time>2022-04-18T14:14:25Z</time><name>PT1227</name></trkpt>
<trkpt lat="52.097650" lon="05.644031"><ele>38.5</ele><time>2022-04-18T14:14:26Z</time><name>PT1228</name></trkpt>
<trkpt lat="52.097657" lon="05.644019"><ele>38.6</ele><time>2022-04-18T14:14:27Z</time><name>PT1229</name></trkpt>
<trkpt lat="52.097665" lon="05.644003"><ele>38.6</ele><time>2022-04-18T14:14:28Z</time><name>PT1230</name></trkpt>
<trkpt lat="52.097676" lon="05.643990"><ele>38.3</ele><time>2022-04-18T14:14:29Z</time><name>PT1231</name></trkpt>
<trkpt lat="52.097685" lon="05.643979"><ele>38.4</ele><time>2022-04-18T14:14:30Z</time><name>PT1232</name></trkpt>
<trkpt lat="52.097690" lon="05.643970"><ele>38.2</ele><time>2022-04-18T14:14:31Z</time><name>PT1233</name></trkpt>
<trkpt lat="52.097692" lon="05.643962"><ele>38.1</ele><time>2022-04-18T14:14:33Z</time><name>PT1234</name></trkpt>
<trkpt lat="52.097697" lon="05.643952"><ele>38.2</ele><time>2022-04-18T14:14:33Z</time><name>PT1235</name></trkpt>
<trkpt lat="52.097704" lon="05.643945"><ele>38.3</ele><time>2022-04-18T14:14:34Z</time><name>PT1236</name></trkpt>
<trkpt lat="52.097707" lon="05.643937"><ele>38.3</ele><time>2022-04-18T14:14:35Z</time><name>PT1237</name></trkpt>
<trkpt lat="52.097714" lon="05.643928"><ele>38.3</ele><time>2022-04-18T14:14:36Z</time><name>PT1238</name></trkpt>
<trkpt lat="52.097722" lon="05.643912"><ele>38.5</ele><time>2022-04-18T14:14:37Z</time><name>PT1239</name></trkpt>
<trkpt lat="52.097725" lon="05.643895"><ele>38.5</ele><time>2022-04-18T14:14:38Z</time><name>PT1240</name></trkpt>
<trkpt lat="52.097723" lon="05.643882"><ele>38.5</ele><time>2022-04-18T14:14:39Z</time><name>PT1241</name></trkpt>
<trkpt lat="52.097723" lon="05.643878"><ele>38.6</ele><time>2022-04-18T14:14:40Z</time><name>PT1242</name></trkpt>
<trkpt lat="52.097724" lon="05.643871"><ele>38.7</ele><time>2022-04-18T14:14:41Z</time><name>PT1243</name></trkpt>
<trkpt lat="52.097726" lon="05.643865"><ele>38.8</ele><time>2022-04-18T14:14:42Z</time><name>PT1244</name></trkpt>
<trkpt lat="52.097730" lon="05.643864"><ele>38.8</ele><time>2022-04-18T14:14:43Z</time><name>PT1245</name></trkpt>
<trkpt lat="52.097732" lon="05.643863"><ele>38.8</ele><time>2022-04-18T14:14:45Z</time><name>PT1246</name></trkpt>
<trkpt lat="52.097734" lon="05.643849"><ele>38.6</ele><time>2022-04-18T14:14:48Z</time><name>PT1247</name></trkpt>
<trkpt lat="52.097726" lon="05.643835"><ele>38.5</ele><time>2022-04-18T14:14:49Z</time><name>PT1248</name></trkpt>
<trkpt lat="52.097720" lon="05.643820"><ele>38.5</ele><time>2022-04-18T14:14:50Z</time><name>PT1249</name></trkpt>
<trkpt lat="52.097712" lon="05.643810"><ele>38.6</ele><time>2022-04-18T14:14:51Z</time><name>PT1250</name></trkpt>
<trkpt lat="52.097707" lon="05.643802"><ele>38.7</ele><time>2022-04-18T14:14:52Z</time><name>PT1251</name></trkpt>
<trkpt lat="52.097700" lon="05.643791"><ele>38.7</ele><time>2022-04-18T14:14:53Z</time><name>PT1252</name></trkpt>
<trkpt lat="52.097692" lon="05.643781"><ele>38.7</ele><time>2022-04-18T14:14:54Z</time><name>PT1253</name></trkpt>
<trkpt lat="52.097682" lon="05.643766"><ele>38.5</ele><time>2022-04-18T14:14:55Z</time><name>PT1254</name></trkpt>
<trkpt lat="52.097672" lon="05.643749"><ele>38.2</ele><time>2022-04-18T14:14:57Z</time><name>PT1255</name></trkpt>
<trkpt lat="52.097666" lon="05.643734"><ele>38.3</ele><time>2022-04-18T14:14:57Z</time><name>PT1256</name></trkpt>
<trkpt lat="52.097660" lon="05.643725"><ele>38.6</ele><time>2022-04-18T14:14:58Z</time><name>PT1257</name></trkpt>
<trkpt lat="52.097656" lon="05.643719"><ele>38.6</ele><time>2022-04-18T14:14:59Z</time><name>PT1258</name></trkpt>
<trkpt lat="52.097652" lon="05.643712"><ele>38.5</ele><time>2022-04-18T14:15:00Z</time><name>PT1259</name></trkpt>
<trkpt lat="52.097642" lon="05.643690"><ele>38.5</ele><time>2022-04-18T14:15:01Z</time><name>PT1260</name></trkpt>
<trkpt lat="52.097633" lon="05.643669"><ele>38.4</ele><time>2022-04-18T14:15:02Z</time><name>PT1261</name></trkpt>
<trkpt lat="52.097625" lon="05.643652"><ele>38.2</ele><time>2022-04-18T14:15:03Z</time><name>PT1262</name></trkpt>
<trkpt lat="52.097620" lon="05.643642"><ele>38.3</ele><time>2022-04-18T14:15:04Z</time><name>PT1263</name></trkpt>
<trkpt lat="52.097616" lon="05.643633"><ele>38.2</ele><time>2022-04-18T14:15:05Z</time><name>PT1264</name></trkpt>
<trkpt lat="52.097608" lon="05.643622"><ele>38.2</ele><time>2022-04-18T14:15:06Z</time><name>PT1265</name></trkpt>
<trkpt lat="52.097600" lon="05.643609"><ele>38.2</ele><time>2022-04-18T14:15:07Z</time><name>PT1266</name></trkpt>
<trkpt lat="52.097592" lon="05.643593"><ele>38.3</ele><time>2022-04-18T14:15:08Z</time><name>PT1267</name></trkpt>
<trkpt lat="52.097587" lon="05.643576"><ele>38.3</ele><time>2022-04-18T14:15:09Z</time><name>PT1268</name></trkpt>
<trkpt lat="52.097584" lon="05.643565"><ele>38.3</ele><time>2022-04-18T14:15:10Z</time><name>PT1269</name></trkpt>
<trkpt lat="52.097584" lon="05.643565"><ele>38.1</ele><time>2022-04-18T14:15:11Z</time><name>PT1270</name></trkpt>
<trkpt lat="52.097586" lon="05.643566"><ele>38.1</ele><time>2022-04-18T14:15:12Z</time><name>PT1271</name></trkpt>
<trkpt lat="52.097587" lon="05.643560"><ele>37.9</ele><time>2022-04-18T14:15:13Z</time><name>PT1272</name></trkpt>
<trkpt lat="52.097582" lon="05.643545"><ele>37.8</ele><time>2022-04-18T14:15:14Z</time><name>PT1273</name></trkpt>
<trkpt lat="52.097579" lon="05.643526"><ele>37.8</ele><time>2022-04-18T14:15:15Z</time><name>PT1274</name></trkpt>
<trkpt lat="52.097575" lon="05.643509"><ele>37.9</ele><time>2022-04-18T14:15:16Z</time><name>PT1275</name></trkpt>
<trkpt lat="52.097569" lon="05.643495"><ele>38</ele><time>2022-04-18T14:15:17Z</time><name>PT1276</name></trkpt>
<trkpt lat="52.097561" lon="05.643487"><ele>38.1</ele><time>2022-04-18T14:15:18Z</time><name>PT1277</name></trkpt>
<trkpt lat="52.097555" lon="05.643480"><ele>38.1</ele><time>2022-04-18T14:15:19Z</time><name>PT1278</name></trkpt>
<trkpt lat="52.097546" lon="05.643470"><ele>38.2</ele><time>2022-04-18T14:15:21Z</time><name>PT1279</name></trkpt>
<trkpt lat="52.097536" lon="05.643449"><ele>38.2</ele><time>2022-04-18T14:15:21Z</time><name>PT1280</name></trkpt>
<trkpt lat="52.097529" lon="05.643426"><ele>37.8</ele><time>2022-04-18T14:15:22Z</time><name>PT1281</name></trkpt>
<trkpt lat="52.097523" lon="05.643409"><ele>37.9</ele><time>2022-04-18T14:15:24Z</time><name>PT1282</name></trkpt>
<trkpt lat="52.097518" lon="05.643395"><ele>37.9</ele><time>2022-04-18T14:15:24Z</time><name>PT1283</name></trkpt>
<trkpt lat="52.097511" lon="05.643384"><ele>38</ele><time>2022-04-18T14:15:25Z</time><name>PT1284</name></trkpt>
<trkpt lat="52.097506" lon="05.643373"><ele>38</ele><time>2022-04-18T14:15:26Z</time><name>PT1285</name></trkpt>
<trkpt lat="52.097498" lon="05.643360"><ele>37.9</ele><time>2022-04-18T14:15:27Z</time><name>PT1286</name></trkpt>
<trkpt lat="52.097487" lon="05.643345"><ele>37.9</ele><time>2022-04-18T14:15:28Z</time><name>PT1287</name></trkpt>
<trkpt lat="52.097478" lon="05.643327"><ele>37.7</ele><time>2022-04-18T14:15:29Z</time><name>PT1288</name></trkpt>
<trkpt lat="52.097468" lon="05.643308"><ele>37.7</ele><time>2022-04-18T14:15:30Z</time><name>PT1289</name></trkpt>
<trkpt lat="52.097460" lon="05.643296"><ele>37.7</ele><time>2022-04-18T14:15:31Z</time><name>PT1290</name></trkpt>
<trkpt lat="52.097455" lon="05.643291"><ele>37.7</ele><time>2022-04-18T14:15:32Z</time><name>PT1291</name></trkpt>
<trkpt lat="52.097449" lon="05.643286"><ele>37.4</ele><time>2022-04-18T14:15:33Z</time><name>PT1292</name></trkpt>
<trkpt lat="52.097440" lon="05.643270"><ele>37.4</ele><time>2022-04-18T14:15:34Z</time><name>PT1293</name></trkpt>
<trkpt lat="52.097427" lon="05.643252"><ele>37.3</ele><time>2022-04-18T14:15:35Z</time><name>PT1294</name></trkpt>
<trkpt lat="52.097411" lon="05.643233"><ele>37.3</ele><time>2022-04-18T14:15:36Z</time><name>PT1295</name></trkpt>
<trkpt lat="52.097400" lon="05.643220"><ele>37.5</ele><time>2022-04-18T14:15:37Z</time><name>PT1296</name></trkpt>
<trkpt lat="52.097394" lon="05.643211"><ele>37.6</ele><time>2022-04-18T14:15:38Z</time><name>PT1297</name></trkpt>
<trkpt lat="52.097387" lon="05.643204"><ele>37.7</ele><time>2022-04-18T14:15:39Z</time><name>PT1298</name></trkpt>
<trkpt lat="52.097386" lon="05.643197"><ele>37.6</ele><time>2022-04-18T14:15:40Z</time><name>PT1299</name></trkpt>
<trkpt lat="52.097378" lon="05.643188"><ele>37.5</ele><time>2022-04-18T14:15:41Z</time><name>PT1300</name></trkpt>
<trkpt lat="52.097367" lon="05.643180"><ele>37.5</ele><time>2022-04-18T14:15:42Z</time><name>PT1301</name></trkpt>
<trkpt lat="52.097358" lon="05.643172"><ele>37.5</ele><time>2022-04-18T14:15:43Z</time><name>PT1302</name></trkpt>
<trkpt lat="52.097352" lon="05.643171"><ele>37.4</ele><time>2022-04-18T14:15:44Z</time><name>PT1303</name></trkpt>
<trkpt lat="52.097344" lon="05.643172"><ele>37.4</ele><time>2022-04-18T14:15:45Z</time><name>PT1304</name></trkpt>
<trkpt lat="52.097332" lon="05.643170"><ele>37.6</ele><time>2022-04-18T14:15:46Z</time><name>PT1305</name></trkpt>
<trkpt lat="52.097317" lon="05.643168"><ele>37.6</ele><time>2022-04-18T14:15:48Z</time><name>PT1306</name></trkpt>
<trkpt lat="52.097304" lon="05.643161"><ele>37.6</ele><time>2022-04-18T14:15:48Z</time><name>PT1307</name></trkpt>
<trkpt lat="52.097295" lon="05.643157"><ele>37.7</ele><time>2022-04-18T14:15:49Z</time><name>PT1308</name></trkpt>
<trkpt lat="52.097288" lon="05.643158"><ele>37.5</ele><time>2022-04-18T14:15:50Z</time><name>PT1309</name></trkpt>
<trkpt lat="52.097280" lon="05.643160"><ele>37.6</ele><time>2022-04-18T14:15:51Z</time><name>PT1310</name></trkpt>
<trkpt lat="52.097268" lon="05.643164"><ele>37.7</ele><time>2022-04-18T14:15:52Z</time><name>PT1311</name></trkpt>
<trkpt lat="52.097255" lon="05.643162"><ele>37.8</ele><time>2022-04-18T14:15:53Z</time><name>PT1312</name></trkpt>
<trkpt lat="52.097246" lon="05.643162"><ele>38</ele><time>2022-04-18T14:15:54Z</time><name>PT1313</name></trkpt>
<trkpt lat="52.097236" lon="05.643168"><ele>38.1</ele><time>2022-04-18T14:15:55Z</time><name>PT1314</name></trkpt>
<trkpt lat="52.097227" lon="05.643171"><ele>38.2</ele><time>2022-04-18T14:15:56Z</time><name>PT1315</name></trkpt>
<trkpt lat="52.097215" lon="05.643176"><ele>38.1</ele><time>2022-04-18T14:15:57Z</time><name>PT1316</name></trkpt>
<trkpt lat="52.097201" lon="05.643178"><ele>38.2</ele><time>2022-04-18T14:15:58Z</time><name>PT1317</name></trkpt>
<trkpt lat="52.097183" lon="05.643179"><ele>38</ele><time>2022-04-18T14:16:00Z</time><name>PT1318</name></trkpt>
<trkpt lat="52.097166" lon="05.643182"><ele>37.9</ele><time>2022-04-18T14:16:00Z</time><name>PT1319</name></trkpt>
<trkpt lat="52.097153" lon="05.643185"><ele>38</ele><time>2022-04-18T14:16:01Z</time><name>PT1320</name></trkpt>
<trkpt lat="52.097144" lon="05.643192"><ele>37.7</ele><time>2022-04-18T14:16:02Z</time><name>PT1321</name></trkpt>
<trkpt lat="52.097133" lon="05.643196"><ele>37.8</ele><time>2022-04-18T14:16:03Z</time><name>PT1322</name></trkpt>
<trkpt lat="52.097122" lon="05.643202"><ele>37.9</ele><time>2022-04-18T14:16:04Z</time><name>PT1323</name></trkpt>
<trkpt lat="52.097112" lon="05.643211"><ele>37.7</ele><time>2022-04-18T14:16:05Z</time><name>PT1324</name></trkpt>
<trkpt lat="52.097098" lon="05.643219"><ele>37.7</ele><time>2022-04-18T14:16:06Z</time><name>PT1325</name></trkpt>
<trkpt lat="52.097082" lon="05.643223"><ele>37.7</ele><time>2022-04-18T14:16:07Z</time><name>PT1326</name></trkpt>
<trkpt lat="52.097069" lon="05.643228"><ele>37.5</ele><time>2022-04-18T14:16:08Z</time><name>PT1327</name></trkpt>
<trkpt lat="52.097061" lon="05.643234"><ele>37.6</ele><time>2022-04-18T14:16:09Z</time><name>PT1328</name></trkpt>
<trkpt lat="52.097056" lon="05.643241"><ele>37.7</ele><time>2022-04-18T14:16:10Z</time><name>PT1329</name></trkpt>
<trkpt lat="52.097047" lon="05.643248"><ele>37.8</ele><time>2022-04-18T14:16:11Z</time><name>PT1330</name></trkpt>
<trkpt lat="52.097040" lon="05.643253"><ele>37.7</ele><time>2022-04-18T14:16:12Z</time><name>PT1331</name></trkpt>
<trkpt lat="52.097031" lon="05.643263"><ele>37.8</ele><time>2022-04-18T14:16:13Z</time><name>PT1332</name></trkpt>
<trkpt lat="52.097016" lon="05.643271"><ele>37.7</ele><time>2022-04-18T14:16:14Z</time><name>PT1333</name></trkpt>
<trkpt lat="52.097002" lon="05.643275"><ele>37.8</ele><time>2022-04-18T14:16:15Z</time><name>PT1334</name></trkpt>
<trkpt lat="52.096992" lon="05.643280"><ele>37.8</ele><time>2022-04-18T14:16:16Z</time><name>PT1335</name></trkpt>
<trkpt lat="52.096987" lon="05.643287"><ele>37.9</ele><time>2022-04-18T14:16:17Z</time><name>PT1336</name></trkpt>
<trkpt lat="52.096981" lon="05.643293"><ele>37.9</ele><time>2022-04-18T14:16:18Z</time><name>PT1337</name></trkpt>
<trkpt lat="52.096972" lon="05.643299"><ele>38</ele><time>2022-04-18T14:16:19Z</time><name>PT1338</name></trkpt>
<trkpt lat="52.096962" lon="05.643312"><ele>38</ele><time>2022-04-18T14:16:20Z</time><name>PT1339</name></trkpt>
<trkpt lat="52.096947" lon="05.643320"><ele>38.1</ele><time>2022-04-18T14:16:21Z</time><name>PT1340</name></trkpt>
<trkpt lat="52.096933" lon="05.643331"><ele>38.2</ele><time>2022-04-18T14:16:22Z</time><name>PT1341</name></trkpt>
<trkpt lat="52.096923" lon="05.643338"><ele>38</ele><time>2022-04-18T14:16:23Z</time><name>PT1342</name></trkpt>
<trkpt lat="52.096917" lon="05.643342"><ele>37.9</ele><time>2022-04-18T14:16:24Z</time><name>PT1343</name></trkpt>
<trkpt lat="52.096911" lon="05.643349"><ele>37.6</ele><time>2022-04-18T14:16:25Z</time><name>PT1344</name></trkpt>
<trkpt lat="52.096904" lon="05.643355"><ele>37.6</ele><time>2022-04-18T14:16:26Z</time><name>PT1345</name></trkpt>
<trkpt lat="52.096893" lon="05.643365"><ele>37.6</ele><time>2022-04-18T14:16:27Z</time><name>PT1346</name></trkpt>
<trkpt lat="52.096878" lon="05.643375"><ele>37.7</ele><time>2022-04-18T14:16:28Z</time><name>PT1347</name></trkpt>
<trkpt lat="52.096863" lon="05.643385"><ele>38</ele><time>2022-04-18T14:16:29Z</time><name>PT1348</name></trkpt>
<trkpt lat="52.096855" lon="05.643395"><ele>38.1</ele><time>2022-04-18T14:16:30Z</time><name>PT1349</name></trkpt>
<trkpt lat="52.096848" lon="05.643402"><ele>38.2</ele><time>2022-04-18T14:16:31Z</time><name>PT1350</name></trkpt>
<trkpt lat="52.096845" lon="05.643407"><ele>38.4</ele><time>2022-04-18T14:16:32Z</time><name>PT1351</name></trkpt>
<trkpt lat="52.096840" lon="05.643414"><ele>38.4</ele><time>2022-04-18T14:16:33Z</time><name>PT1352</name></trkpt>
<trkpt lat="52.096831" lon="05.643421"><ele>38.4</ele><time>2022-04-18T14:16:34Z</time><name>PT1353</name></trkpt>
<trkpt lat="52.096813" lon="05.643436"><ele>38.5</ele><time>2022-04-18T14:16:35Z</time><name>PT1354</name></trkpt>
<trkpt lat="52.096802" lon="05.643449"><ele>38.5</ele><time>2022-04-18T14:16:36Z</time><name>PT1355</name></trkpt>
<trkpt lat="52.096792" lon="05.643459"><ele>38.4</ele><time>2022-04-18T14:16:37Z</time><name>PT1356</name></trkpt>
<trkpt lat="52.096782" lon="05.643464"><ele>38.6</ele><time>2022-04-18T14:16:38Z</time><name>PT1357</name></trkpt>
<trkpt lat="52.096773" lon="05.643467"><ele>38.6</ele><time>2022-04-18T14:16:39Z</time><name>PT1358</name></trkpt>
<trkpt lat="52.096768" lon="05.643472"><ele>38.6</ele><time>2022-04-18T14:16:40Z</time><name>PT1359</name></trkpt>
<trkpt lat="52.096762" lon="05.643477"><ele>38.5</ele><time>2022-04-18T14:16:41Z</time><name>PT1360</name></trkpt>
<trkpt lat="52.096753" lon="05.643486"><ele>38.6</ele><time>2022-04-18T14:16:42Z</time><name>PT1361</name></trkpt>
<trkpt lat="52.096743" lon="05.643498"><ele>38.6</ele><time>2022-04-18T14:16:43Z</time><name>PT1362</name></trkpt>
<trkpt lat="52.096729" lon="05.643516"><ele>38.7</ele><time>2022-04-18T14:16:44Z</time><name>PT1363</name></trkpt>
<trkpt lat="52.096716" lon="05.643529"><ele>38.8</ele><time>2022-04-18T14:16:45Z</time><name>PT1364</name></trkpt>
<trkpt lat="52.096703" lon="05.643537"><ele>38.7</ele><time>2022-04-18T14:16:46Z</time><name>PT1365</name></trkpt>
<trkpt lat="52.096695" lon="05.643545"><ele>38.8</ele><time>2022-04-18T14:16:47Z</time><name>PT1366</name></trkpt>
<trkpt lat="52.096689" lon="05.643551"><ele>38.7</ele><time>2022-04-18T14:16:48Z</time><name>PT1367</name></trkpt>
<trkpt lat="52.096683" lon="05.643557"><ele>38.8</ele><time>2022-04-18T14:16:49Z</time><name>PT1368</name></trkpt>
<trkpt lat="52.096672" lon="05.643567"><ele>38.9</ele><time>2022-04-18T14:16:50Z</time><name>PT1369</name></trkpt>
<trkpt lat="52.096658" lon="05.643577"><ele>38.9</ele><time>2022-04-18T14:16:51Z</time><name>PT1370</name></trkpt>
<trkpt lat="52.096648" lon="05.643583"><ele>39</ele><time>2022-04-18T14:16:52Z</time><name>PT1371</name></trkpt>
<trkpt lat="52.096644" lon="05.643587"><ele>39.2</ele><time>2022-04-18T14:16:53Z</time><name>PT1372</name></trkpt>
<trkpt lat="52.096640" lon="05.643590"><ele>39.2</ele><time>2022-04-18T14:16:54Z</time><name>PT1373</name></trkpt>
<trkpt lat="52.096633" lon="05.643597"><ele>39.4</ele><time>2022-04-18T14:16:55Z</time><name>PT1374</name></trkpt>
<trkpt lat="52.096623" lon="05.643609"><ele>39.5</ele><time>2022-04-18T14:16:56Z</time><name>PT1375</name></trkpt>
<trkpt lat="52.096609" lon="05.643617"><ele>39.3</ele><time>2022-04-18T14:16:57Z</time><name>PT1376</name></trkpt>
<trkpt lat="52.096598" lon="05.643622"><ele>39.4</ele><time>2022-04-18T14:16:58Z</time><name>PT1377</name></trkpt>
<trkpt lat="52.096590" lon="05.643627"><ele>39.5</ele><time>2022-04-18T14:16:59Z</time><name>PT1378</name></trkpt>
<trkpt lat="52.096587" lon="05.643632"><ele>39.7</ele><time>2022-04-18T14:17:00Z</time><name>PT1379</name></trkpt>
<trkpt lat="52.096578" lon="05.643646"><ele>39.9</ele><time>2022-04-18T14:17:01Z</time><name>PT1380</name></trkpt>
<trkpt lat="52.096566" lon="05.643663"><ele>40</ele><time>2022-04-18T14:17:02Z</time><name>PT1381</name></trkpt>
<trkpt lat="52.096552" lon="05.643681"><ele>40.1</ele><time>2022-04-18T14:17:03Z</time><name>PT1382</name></trkpt>
<trkpt lat="52.096539" lon="05.643697"><ele>40.1</ele><time>2022-04-18T14:17:04Z</time><name>PT1383</name></trkpt>
<trkpt lat="52.096526" lon="05.643712"><ele>40.1</ele><time>2022-04-18T14:17:05Z</time><name>PT1384</name></trkpt>
<trkpt lat="52.096517" lon="05.643720"><ele>40.1</ele><time>2022-04-18T14:17:06Z</time><name>PT1385</name></trkpt>
<trkpt lat="52.096510" lon="05.643726"><ele>40.1</ele><time>2022-04-18T14:17:07Z</time><name>PT1386</name></trkpt>
<trkpt lat="52.096505" lon="05.643729"><ele>40.1</ele><time>2022-04-18T14:17:08Z</time><name>PT1387</name></trkpt>
<trkpt lat="52.096499" lon="05.643734"><ele>40.1</ele><time>2022-04-18T14:17:09Z</time><name>PT1388</name></trkpt>
<trkpt lat="52.096487" lon="05.643741"><ele>40.1</ele><time>2022-04-18T14:17:10Z</time><name>PT1389</name></trkpt>
<trkpt lat="52.096471" lon="05.643750"><ele>40.2</ele><time>2022-04-18T14:17:11Z</time><name>PT1390</name></trkpt>
<trkpt lat="52.096460" lon="05.643766"><ele>40.1</ele><time>2022-04-18T14:17:12Z</time><name>PT1391</name></trkpt>
<trkpt lat="52.096452" lon="05.643777"><ele>40.3</ele><time>2022-04-18T14:17:13Z</time><name>PT1392</name></trkpt>
<trkpt lat="52.096444" lon="05.643780"><ele>40.4</ele><time>2022-04-18T14:17:14Z</time><name>PT1393</name></trkpt>
<trkpt lat="52.096437" lon="05.643784"><ele>40.2</ele><time>2022-04-18T14:17:15Z</time><name>PT1394</name></trkpt>
<trkpt lat="52.096427" lon="05.643794"><ele>40.3</ele><time>2022-04-18T14:17:16Z</time><name>PT1395</name></trkpt>
<trkpt lat="52.096414" lon="05.643811"><ele>40.4</ele><time>2022-04-18T14:17:17Z</time><name>PT1396</name></trkpt>
<trkpt lat="52.096402" lon="05.643828"><ele>40.2</ele><time>2022-04-18T14:17:18Z</time><name>PT1397</name></trkpt>
<trkpt lat="52.096389" lon="05.643841"><ele>40.2</ele><time>2022-04-18T14:17:19Z</time><name>PT1398</name></trkpt>
<trkpt lat="52.096381" lon="05.643852"><ele>40.2</ele><time>2022-04-18T14:17:20Z</time><name>PT1399</name></trkpt>
<trkpt lat="52.096376" lon="05.643859"><ele>40.1</ele><time>2022-04-18T14:17:21Z</time><name>PT1400</name></trkpt>
<trkpt lat="52.096372" lon="05.643865"><ele>40.2</ele><time>2022-04-18T14:17:22Z</time><name>PT1401</name></trkpt>
<trkpt lat="52.096365" lon="05.643874"><ele>40.5</ele><time>2022-04-18T14:17:23Z</time><name>PT1402</name></trkpt>
<trkpt lat="52.096353" lon="05.643886"><ele>40.6</ele><time>2022-04-18T14:17:24Z</time><name>PT1403</name></trkpt>
<trkpt lat="52.096340" lon="05.643895"><ele>40.6</ele><time>2022-04-18T14:17:25Z</time><name>PT1404</name></trkpt>
<trkpt lat="52.096328" lon="05.643903"><ele>40.8</ele><time>2022-04-18T14:17:26Z</time><name>PT1405</name></trkpt>
<trkpt lat="52.096320" lon="05.643913"><ele>40.6</ele><time>2022-04-18T14:17:27Z</time><name>PT1406</name></trkpt>
<trkpt lat="52.096314" lon="05.643920"><ele>40.6</ele><time>2022-04-18T14:17:28Z</time><name>PT1407</name></trkpt>
<trkpt lat="52.096307" lon="05.643928"><ele>40.6</ele><time>2022-04-18T14:17:29Z</time><name>PT1408</name></trkpt>
<trkpt lat="52.096297" lon="05.643937"><ele>40.6</ele><time>2022-04-18T14:17:30Z</time><name>PT1409</name></trkpt>
<trkpt lat="52.096287" lon="05.643950"><ele>40.6</ele><time>2022-04-18T14:17:31Z</time><name>PT1410</name></trkpt>
<trkpt lat="52.096276" lon="05.643959"><ele>40.6</ele><time>2022-04-18T14:17:32Z</time><name>PT1411</name></trkpt>
<trkpt lat="52.096266" lon="05.643966"><ele>40.6</ele><time>2022-04-18T14:17:33Z</time><name>PT1412</name></trkpt>
<trkpt lat="52.096259" lon="05.643975"><ele>40.4</ele><time>2022-04-18T14:17:34Z</time><name>PT1413</name></trkpt>
<trkpt lat="52.096252" lon="05.643978"><ele>40.5</ele><time>2022-04-18T14:17:35Z</time><name>PT1414</name></trkpt>
<trkpt lat="52.096244" lon="05.643984"><ele>40.5</ele><time>2022-04-18T14:17:36Z</time><name>PT1415</name></trkpt>
<trkpt lat="52.096230" lon="05.643991"><ele>40.5</ele><time>2022-04-18T14:17:37Z</time><name>PT1416</name></trkpt>
<trkpt lat="52.096215" lon="05.644003"><ele>40.5</ele><time>2022-04-18T14:17:38Z</time><name>PT1417</name></trkpt>
<trkpt lat="52.096201" lon="05.644013"><ele>40.4</ele><time>2022-04-18T14:17:39Z</time><name>PT1418</name></trkpt>
<trkpt lat="52.096192" lon="05.644019"><ele>40.1</ele><time>2022-04-18T14:17:40Z</time><name>PT1419</name></trkpt>
<trkpt lat="52.096185" lon="05.644021"><ele>40.2</ele><time>2022-04-18T14:17:41Z</time><name>PT1420</name></trkpt>
<trkpt lat="52.096180" lon="05.644027"><ele>40.3</ele><time>2022-04-18T14:17:42Z</time><name>PT1421</name></trkpt>
<trkpt lat="52.096171" lon="05.644038"><ele>40.4</ele><time>2022-04-18T14:17:43Z</time><name>PT1422</name></trkpt>
<trkpt lat="52.096157" lon="05.644049"><ele>40.6</ele><time>2022-04-18T14:17:44Z</time><name>PT1423</name></trkpt>
<trkpt lat="52.096143" lon="05.644059"><ele>40.6</ele><time>2022-04-18T14:17:45Z</time><name>PT1424</name></trkpt>
<trkpt lat="52.096131" lon="05.644066"><ele>40.6</ele><time>2022-04-18T14:17:46Z</time><name>PT1425</name></trkpt>
<trkpt lat="52.096125" lon="05.644072"><ele>40.6</ele><time>2022-04-18T14:17:47Z</time><name>PT1426</name></trkpt>
<trkpt lat="52.096119" lon="05.644076"><ele>40.6</ele><time>2022-04-18T14:17:48Z</time><name>PT1427</name></trkpt>
<trkpt lat="52.096112" lon="05.644083"><ele>40.4</ele><time>2022-04-18T14:17:49Z</time><name>PT1428</name></trkpt>
<trkpt lat="52.096104" lon="05.644093"><ele>40.5</ele><time>2022-04-18T14:17:50Z</time><name>PT1429</name></trkpt>
<trkpt lat="52.096092" lon="05.644102"><ele>40.5</ele><time>2022-04-18T14:17:51Z</time><name>PT1430</name></trkpt>
<trkpt lat="52.096081" lon="05.644111"><ele>40.5</ele><time>2022-04-18T14:17:52Z</time><name>PT1431</name></trkpt>
<trkpt lat="52.096071" lon="05.644117"><ele>40.7</ele><time>2022-04-18T14:17:53Z</time><name>PT1432</name></trkpt>
<trkpt lat="52.096062" lon="05.644121"><ele>40.7</ele><time>2022-04-18T14:17:54Z</time><name>PT1433</name></trkpt>
<trkpt lat="52.096055" lon="05.644120"><ele>40.7</ele><time>2022-04-18T14:17:55Z</time><name>PT1434</name></trkpt>
<trkpt lat="52.096045" lon="05.644127"><ele>40.7</ele><time>2022-04-18T14:17:56Z</time><name>PT1435</name></trkpt>
<trkpt lat="52.096032" lon="05.644134"><ele>40.7</ele><time>2022-04-18T14:17:57Z</time><name>PT1436</name></trkpt>
<trkpt lat="52.096022" lon="05.644141"><ele>40.8</ele><time>2022-04-18T14:17:58Z</time><name>PT1437</name></trkpt>
<trkpt lat="52.096015" lon="05.644149"><ele>40.8</ele><time>2022-04-18T14:17:59Z</time><name>PT1438</name></trkpt>
<trkpt lat="52.096009" lon="05.644154"><ele>40.7</ele><time>2022-04-18T14:18:00Z</time><name>PT1439</name></trkpt>
<trkpt lat="52.096001" lon="05.644151"><ele>40.7</ele><time>2022-04-18T14:18:01Z</time><name>PT1440</name></trkpt>
<trkpt lat="52.095990" lon="05.644155"><ele>40.7</ele><time>2022-04-18T14:18:02Z</time><name>PT1441</name></trkpt>
<trkpt lat="52.095971" lon="05.644158"><ele>40.8</ele><time>2022-04-18T14:18:03Z</time><name>PT1442</name></trkpt>
<trkpt lat="52.095956" lon="05.644161"><ele>40.8</ele><time>2022-04-18T14:18:04Z</time><name>PT1443</name></trkpt>
<trkpt lat="52.095945" lon="05.644164"><ele>40.9</ele><time>2022-04-18T14:18:06Z</time><name>PT1444</name></trkpt>
<trkpt lat="52.095938" lon="05.644172"><ele>40.9</ele><time>2022-04-18T14:18:06Z</time><name>PT1445</name></trkpt>
<trkpt lat="52.095931" lon="05.644177"><ele>40.9</ele><time>2022-04-18T14:18:07Z</time><name>PT1446</name></trkpt>
<trkpt lat="52.095924" lon="05.644184"><ele>41</ele><time>2022-04-18T14:18:08Z</time><name>PT1447</name></trkpt>
<trkpt lat="52.095913" lon="05.644195"><ele>41.1</ele><time>2022-04-18T14:18:09Z</time><name>PT1448</name></trkpt>
<trkpt lat="52.095902" lon="05.644203"><ele>41.1</ele><time>2022-04-18T14:18:10Z</time><name>PT1449</name></trkpt>
<trkpt lat="52.095888" lon="05.644206"><ele>41.1</ele><time>2022-04-18T14:18:11Z</time><name>PT1450</name></trkpt>
<trkpt lat="52.095877" lon="05.644210"><ele>41.1</ele><time>2022-04-18T14:18:12Z</time><name>PT1451</name></trkpt>
<trkpt lat="52.095869" lon="05.644216"><ele>40.9</ele><time>2022-04-18T14:18:13Z</time><name>PT1452</name></trkpt>
<trkpt lat="52.095864" lon="05.644223"><ele>41</ele><time>2022-04-18T14:18:14Z</time><name>PT1453</name></trkpt>
<trkpt lat="52.095857" lon="05.644232"><ele>40.9</ele><time>2022-04-18T14:18:15Z</time><name>PT1454</name></trkpt>
<trkpt lat="52.095848" lon="05.644241"><ele>40.6</ele><time>2022-04-18T14:18:16Z</time><name>PT1455</name></trkpt>
<trkpt lat="52.095836" lon="05.644251"><ele>40.7</ele><time>2022-04-18T14:18:17Z</time><name>PT1456</name></trkpt>
<trkpt lat="52.095825" lon="05.644260"><ele>40.8</ele><time>2022-04-18T14:18:18Z</time><name>PT1457</name></trkpt>
<trkpt lat="52.095818" lon="05.644265"><ele>40.9</ele><time>2022-04-18T14:18:19Z</time><name>PT1458</name></trkpt>
<trkpt lat="52.095814" lon="05.644268"><ele>41.1</ele><time>2022-04-18T14:18:20Z</time><name>PT1459</name></trkpt>
<trkpt lat="52.095805" lon="05.644274"><ele>41.2</ele><time>2022-04-18T14:18:21Z</time><name>PT1460</name></trkpt>
<trkpt lat="52.095793" lon="05.644283"><ele>41.1</ele><time>2022-04-18T14:18:22Z</time><name>PT1461</name></trkpt>
<trkpt lat="52.095779" lon="05.644294"><ele>41.1</ele><time>2022-04-18T14:18:23Z</time><name>PT1462</name></trkpt>
<trkpt lat="52.095767" lon="05.644302"><ele>41</ele><time>2022-04-18T14:18:24Z</time><name>PT1463</name></trkpt>
<trkpt lat="52.095758" lon="05.644309"><ele>41</ele><time>2022-04-18T14:18:25Z</time><name>PT1464</name></trkpt>
<trkpt lat="52.095750" lon="05.644317"><ele>41.1</ele><time>2022-04-18T14:18:26Z</time><name>PT1465</name></trkpt>
<trkpt lat="52.095745" lon="05.644324"><ele>41.2</ele><time>2022-04-18T14:18:27Z</time><name>PT1466</name></trkpt>
<trkpt lat="52.095739" lon="05.644327"><ele>41.4</ele><time>2022-04-18T14:18:28Z</time><name>PT1467</name></trkpt>
<trkpt lat="52.095730" lon="05.644335"><ele>41.6</ele><time>2022-04-18T14:18:29Z</time><name>PT1468</name></trkpt>
<trkpt lat="52.095720" lon="05.644345"><ele>41.6</ele><time>2022-04-18T14:18:30Z</time><name>PT1469</name></trkpt>
<trkpt lat="52.095707" lon="05.644354"><ele>41.6</ele><time>2022-04-18T14:18:31Z</time><name>PT1470</name></trkpt>
<trkpt lat="52.095686" lon="05.644359"><ele>41.6</ele><time>2022-04-18T14:18:32Z</time><name>PT1471</name></trkpt>
<trkpt lat="52.095670" lon="05.644364"><ele>41.5</ele><time>2022-04-18T14:18:33Z</time><name>PT1472</name></trkpt>
<trkpt lat="52.095659" lon="05.644373"><ele>41.6</ele><time>2022-04-18T14:18:34Z</time><name>PT1473</name></trkpt>
<trkpt lat="52.095648" lon="05.644379"><ele>41.6</ele><time>2022-04-18T14:18:35Z</time><name>PT1474</name></trkpt>
<trkpt lat="52.095642" lon="05.644384"><ele>41.6</ele><time>2022-04-18T14:18:36Z</time><name>PT1475</name></trkpt>
<trkpt lat="52.095638" lon="05.644386"><ele>41.6</ele><time>2022-04-18T14:18:37Z</time><name>PT1476</name></trkpt>
<trkpt lat="52.095633" lon="05.644392"><ele>41.5</ele><time>2022-04-18T14:18:38Z</time><name>PT1477</name></trkpt>
<trkpt lat="52.095624" lon="05.644402"><ele>41.6</ele><time>2022-04-18T14:18:39Z</time><name>PT1478</name></trkpt>
<trkpt lat="52.095609" lon="05.644417"><ele>41.7</ele><time>2022-04-18T14:18:40Z</time><name>PT1479</name></trkpt>
<trkpt lat="52.095593" lon="05.644425"><ele>41.8</ele><time>2022-04-18T14:18:41Z</time><name>PT1480</name></trkpt>
<trkpt lat="52.095581" lon="05.644433"><ele>41.9</ele><time>2022-04-18T14:18:42Z</time><name>PT1481</name></trkpt>
<trkpt lat="52.095576" lon="05.644443"><ele>41.9</ele><time>2022-04-18T14:18:43Z</time><name>PT1482</name></trkpt>
<trkpt lat="52.095573" lon="05.644451"><ele>42</ele><time>2022-04-18T14:18:44Z</time><name>PT1483</name></trkpt>
<trkpt lat="52.095569" lon="05.644459"><ele>41.9</ele><time>2022-04-18T14:18:45Z</time><name>PT1484</name></trkpt>
<trkpt lat="52.095558" lon="05.644471"><ele>42</ele><time>2022-04-18T14:18:46Z</time><name>PT1485</name></trkpt>
<trkpt lat="52.095544" lon="05.644488"><ele>41.9</ele><time>2022-04-18T14:18:47Z</time><name>PT1486</name></trkpt>
<trkpt lat="52.095533" lon="05.644500"><ele>41.9</ele><time>2022-04-18T14:18:48Z</time><name>PT1487</name></trkpt>
<trkpt lat="52.095526" lon="05.644510"><ele>42</ele><time>2022-04-18T14:18:49Z</time><name>PT1488</name></trkpt>
<trkpt lat="52.095522" lon="05.644516"><ele>42</ele><time>2022-04-18T14:18:50Z</time><name>PT1489</name></trkpt>
<trkpt lat="52.095517" lon="05.644526"><ele>42.2</ele><time>2022-04-18T14:18:51Z</time><name>PT1490</name></trkpt>
<trkpt lat="52.095511" lon="05.644539"><ele>42.2</ele><time>2022-04-18T14:18:52Z</time><name>PT1491</name></trkpt>
<trkpt lat="52.095501" lon="05.644557"><ele>42.4</ele><time>2022-04-18T14:18:53Z</time><name>PT1492</name></trkpt>
<trkpt lat="52.095484" lon="05.644571"><ele>42.3</ele><time>2022-04-18T14:18:54Z</time><name>PT1493</name></trkpt>
<trkpt lat="52.095472" lon="05.644587"><ele>42.4</ele><time>2022-04-18T14:18:55Z</time><name>PT1494</name></trkpt>
<trkpt lat="52.095466" lon="05.644597"><ele>42.5</ele><time>2022-04-18T14:18:56Z</time><name>PT1495</name></trkpt>
<trkpt lat="52.095461" lon="05.644605"><ele>42.4</ele><time>2022-04-18T14:18:57Z</time><name>PT1496</name></trkpt>
<trkpt lat="52.095456" lon="05.644609"><ele>42.4</ele><time>2022-04-18T14:18:58Z</time><name>PT1497</name></trkpt>
<trkpt lat="52.095451" lon="05.644621"><ele>42.3</ele><time>2022-04-18T14:18:59Z</time><name>PT1498</name></trkpt>
<trkpt lat="52.095442" lon="05.644635"><ele>42.3</ele><time>2022-04-18T14:19:00Z</time><name>PT1499</name></trkpt>
<trkpt lat="52.095427" lon="05.644645"><ele>42.5</ele><time>2022-04-18T14:19:01Z</time><name>PT1500</name></trkpt>
<trkpt lat="52.095410" lon="05.644657"><ele>42.6</ele><time>2022-04-18T14:19:02Z</time><name>PT1501</name></trkpt>
<trkpt lat="52.095395" lon="05.644667"><ele>42.7</ele><time>2022-04-18T14:19:03Z</time><name>PT1502</name></trkpt>
<trkpt lat="52.095384" lon="05.644679"><ele>43</ele><time>2022-04-18T14:19:04Z</time><name>PT1503</name></trkpt>
<trkpt lat="52.095375" lon="05.644685"><ele>43.1</ele><time>2022-04-18T14:19:05Z</time><name>PT1504</name></trkpt>
<trkpt lat="52.095368" lon="05.644694"><ele>43</ele><time>2022-04-18T14:19:06Z</time><name>PT1505</name></trkpt>
<trkpt lat="52.095363" lon="05.644702"><ele>43.3</ele><time>2022-04-18T14:19:07Z</time><name>PT1506</name></trkpt>
<trkpt lat="52.095355" lon="05.644710"><ele>43.3</ele><time>2022-04-18T14:19:08Z</time><name>PT1507</name></trkpt>
<trkpt lat="52.095345" lon="05.644721"><ele>43.3</ele><time>2022-04-18T14:19:09Z</time><name>PT1508</name></trkpt>
<trkpt lat="52.095333" lon="05.644735"><ele>43.4</ele><time>2022-04-18T14:19:10Z</time><name>PT1509</name></trkpt>
<trkpt lat="52.095319" lon="05.644742"><ele>43.4</ele><time>2022-04-18T14:19:11Z</time><name>PT1510</name></trkpt>
<trkpt lat="52.095306" lon="05.644750"><ele>43.5</ele><time>2022-04-18T14:19:12Z</time><name>PT1511</name></trkpt>
<trkpt lat="52.095293" lon="05.644757"><ele>43.5</ele><time>2022-04-18T14:19:13Z</time><name>PT1512</name></trkpt>
<trkpt lat="52.095284" lon="05.644765"><ele>43.5</ele><time>2022-04-18T14:19:14Z</time><name>PT1513</name></trkpt>
<trkpt lat="52.095277" lon="05.644772"><ele>43.3</ele><time>2022-04-18T14:19:15Z</time><name>PT1514</name></trkpt>
<trkpt lat="52.095270" lon="05.644782"><ele>43.3</ele><time>2022-04-18T14:19:16Z</time><name>PT1515</name></trkpt>
<trkpt lat="52.095264" lon="05.644793"><ele>43.3</ele><time>2022-04-18T14:19:17Z</time><name>PT1516</name></trkpt>
<trkpt lat="52.095258" lon="05.644804"><ele>43.5</ele><time>2022-04-18T14:19:18Z</time><name>PT1517</name></trkpt>
<trkpt lat="52.095250" lon="05.644818"><ele>43.7</ele><time>2022-04-18T14:19:19Z</time><name>PT1518</name></trkpt>
<trkpt lat="52.095236" lon="05.644829"><ele>43.7</ele><time>2022-04-18T14:19:20Z</time><name>PT1519</name></trkpt>
<trkpt lat="52.095225" lon="05.644838"><ele>43.8</ele><time>2022-04-18T14:19:21Z</time><name>PT1520</name></trkpt>
<trkpt lat="52.095219" lon="05.644848"><ele>43.5</ele><time>2022-04-18T14:19:22Z</time><name>PT1521</name></trkpt>
<trkpt lat="52.095214" lon="05.644858"><ele>43.4</ele><time>2022-04-18T14:19:23Z</time><name>PT1522</name></trkpt>
<trkpt lat="52.095210" lon="05.644862"><ele>43.5</ele><time>2022-04-18T14:19:24Z</time><name>PT1523</name></trkpt>
<trkpt lat="52.095206" lon="05.644874"><ele>43.4</ele><time>2022-04-18T14:19:25Z</time><name>PT1524</name></trkpt>
<trkpt lat="52.095194" lon="05.644885"><ele>43.5</ele><time>2022-04-18T14:19:26Z</time><name>PT1525</name></trkpt>
<trkpt lat="52.095183" lon="05.644899"><ele>43.5</ele><time>2022-04-18T14:19:27Z</time><name>PT1526</name></trkpt>
<trkpt lat="52.095171" lon="05.644904"><ele>43.5</ele><time>2022-04-18T14:19:28Z</time><name>PT1527</name></trkpt>
<trkpt lat="52.095163" lon="05.644909"><ele>43.5</ele><time>2022-04-18T14:19:29Z</time><name>PT1528</name></trkpt>
<trkpt lat="52.095158" lon="05.644917"><ele>43.5</ele><time>2022-04-18T14:19:30Z</time><name>PT1529</name></trkpt>
<trkpt lat="52.095151" lon="05.644930"><ele>43.4</ele><time>2022-04-18T14:19:31Z</time><name>PT1530</name></trkpt>
<trkpt lat="52.095139" lon="05.644946"><ele>43.3</ele><time>2022-04-18T14:19:32Z</time><name>PT1531</name></trkpt>
<trkpt lat="52.095128" lon="05.644959"><ele>43.5</ele><time>2022-04-18T14:19:33Z</time><name>PT1532</name></trkpt>
<trkpt lat="52.095121" lon="05.644967"><ele>43.5</ele><time>2022-04-18T14:19:34Z</time><name>PT1533</name></trkpt>
<trkpt lat="52.095114" lon="05.644973"><ele>43.5</ele><time>2022-04-18T14:19:35Z</time><name>PT1534</name></trkpt>
<trkpt lat="52.095111" lon="05.644982"><ele>43.5</ele><time>2022-04-18T14:19:36Z</time><name>PT1535</name></trkpt>
<trkpt lat="52.095109" lon="05.644997"><ele>43.3</ele><time>2022-04-18T14:19:37Z</time><name>PT1536</name></trkpt>
<trkpt lat="52.095100" lon="05.645014"><ele>43.1</ele><time>2022-04-18T14:19:38Z</time><name>PT1537</name></trkpt>
<trkpt lat="52.095090" lon="05.645032"><ele>43</ele><time>2022-04-18T14:19:39Z</time><name>PT1538</name></trkpt>
<trkpt lat="52.095078" lon="05.645046"><ele>43</ele><time>2022-04-18T14:19:40Z</time><name>PT1539</name></trkpt>
<trkpt lat="52.095069" lon="05.645059"><ele>43.1</ele><time>2022-04-18T14:19:41Z</time><name>PT1540</name></trkpt>
<trkpt lat="52.095063" lon="05.645074"><ele>43.1</ele><time>2022-04-18T14:19:42Z</time><name>PT1541</name></trkpt>
<trkpt lat="52.095056" lon="05.645076"><ele>43.1</ele><time>2022-04-18T14:19:43Z</time><name>PT1542</name></trkpt>
<trkpt lat="52.095054" lon="05.645089"><ele>43.2</ele><time>2022-04-18T14:19:44Z</time><name>PT1543</name></trkpt>
<trkpt lat="52.095049" lon="05.645106"><ele>43.1</ele><time>2022-04-18T14:19:45Z</time><name>PT1544</name></trkpt>
<trkpt lat="52.095040" lon="05.645126"><ele>43</ele><time>2022-04-18T14:19:46Z</time><name>PT1545</name></trkpt>
<trkpt lat="52.095031" lon="05.645142"><ele>42.8</ele><time>2022-04-18T14:19:47Z</time><name>PT1546</name></trkpt>
<trkpt lat="52.095025" lon="05.645153"><ele>42.6</ele><time>2022-04-18T14:19:48Z</time><name>PT1547</name></trkpt>
<trkpt lat="52.095021" lon="05.645165"><ele>42.4</ele><time>2022-04-18T14:19:49Z</time><name>PT1548</name></trkpt>
<trkpt lat="52.095017" lon="05.645175"><ele>42.2</ele><time>2022-04-18T14:19:50Z</time><name>PT1549</name></trkpt>
<trkpt lat="52.095011" lon="05.645186"><ele>42</ele><time>2022-04-18T14:19:51Z</time><name>PT1550</name></trkpt>
<trkpt lat="52.095001" lon="05.645202"><ele>41.8</ele><time>2022-04-18T14:19:52Z</time><name>PT1551</name></trkpt>
<trkpt lat="52.094990" lon="05.645215"><ele>41.7</ele><time>2022-04-18T14:19:53Z</time><name>PT1552</name></trkpt>
<trkpt lat="52.094983" lon="05.645227"><ele>41.6</ele><time>2022-04-18T14:19:54Z</time><name>PT1553</name></trkpt>
<trkpt lat="52.094976" lon="05.645235"><ele>41.6</ele><time>2022-04-18T14:19:55Z</time><name>PT1554</name></trkpt>
<trkpt lat="52.094971" lon="05.645240"><ele>41.6</ele><time>2022-04-18T14:19:56Z</time><name>PT1555</name></trkpt>
<trkpt lat="52.094969" lon="05.645241"><ele>41.6</ele><time>2022-04-18T14:19:57Z</time><name>PT1556</name></trkpt>
<trkpt lat="52.094958" lon="05.645239"><ele>41.4</ele><time>2022-04-18T14:19:58Z</time><name>PT1557</name></trkpt>
<trkpt lat="52.094942" lon="05.645231"><ele>41.4</ele><time>2022-04-18T14:19:59Z</time><name>PT1558</name></trkpt>
<trkpt lat="52.094931" lon="05.645222"><ele>41.3</ele><time>2022-04-18T14:20:00Z</time><name>PT1559</name></trkpt>
<trkpt lat="52.094922" lon="05.645216"><ele>41.3</ele><time>2022-04-18T14:20:01Z</time><name>PT1560</name></trkpt>
<trkpt lat="52.094918" lon="05.645215"><ele>41.1</ele><time>2022-04-18T14:20:02Z</time><name>PT1561</name></trkpt>
<trkpt lat="52.094909" lon="05.645215"><ele>41.3</ele><time>2022-04-18T14:20:03Z</time><name>PT1562</name></trkpt>
<trkpt lat="52.094901" lon="05.645213"><ele>41.6</ele><time>2022-04-18T14:20:04Z</time><name>PT1563</name></trkpt>
<trkpt lat="52.094896" lon="05.645211"><ele>41.7</ele><time>2022-04-18T14:20:06Z</time><name>PT1564</name></trkpt>
<trkpt lat="52.094893" lon="05.645211"><ele>41.8</ele><time>2022-04-18T14:20:06Z</time><name>PT1565</name></trkpt>
<trkpt lat="52.094890" lon="05.645211"><ele>41.9</ele><time>2022-04-18T14:20:07Z</time><name>PT1566</name></trkpt>
<trkpt lat="52.094889" lon="05.645215"><ele>41.8</ele><time>2022-04-18T14:20:08Z</time><name>PT1567</name></trkpt>
<trkpt lat="52.094887" lon="05.645211"><ele>41.7</ele><time>2022-04-18T14:20:15Z</time><name>PT1568</name></trkpt>
<trkpt lat="52.094888" lon="05.645213"><ele>41.7</ele><time>2022-04-18T14:20:16Z</time><name>PT1569</name></trkpt>
<trkpt lat="52.094886" lon="05.645214"><ele>41.7</ele><time>2022-04-18T14:20:17Z</time><name>PT1570</name></trkpt>
<trkpt lat="52.094882" lon="05.645216"><ele>41.5</ele><time>2022-04-18T14:20:18Z</time><name>PT1571</name></trkpt>
<trkpt lat="52.094876" lon="05.645213"><ele>41.6</ele><time>2022-04-18T14:20:19Z</time><name>PT1572</name></trkpt>
<trkpt lat="52.094873" lon="05.645209"><ele>41.6</ele><time>2022-04-18T14:20:20Z</time><name>PT1573</name></trkpt>
<trkpt lat="52.094860" lon="05.645193"><ele>41.6</ele><time>2022-04-18T14:20:21Z</time><name>PT1574</name></trkpt>
<trkpt lat="52.094854" lon="05.645185"><ele>41.6</ele><time>2022-04-18T14:20:22Z</time><name>PT1575</name></trkpt>
<trkpt lat="52.094846" lon="05.645177"><ele>41.6</ele><time>2022-04-18T14:20:23Z</time><name>PT1576</name></trkpt>
<trkpt lat="52.094840" lon="05.645173"><ele>41.6</ele><time>2022-04-18T14:20:24Z</time><name>PT1577</name></trkpt>
<trkpt lat="52.094834" lon="05.645166"><ele>41.7</ele><time>2022-04-18T14:20:25Z</time><name>PT1578</name></trkpt>
<trkpt lat="52.094826" lon="05.645157"><ele>41.9</ele><time>2022-04-18T14:20:26Z</time><name>PT1579</name></trkpt>
<trkpt lat="52.094820" lon="05.645151"><ele>42</ele><time>2022-04-18T14:20:27Z</time><name>PT1580</name></trkpt>
<trkpt lat="52.094804" lon="05.645139"><ele>42.1</ele><time>2022-04-18T14:20:28Z</time><name>PT1581</name></trkpt>
<trkpt lat="52.094777" lon="05.645112"><ele>42.1</ele><time>2022-04-18T14:20:30Z</time><name>PT1582</name></trkpt>
<trkpt lat="52.094770" lon="05.645101"><ele>42.2</ele><time>2022-04-18T14:20:31Z</time><name>PT1583</name></trkpt>
<trkpt lat="52.094764" lon="05.645091"><ele>42.1</ele><time>2022-04-18T14:20:32Z</time><name>PT1584</name></trkpt>
<trkpt lat="52.094757" lon="05.645087"><ele>42.2</ele><time>2022-04-18T14:20:33Z</time><name>PT1585</name></trkpt>
<trkpt lat="52.094754" lon="05.645087"><ele>42.4</ele><time>2022-04-18T14:20:34Z</time><name>PT1586</name></trkpt>
<trkpt lat="52.094746" lon="05.645085"><ele>42.4</ele><time>2022-04-18T14:20:35Z</time><name>PT1587</name></trkpt>
<trkpt lat="52.094731" lon="05.645078"><ele>42.5</ele><time>2022-04-18T14:20:36Z</time><name>PT1588</name></trkpt>
<trkpt lat="52.094720" lon="05.645063"><ele>42.5</ele><time>2022-04-18T14:20:37Z</time><name>PT1589</name></trkpt>
<trkpt lat="52.094707" lon="05.645046"><ele>42.5</ele><time>2022-04-18T14:20:38Z</time><name>PT1590</name></trkpt>
<trkpt lat="52.094698" lon="05.645032"><ele>42.5</ele><time>2022-04-18T14:20:39Z</time><name>PT1591</name></trkpt>
<trkpt lat="52.094691" lon="05.645022"><ele>42.4</ele><time>2022-04-18T14:20:40Z</time><name>PT1592</name></trkpt>
<trkpt lat="52.094684" lon="05.645019"><ele>42.2</ele><time>2022-04-18T14:20:41Z</time><name>PT1593</name></trkpt>
<trkpt lat="52.094679" lon="05.645005"><ele>42.3</ele><time>2022-04-18T14:20:42Z</time><name>PT1594</name></trkpt>
<trkpt lat="52.094669" lon="05.644999"><ele>42.2</ele><time>2022-04-18T14:20:43Z</time><name>PT1595</name></trkpt>
<trkpt lat="52.094659" lon="05.644988"><ele>42.1</ele><time>2022-04-18T14:20:44Z</time><name>PT1596</name></trkpt>
<trkpt lat="52.094644" lon="05.644980"><ele>42.3</ele><time>2022-04-18T14:20:45Z</time><name>PT1597</name></trkpt>
<trkpt lat="52.094632" lon="05.644966"><ele>42.3</ele><time>2022-04-18T14:20:46Z</time><name>PT1598</name></trkpt>
<trkpt lat="52.094623" lon="05.644957"><ele>42.3</ele><time>2022-04-18T14:20:48Z</time><name>PT1599</name></trkpt>
<trkpt lat="52.094614" lon="05.644953"><ele>42.3</ele><time>2022-04-18T14:20:48Z</time><name>PT1600</name></trkpt>
<trkpt lat="52.094606" lon="05.644953"><ele>42.5</ele><time>2022-04-18T14:20:49Z</time><name>PT1601</name></trkpt>
<trkpt lat="52.094596" lon="05.644949"><ele>42.6</ele><time>2022-04-18T14:20:51Z</time><name>PT1602</name></trkpt>
<trkpt lat="52.094581" lon="05.644946"><ele>42.5</ele><time>2022-04-18T14:20:51Z</time><name>PT1603</name></trkpt>
<trkpt lat="52.094572" lon="05.644947"><ele>42.6</ele><time>2022-04-18T14:20:52Z</time><name>PT1604</name></trkpt>
<trkpt lat="52.094555" lon="05.644958"><ele>42.6</ele><time>2022-04-18T14:20:53Z</time><name>PT1605</name></trkpt>
<trkpt lat="52.094542" lon="05.644960"><ele>42.7</ele><time>2022-04-18T14:20:54Z</time><name>PT1606</name></trkpt>
<trkpt lat="52.094531" lon="05.644961"><ele>42.8</ele><time>2022-04-18T14:20:55Z</time><name>PT1607</name></trkpt>
<trkpt lat="52.094522" lon="05.644965"><ele>43</ele><time>2022-04-18T14:20:56Z</time><name>PT1608</name></trkpt>
<trkpt lat="52.094514" lon="05.644969"><ele>43</ele><time>2022-04-18T14:20:57Z</time><name>PT1609</name></trkpt>
<trkpt lat="52.094503" lon="05.644973"><ele>43.1</ele><time>2022-04-18T14:20:58Z</time><name>PT1610</name></trkpt>
<trkpt lat="52.094492" lon="05.644977"><ele>42.9</ele><time>2022-04-18T14:20:59Z</time><name>PT1611</name></trkpt>
<trkpt lat="52.094479" lon="05.644985"><ele>42.6</ele><time>2022-04-18T14:21:00Z</time><name>PT1612</name></trkpt>
<trkpt lat="52.094467" lon="05.644990"><ele>42.5</ele><time>2022-04-18T14:21:01Z</time><name>PT1613</name></trkpt>
<trkpt lat="52.094459" lon="05.644995"><ele>42.5</ele><time>2022-04-18T14:21:02Z</time><name>PT1614</name></trkpt>
<trkpt lat="52.094454" lon="05.644997"><ele>42.3</ele><time>2022-04-18T14:21:03Z</time><name>PT1615</name></trkpt>
<trkpt lat="52.094450" lon="05.645000"><ele>42.6</ele><time>2022-04-18T14:21:04Z</time><name>PT1616</name></trkpt>
<trkpt lat="52.094440" lon="05.645009"><ele>42.7</ele><time>2022-04-18T14:21:05Z</time><name>PT1617</name></trkpt>
<trkpt lat="52.094428" lon="05.645012"><ele>42.8</ele><time>2022-04-18T14:21:06Z</time><name>PT1618</name></trkpt>
<trkpt lat="52.094416" lon="05.645015"><ele>42.9</ele><time>2022-04-18T14:21:07Z</time><name>PT1619</name></trkpt>
<trkpt lat="52.094403" lon="05.645020"><ele>42.9</ele><time>2022-04-18T14:21:08Z</time><name>PT1620</name></trkpt>
<trkpt lat="52.094391" lon="05.645022"><ele>42.9</ele><time>2022-04-18T14:21:09Z</time><name>PT1621</name></trkpt>
<trkpt lat="52.094379" lon="05.645024"><ele>42.9</ele><time>2022-04-18T14:21:10Z</time><name>PT1622</name></trkpt>
<trkpt lat="52.094373" lon="05.645025"><ele>42.8</ele><time>2022-04-18T14:21:11Z</time><name>PT1623</name></trkpt>
<trkpt lat="52.094369" lon="05.645025"><ele>42.8</ele><time>2022-04-18T14:21:12Z</time><name>PT1624</name></trkpt>
<trkpt lat="52.094363" lon="05.645031"><ele>42.6</ele><time>2022-04-18T14:21:13Z</time><name>PT1625</name></trkpt>
<trkpt lat="52.094351" lon="05.645042"><ele>42.5</ele><time>2022-04-18T14:21:14Z</time><name>PT1626</name></trkpt>
<trkpt lat="52.094337" lon="05.645051"><ele>42.4</ele><time>2022-04-18T14:21:15Z</time><name>PT1627</name></trkpt>
<trkpt lat="52.094324" lon="05.645056"><ele>42.3</ele><time>2022-04-18T14:21:16Z</time><name>PT1628</name></trkpt>
<trkpt lat="52.094315" lon="05.645059"><ele>42.6</ele><time>2022-04-18T14:21:17Z</time><name>PT1629</name></trkpt>
<trkpt lat="52.094306" lon="05.645064"><ele>42.7</ele><time>2022-04-18T14:21:18Z</time><name>PT1630</name></trkpt>
<trkpt lat="52.094298" lon="05.645069"><ele>42.7</ele><time>2022-04-18T14:21:19Z</time><name>PT1631</name></trkpt>
<trkpt lat="52.094288" lon="05.645080"><ele>42.9</ele><time>2022-04-18T14:21:20Z</time><name>PT1632</name></trkpt>
<trkpt lat="52.094276" lon="05.645088"><ele>42.7</ele><time>2022-04-18T14:21:21Z</time><name>PT1633</name></trkpt>
<trkpt lat="52.094262" lon="05.645093"><ele>42.6</ele><time>2022-04-18T14:21:22Z</time><name>PT1634</name></trkpt>
<trkpt lat="52.094247" lon="05.645096"><ele>42.6</ele><time>2022-04-18T14:21:23Z</time><name>PT1635</name></trkpt>
<trkpt lat="52.094237" lon="05.645098"><ele>42.7</ele><time>2022-04-18T14:21:24Z</time><name>PT1636</name></trkpt>
<trkpt lat="52.094230" lon="05.645102"><ele>42.7</ele><time>2022-04-18T14:21:25Z</time><name>PT1637</name></trkpt>
<trkpt lat="52.094222" lon="05.645102"><ele>42.8</ele><time>2022-04-18T14:21:26Z</time><name>PT1638</name></trkpt>
<trkpt lat="52.094215" lon="05.645109"><ele>42.6</ele><time>2022-04-18T14:21:27Z</time><name>PT1639</name></trkpt>
<trkpt lat="52.094202" lon="05.645112"><ele>42.6</ele><time>2022-04-18T14:21:28Z</time><name>PT1640</name></trkpt>
<trkpt lat="52.094194" lon="05.645115"><ele>42.6</ele><time>2022-04-18T14:21:29Z</time><name>PT1641</name></trkpt>
<trkpt lat="52.094183" lon="05.645116"><ele>42.6</ele><time>2022-04-18T14:21:30Z</time><name>PT1642</name></trkpt>
<trkpt lat="52.094176" lon="05.645116"><ele>43</ele><time>2022-04-18T14:21:31Z</time><name>PT1643</name></trkpt>
<trkpt lat="52.094166" lon="05.645117"><ele>42.9</ele><time>2022-04-18T14:21:32Z</time><name>PT1644</name></trkpt>
<trkpt lat="52.094157" lon="05.645126"><ele>42.9</ele><time>2022-04-18T14:21:33Z</time><name>PT1645</name></trkpt>
<trkpt lat="52.094146" lon="05.645133"><ele>42.9</ele><time>2022-04-18T14:21:34Z</time><name>PT1646</name></trkpt>
<trkpt lat="52.094139" lon="05.645135"><ele>42.6</ele><time>2022-04-18T14:21:35Z</time><name>PT1647</name></trkpt>
<trkpt lat="52.094130" lon="05.645138"><ele>42.7</ele><time>2022-04-18T14:21:36Z</time><name>PT1648</name></trkpt>
<trkpt lat="52.094122" lon="05.645145"><ele>42.6</ele><time>2022-04-18T14:21:37Z</time><name>PT1649</name></trkpt>
<trkpt lat="52.094111" lon="05.645150"><ele>42.8</ele><time>2022-04-18T14:21:38Z</time><name>PT1650</name></trkpt>
<trkpt lat="52.094098" lon="05.645149"><ele>42.9</ele><time>2022-04-18T14:21:39Z</time><name>PT1651</name></trkpt>
<trkpt lat="52.094085" lon="05.645147"><ele>43</ele><time>2022-04-18T14:21:40Z</time><name>PT1652</name></trkpt>
<trkpt lat="52.094075" lon="05.645144"><ele>43.1</ele><time>2022-04-18T14:21:41Z</time><name>PT1653</name></trkpt>
<trkpt lat="52.094066" lon="05.645141"><ele>43.2</ele><time>2022-04-18T14:21:42Z</time><name>PT1654</name></trkpt>
<trkpt lat="52.094056" lon="05.645143"><ele>43.2</ele><time>2022-04-18T14:21:43Z</time><name>PT1655</name></trkpt>
<trkpt lat="52.094052" lon="05.645146"><ele>43</ele><time>2022-04-18T14:21:44Z</time><name>PT1656</name></trkpt>
<trkpt lat="52.094050" lon="05.645145"><ele>43</ele><time>2022-04-18T14:21:45Z</time><name>PT1657</name></trkpt>
<trkpt lat="52.094047" lon="05.645144"><ele>42.9</ele><time>2022-04-18T14:21:46Z</time><name>PT1658</name></trkpt>
<trkpt lat="52.094035" lon="05.645133"><ele>43</ele><time>2022-04-18T14:21:47Z</time><name>PT1659</name></trkpt>
<trkpt lat="52.094024" lon="05.645123"><ele>43</ele><time>2022-04-18T14:21:48Z</time><name>PT1660</name></trkpt>
<trkpt lat="52.094025" lon="05.645123"><ele>43</ele><time>2022-04-18T14:21:49Z</time><name>PT1661</name></trkpt>
<trkpt lat="52.094020" lon="05.645109"><ele>43.2</ele><time>2022-04-18T14:21:50Z</time><name>PT1662</name></trkpt>
<trkpt lat="52.094020" lon="05.645094"><ele>43.1</ele><time>2022-04-18T14:21:51Z</time><name>PT1663</name></trkpt>
<trkpt lat="52.094018" lon="05.645097"><ele>42.9</ele><time>2022-04-18T14:21:52Z</time><name>PT1664</name></trkpt>
<trkpt lat="52.094015" lon="05.645096"><ele>42.9</ele><time>2022-04-18T14:21:53Z</time><name>PT1665</name></trkpt>
<trkpt lat="52.094015" lon="05.645098"><ele>42.9</ele><time>2022-04-18T14:21:54Z</time><name>PT1666</name></trkpt>
<trkpt lat="52.094011" lon="05.645099"><ele>42.8</ele><time>2022-04-18T14:21:55Z</time><name>PT1667</name></trkpt>
<trkpt lat="52.094010" lon="05.645098"><ele>42.8</ele><time>2022-04-18T14:21:56Z</time><name>PT1668</name></trkpt>
<trkpt lat="52.094009" lon="05.645098"><ele>42.9</ele><time>2022-04-18T14:21:57Z</time><name>PT1669</name></trkpt>
<trkpt lat="52.094004" lon="05.645090"><ele>42.9</ele><time>2022-04-18T14:22:04Z</time><name>PT1670</name></trkpt>
<trkpt lat="52.093996" lon="05.645073"><ele>43</ele><time>2022-04-18T14:22:05Z</time><name>PT1671</name></trkpt>
<trkpt lat="52.093994" lon="05.645064"><ele>43.1</ele><time>2022-04-18T14:22:06Z</time><name>PT1672</name></trkpt>
<trkpt lat="52.093992" lon="05.645065"><ele>43</ele><time>2022-04-18T14:22:07Z</time><name>PT1673</name></trkpt>
<trkpt lat="52.093992" lon="05.645073"><ele>43</ele><time>2022-04-18T14:22:08Z</time><name>PT1674</name></trkpt>
<trkpt lat="52.093991" lon="05.645071"><ele>43</ele><time>2022-04-18T14:22:09Z</time><name>PT1675</name></trkpt>
<trkpt lat="52.093991" lon="05.645074"><ele>42.9</ele><time>2022-04-18T14:22:10Z</time><name>PT1676</name></trkpt>
<trkpt lat="52.093989" lon="05.645077"><ele>42.9</ele><time>2022-04-18T14:22:11Z</time><name>PT1677</name></trkpt>
<trkpt lat="52.093986" lon="05.645079"><ele>43</ele><time>2022-04-18T14:22:12Z</time><name>PT1678</name></trkpt>
<trkpt lat="52.093983" lon="05.645081"><ele>43</ele><time>2022-04-18T14:22:13Z</time><name>PT1679</name></trkpt>
<trkpt lat="52.093985" lon="05.645086"><ele>42.9</ele><time>2022-04-18T14:22:14Z</time><name>PT1680</name></trkpt>
<trkpt lat="52.093988" lon="05.645075"><ele>43</ele><time>2022-04-18T14:22:16Z</time><name>PT1681</name></trkpt>
<trkpt lat="52.093987" lon="05.645055"><ele>43</ele><time>2022-04-18T14:22:17Z</time><name>PT1682</name></trkpt>
<trkpt lat="52.093984" lon="05.645041"><ele>43</ele><time>2022-04-18T14:22:18Z</time><name>PT1683</name></trkpt>
<trkpt lat="52.093980" lon="05.645030"><ele>43</ele><time>2022-04-18T14:22:19Z</time><name>PT1684</name></trkpt>
<trkpt lat="52.093976" lon="05.645017"><ele>42.9</ele><time>2022-04-18T14:22:20Z</time><name>PT1685</name></trkpt>
<trkpt lat="52.093970" lon="05.645004"><ele>42.8</ele><time>2022-04-18T14:22:21Z</time><name>PT1686</name></trkpt>
<trkpt lat="52.093972" lon="05.644997"><ele>42.7</ele><time>2022-04-18T14:22:22Z</time><name>PT1687</name></trkpt>
<trkpt lat="52.093970" lon="05.644982"><ele>42.7</ele><time>2022-04-18T14:22:23Z</time><name>PT1688</name></trkpt>
<trkpt lat="52.093965" lon="05.644976"><ele>42.8</ele><time>2022-04-18T14:22:24Z</time><name>PT1689</name></trkpt>
<trkpt lat="52.093962" lon="05.644974"><ele>42.7</ele><time>2022-04-18T14:22:25Z</time><name>PT1690</name></trkpt>
<trkpt lat="52.093955" lon="05.644972"><ele>42.8</ele><time>2022-04-18T14:22:26Z</time><name>PT1691</name></trkpt>
<trkpt lat="52.093956" lon="05.644960"><ele>42.7</ele><time>2022-04-18T14:22:27Z</time><name>PT1692</name></trkpt>
<trkpt lat="52.093958" lon="05.644944"><ele>42.6</ele><time>2022-04-18T14:22:28Z</time><name>PT1693</name></trkpt>
<trkpt lat="52.093957" lon="05.644931"><ele>42.6</ele><time>2022-04-18T14:22:29Z</time><name>PT1694</name></trkpt>
<trkpt lat="52.093959" lon="05.644923"><ele>42.8</ele><time>2022-04-18T14:22:30Z</time><name>PT1695</name></trkpt>
<trkpt lat="52.093961" lon="05.644909"><ele>42.6</ele><time>2022-04-18T14:22:31Z</time><name>PT1696</name></trkpt>
<trkpt lat="52.093969" lon="05.644890"><ele>42.6</ele><time>2022-04-18T14:22:32Z</time><name>PT1697</name></trkpt>
<trkpt lat="52.093964" lon="05.644876"><ele>42.6</ele><time>2022-04-18T14:22:33Z</time><name>PT1698</name></trkpt>
<trkpt lat="52.093971" lon="05.644850"><ele>42.5</ele><time>2022-04-18T14:22:34Z</time><name>PT1699</name></trkpt>
<trkpt lat="52.093968" lon="05.644834"><ele>42.5</ele><time>2022-04-18T14:22:35Z</time><name>PT1700</name></trkpt>
<trkpt lat="52.093965" lon="05.644827"><ele>42.6</ele><time>2022-04-18T14:22:36Z</time><name>PT1701</name></trkpt>
<trkpt lat="52.093962" lon="05.644815"><ele>42.6</ele><time>2022-04-18T14:22:37Z</time><name>PT1702</name></trkpt>
<trkpt lat="52.093957" lon="05.644802"><ele>42.6</ele><time>2022-04-18T14:22:38Z</time><name>PT1703</name></trkpt>
<trkpt lat="52.093957" lon="05.644788"><ele>42.6</ele><time>2022-04-18T14:22:39Z</time><name>PT1704</name></trkpt>
<trkpt lat="52.093956" lon="05.644770"><ele>42.5</ele><time>2022-04-18T14:22:40Z</time><name>PT1705</name></trkpt>
<trkpt lat="52.093954" lon="05.644756"><ele>42.3</ele><time>2022-04-18T14:22:41Z</time><name>PT1706</name></trkpt>
<trkpt lat="52.093954" lon="05.644744"><ele>42.3</ele><time>2022-04-18T14:22:42Z</time><name>PT1707</name></trkpt>
<trkpt lat="52.093953" lon="05.644734"><ele>42.1</ele><time>2022-04-18T14:22:43Z</time><name>PT1708</name></trkpt>
<trkpt lat="52.093951" lon="05.644722"><ele>42.1</ele><time>2022-04-18T14:22:44Z</time><name>PT1709</name></trkpt>
<trkpt lat="52.093950" lon="05.644710"><ele>42.2</ele><time>2022-04-18T14:22:45Z</time><name>PT1710</name></trkpt>
<trkpt lat="52.093947" lon="05.644695"><ele>42.1</ele><time>2022-04-18T14:22:46Z</time><name>PT1711</name></trkpt>
<trkpt lat="52.093947" lon="05.644683"><ele>42.1</ele><time>2022-04-18T14:22:47Z</time><name>PT1712</name></trkpt>
<trkpt lat="52.093944" lon="05.644670"><ele>42.3</ele><time>2022-04-18T14:22:48Z</time><name>PT1713</name></trkpt>
<trkpt lat="52.093940" lon="05.644648"><ele>42.2</ele><time>2022-04-18T14:22:49Z</time><name>PT1714</name></trkpt>
<trkpt lat="52.093940" lon="05.644622"><ele>42.5</ele><time>2022-04-18T14:22:50Z</time><name>PT1715</name></trkpt>
<trkpt lat="52.093940" lon="05.644600"><ele>42.6</ele><time>2022-04-18T14:22:51Z</time><name>PT1716</name></trkpt>
<trkpt lat="52.093941" lon="05.644585"><ele>42.4</ele><time>2022-04-18T14:22:52Z</time><name>PT1717</name></trkpt>
<trkpt lat="52.093937" lon="05.644576"><ele>42.3</ele><time>2022-04-18T14:22:53Z</time><name>PT1718</name></trkpt>
<trkpt lat="52.093935" lon="05.644564"><ele>42.1</ele><time>2022-04-18T14:22:54Z</time><name>PT1719</name></trkpt>
<trkpt lat="52.093935" lon="05.644553"><ele>42.1</ele><time>2022-04-18T14:22:55Z</time><name>PT1720</name></trkpt>
<trkpt lat="52.093935" lon="05.644539"><ele>42.1</ele><time>2022-04-18T14:22:56Z</time><name>PT1721</name></trkpt>
<trkpt lat="52.093933" lon="05.644525"><ele>42</ele><time>2022-04-18T14:22:57Z</time><name>PT1722</name></trkpt>
<trkpt lat="52.093932" lon="05.644512"><ele>42.1</ele><time>2022-04-18T14:22:58Z</time><name>PT1723</name></trkpt>
<trkpt lat="52.093937" lon="05.644490"><ele>42.1</ele><time>2022-04-18T14:22:59Z</time><name>PT1724</name></trkpt>
<trkpt lat="52.093929" lon="05.644470"><ele>42.1</ele><time>2022-04-18T14:23:00Z</time><name>PT1725</name></trkpt>
<trkpt lat="52.093927" lon="05.644454"><ele>42.1</ele><time>2022-04-18T14:23:01Z</time><name>PT1726</name></trkpt>
<trkpt lat="52.093928" lon="05.644445"><ele>42.3</ele><time>2022-04-18T14:23:02Z</time><name>PT1727</name></trkpt>
<trkpt lat="52.093928" lon="05.644436"><ele>42.3</ele><time>2022-04-18T14:23:03Z</time><name>PT1728</name></trkpt>
<trkpt lat="52.093922" lon="05.644426"><ele>42.2</ele><time>2022-04-18T14:23:04Z</time><name>PT1729</name></trkpt>
<trkpt lat="52.093907" lon="05.644402"><ele>42.1</ele><time>2022-04-18T14:23:05Z</time><name>PT1730</name></trkpt>
<trkpt lat="52.093904" lon="05.644398"><ele>42</ele><time>2022-04-18T14:23:06Z</time><name>PT1731</name></trkpt>
<trkpt lat="52.093901" lon="05.644395"><ele>41.9</ele><time>2022-04-18T14:23:07Z</time><name>PT1732</name></trkpt>
<trkpt lat="52.093899" lon="05.644394"><ele>41.7</ele><time>2022-04-18T14:23:08Z</time><name>PT1733</name></trkpt>
<trkpt lat="52.093897" lon="05.644368"><ele>42.1</ele><time>2022-04-18T14:23:11Z</time><name>PT1734</name></trkpt>
<trkpt lat="52.093884" lon="05.644342"><ele>42.2</ele><time>2022-04-18T14:23:12Z</time><name>PT1735</name></trkpt>
<trkpt lat="52.093884" lon="05.644329"><ele>42.2</ele><time>2022-04-18T14:23:13Z</time><name>PT1736</name></trkpt>
<trkpt lat="52.093883" lon="05.644324"><ele>42.1</ele><time>2022-04-18T14:23:14Z</time><name>PT1737</name></trkpt>
<trkpt lat="52.093875" lon="05.644311"><ele>42.1</ele><time>2022-04-18T14:23:15Z</time><name>PT1738</name></trkpt>
<trkpt lat="52.093871" lon="05.644288"><ele>42.1</ele><time>2022-04-18T14:23:16Z</time><name>PT1739</name></trkpt>
<trkpt lat="52.093862" lon="05.644267"><ele>42.1</ele><time>2022-04-18T14:23:17Z</time><name>PT1740</name></trkpt>
<trkpt lat="52.093864" lon="05.644245"><ele>42.3</ele><time>2022-04-18T14:23:18Z</time><name>PT1741</name></trkpt>
<trkpt lat="52.093864" lon="05.644232"><ele>42.2</ele><time>2022-04-18T14:23:19Z</time><name>PT1742</name></trkpt>
<trkpt lat="52.093857" lon="05.644215"><ele>42.1</ele><time>2022-04-18T14:23:20Z</time><name>PT1743</name></trkpt>
<trkpt lat="52.093851" lon="05.644191"><ele>42.1</ele><time>2022-04-18T14:23:21Z</time><name>PT1744</name></trkpt>
<trkpt lat="52.093845" lon="05.644166"><ele>41.8</ele><time>2022-04-18T14:23:22Z</time><name>PT1745</name></trkpt>
<trkpt lat="52.093841" lon="05.644148"><ele>41.8</ele><time>2022-04-18T14:23:23Z</time><name>PT1746</name></trkpt>
<trkpt lat="52.093837" lon="05.644132"><ele>41.7</ele><time>2022-04-18T14:23:24Z</time><name>PT1747</name></trkpt>
<trkpt lat="52.093834" lon="05.644121"><ele>41.7</ele><time>2022-04-18T14:23:25Z</time><name>PT1748</name></trkpt>
<trkpt lat="52.093827" lon="05.644110"><ele>41.7</ele><time>2022-04-18T14:23:26Z</time><name>PT1749</name></trkpt>
<trkpt lat="52.093824" lon="05.644096"><ele>41.8</ele><time>2022-04-18T14:23:27Z</time><name>PT1750</name></trkpt>
<trkpt lat="52.093818" lon="05.644069"><ele>41.7</ele><time>2022-04-18T14:23:28Z</time><name>PT1751</name></trkpt>
<trkpt lat="52.093813" lon="05.644047"><ele>41.6</ele><time>2022-04-18T14:23:29Z</time><name>PT1752</name></trkpt>
<trkpt lat="52.093814" lon="05.644027"><ele>41.6</ele><time>2022-04-18T14:23:30Z</time><name>PT1753</name></trkpt>
<trkpt lat="52.093807" lon="05.644004"><ele>41.6</ele><time>2022-04-18T14:23:31Z</time><name>PT1754</name></trkpt>
<trkpt lat="52.093809" lon="05.643991"><ele>41.7</ele><time>2022-04-18T14:23:32Z</time><name>PT1755</name></trkpt>
<trkpt lat="52.093809" lon="05.643973"><ele>41.6</ele><time>2022-04-18T14:23:33Z</time><name>PT1756</name></trkpt>
<trkpt lat="52.093810" lon="05.643958"><ele>41.6</ele><time>2022-04-18T14:23:34Z</time><name>PT1757</name></trkpt>
<trkpt lat="52.093807" lon="05.643945"><ele>41.5</ele><time>2022-04-18T14:23:35Z</time><name>PT1758</name></trkpt>
<trkpt lat="52.093805" lon="05.643931"><ele>41.6</ele><time>2022-04-18T14:23:36Z</time><name>PT1759</name></trkpt>
<trkpt lat="52.093806" lon="05.643917"><ele>41.5</ele><time>2022-04-18T14:23:37Z</time><name>PT1760</name></trkpt>
<trkpt lat="52.093809" lon="05.643900"><ele>41.6</ele><time>2022-04-18T14:23:39Z</time><name>PT1761</name></trkpt>
<trkpt lat="52.093810" lon="05.643884"><ele>41.6</ele><time>2022-04-18T14:23:39Z</time><name>PT1762</name></trkpt>
<trkpt lat="52.093811" lon="05.643864"><ele>41.6</ele><time>2022-04-18T14:23:40Z</time><name>PT1763</name></trkpt>
<trkpt lat="52.093814" lon="05.643847"><ele>41.6</ele><time>2022-04-18T14:23:41Z</time><name>PT1764</name></trkpt>
<trkpt lat="52.093813" lon="05.643830"><ele>41.6</ele><time>2022-04-18T14:23:42Z</time><name>PT1765</name></trkpt>
<trkpt lat="52.093809" lon="05.643811"><ele>41.6</ele><time>2022-04-18T14:23:43Z</time><name>PT1766</name></trkpt>
<trkpt lat="52.093806" lon="05.643793"><ele>41.6</ele><time>2022-04-18T14:23:44Z</time><name>PT1767</name></trkpt>
<trkpt lat="52.093806" lon="05.643777"><ele>41.6</ele><time>2022-04-18T14:23:45Z</time><name>PT1768</name></trkpt>
<trkpt lat="52.093803" lon="05.643761"><ele>41.6</ele><time>2022-04-18T14:23:46Z</time><name>PT1769</name></trkpt>
<trkpt lat="52.093798" lon="05.643744"><ele>41.5</ele><time>2022-04-18T14:23:47Z</time><name>PT1770</name></trkpt>
<trkpt lat="52.093795" lon="05.643732"><ele>41.5</ele><time>2022-04-18T14:23:48Z</time><name>PT1771</name></trkpt>
<trkpt lat="52.093794" lon="05.643722"><ele>41.5</ele><time>2022-04-18T14:23:49Z</time><name>PT1772</name></trkpt>
<trkpt lat="52.093793" lon="05.643709"><ele>41.4</ele><time>2022-04-18T14:23:50Z</time><name>PT1773</name></trkpt>
<trkpt lat="52.093790" lon="05.643695"><ele>41.5</ele><time>2022-04-18T14:23:51Z</time><name>PT1774</name></trkpt>
<trkpt lat="52.093786" lon="05.643683"><ele>41.6</ele><time>2022-04-18T14:23:52Z</time><name>PT1775</name></trkpt></trkseg></trk></gpx>